<?xml version="1.0" encoding="UTF-8" standalone="no" ?>
<gpx xmlns="http://www.topografix.com/GPX/1/1" xmlns:xsi="http://www.w3.org/2001/XMLSchema-instance" xsi:schemaLocation="http://www.topografix.com/GPX/1/1 http://www.topografix.com/GPX/1/1/gpx.xsd" version="1.1" creator="VisuGPX - https://www.visugpx.com">
  <metadata>
    <name>Villaines Gare</name>
    <desc><![CDATA[Départ de Bais...]]></desc>
  </metadata>
  <trk>
    <name><![CDATA[Villaines gare]]></name>
    <trkseg>
      <trkpt lat="48.25226" lon="-0.35968">
        <ele>199.9</ele>
        <time>2014-09-09T07:13:18Z</time>
      </trkpt>
      <trkpt lat="48.25226" lon="-0.35968">
        <ele>254</ele>
        <time>2014-09-09T07:13:20Z</time>
      </trkpt>
      <trkpt lat="48.25221" lon="-0.35991">
        <ele>252</ele>
        <time>2014-09-09T07:13:29Z</time>
      </trkpt>
      <trkpt lat="48.25211" lon="-0.36017">
        <ele>249</ele>
        <time>2014-09-09T07:13:35Z</time>
      </trkpt>
      <trkpt lat="48.25195" lon="-0.36046">
        <ele>246</ele>
        <time>2014-09-09T07:13:41Z</time>
      </trkpt>
      <trkpt lat="48.25174" lon="-0.36076">
        <ele>243</ele>
        <time>2014-09-09T07:13:47Z</time>
      </trkpt>
      <trkpt lat="48.25164" lon="-0.36088">
        <ele>244</ele>
        <time>2014-09-09T07:13:50Z</time>
      </trkpt>
      <trkpt lat="48.25151" lon="-0.36105">
        <ele>243</ele>
        <time>2014-09-09T07:13:55Z</time>
      </trkpt>
      <trkpt lat="48.25134" lon="-0.36136">
        <ele>241</ele>
        <time>2014-09-09T07:14:00Z</time>
      </trkpt>
      <trkpt lat="48.25126" lon="-0.36166">
        <ele>237</ele>
        <time>2014-09-09T07:14:06Z</time>
      </trkpt>
      <trkpt lat="48.25103" lon="-0.36198">
        <ele>234</ele>
        <time>2014-09-09T07:14:11Z</time>
      </trkpt>
      <trkpt lat="48.25083" lon="-0.36221">
        <ele>233</ele>
        <time>2014-09-09T07:14:17Z</time>
      </trkpt>
      <trkpt lat="48.25076" lon="-0.36229">
        <ele>240</ele>
        <time>2014-09-09T07:14:21Z</time>
      </trkpt>
      <trkpt lat="48.25076" lon="-0.36238">
        <ele>238</ele>
        <time>2014-09-09T07:14:23Z</time>
      </trkpt>
      <trkpt lat="48.25076" lon="-0.36238">
        <ele>184.8</ele>
        <time>2014-09-09T07:14:31Z</time>
      </trkpt>
      <trkpt lat="48.25076" lon="-0.36238">
        <ele>184.8</ele>
        <time>2014-09-09T07:14:36Z</time>
      </trkpt>
      <trkpt lat="48.25096" lon="-0.36295">
        <ele>235</ele>
        <time>2014-09-09T07:14:46Z</time>
      </trkpt>
      <trkpt lat="48.25108" lon="-0.36321">
        <ele>233</ele>
        <time>2014-09-09T07:14:51Z</time>
      </trkpt>
      <trkpt lat="48.25121" lon="-0.36352">
        <ele>233</ele>
        <time>2014-09-09T07:14:57Z</time>
      </trkpt>
      <trkpt lat="48.25137" lon="-0.36389">
        <ele>236</ele>
        <time>2014-09-09T07:15:02Z</time>
      </trkpt>
      <trkpt lat="48.25146" lon="-0.36405">
        <ele>236</ele>
        <time>2014-09-09T07:15:06Z</time>
      </trkpt>
      <trkpt lat="48.25166" lon="-0.36434">
        <ele>234</ele>
        <time>2014-09-09T07:15:11Z</time>
      </trkpt>
      <trkpt lat="48.25184" lon="-0.36457">
        <ele>233</ele>
        <time>2014-09-09T07:15:16Z</time>
      </trkpt>
      <trkpt lat="48.25201" lon="-0.36481">
        <ele>231</ele>
        <time>2014-09-09T07:15:22Z</time>
      </trkpt>
      <trkpt lat="48.2522" lon="-0.36508">
        <ele>230</ele>
        <time>2014-09-09T07:15:27Z</time>
      </trkpt>
      <trkpt lat="48.25231" lon="-0.36526">
        <ele>229</ele>
        <time>2014-09-09T07:15:30Z</time>
      </trkpt>
      <trkpt lat="48.25244" lon="-0.36545">
        <ele>232</ele>
        <time>2014-09-09T07:15:33Z</time>
      </trkpt>
      <trkpt lat="48.25269" lon="-0.3658">
        <ele>230</ele>
        <time>2014-09-09T07:15:39Z</time>
      </trkpt>
      <trkpt lat="48.25282" lon="-0.36598">
        <ele>230</ele>
        <time>2014-09-09T07:15:42Z</time>
      </trkpt>
      <trkpt lat="48.25295" lon="-0.36614">
        <ele>230</ele>
        <time>2014-09-09T07:15:45Z</time>
      </trkpt>
      <trkpt lat="48.25309" lon="-0.36627">
        <ele>229</ele>
        <time>2014-09-09T07:15:48Z</time>
      </trkpt>
      <trkpt lat="48.2534" lon="-0.36656">
        <ele>230</ele>
        <time>2014-09-09T07:15:54Z</time>
      </trkpt>
      <trkpt lat="48.25367" lon="-0.36681">
        <ele>230</ele>
        <time>2014-09-09T07:16:00Z</time>
      </trkpt>
      <trkpt lat="48.25393" lon="-0.36706">
        <ele>230</ele>
        <time>2014-09-09T07:16:05Z</time>
      </trkpt>
      <trkpt lat="48.2542" lon="-0.36732">
        <ele>230</ele>
        <time>2014-09-09T07:16:10Z</time>
      </trkpt>
      <trkpt lat="48.2545" lon="-0.36763">
        <ele>231</ele>
        <time>2014-09-09T07:16:15Z</time>
      </trkpt>
      <trkpt lat="48.25463" lon="-0.3678">
        <ele>229</ele>
        <time>2014-09-09T07:16:20Z</time>
      </trkpt>
      <trkpt lat="48.25478" lon="-0.36798">
        <ele>231</ele>
        <time>2014-09-09T07:16:25Z</time>
      </trkpt>
      <trkpt lat="48.25478" lon="-0.36806">
        <ele>229</ele>
        <time>2014-09-09T07:16:29Z</time>
      </trkpt>
      <trkpt lat="48.25478" lon="-0.36806">
        <ele>180</ele>
        <time>2014-09-09T07:16:36Z</time>
      </trkpt>
      <trkpt lat="48.25478" lon="-0.36806">
        <ele>180</ele>
        <time>2014-09-09T07:16:43Z</time>
      </trkpt>
      <trkpt lat="48.25476" lon="-0.36817">
        <ele>240</ele>
        <time>2014-09-09T07:16:52Z</time>
      </trkpt>
      <trkpt lat="48.25476" lon="-0.36817">
        <ele>179.2</ele>
        <time>2014-09-09T07:16:52Z</time>
      </trkpt>
      <trkpt lat="48.25476" lon="-0.36817">
        <ele>179.2</ele>
        <time>2014-09-09T07:19:34Z</time>
      </trkpt>
      <trkpt lat="48.25499" lon="-0.36821">
        <ele>230</ele>
        <time>2014-09-09T07:19:34Z</time>
      </trkpt>
      <trkpt lat="48.25521" lon="-0.36841">
        <ele>230</ele>
        <time>2014-09-09T07:19:43Z</time>
      </trkpt>
      <trkpt lat="48.25541" lon="-0.36864">
        <ele>227</ele>
        <time>2014-09-09T07:20:54Z</time>
      </trkpt>
      <trkpt lat="48.25546" lon="-0.36869">
        <ele>229</ele>
        <time>2014-09-09T07:20:58Z</time>
      </trkpt>
      <trkpt lat="48.25546" lon="-0.36869">
        <ele>179.5</ele>
        <time>2014-09-09T07:21:03Z</time>
      </trkpt>
      <trkpt lat="48.25546" lon="-0.36869">
        <ele>179.5</ele>
        <time>2014-09-09T07:21:14Z</time>
      </trkpt>
      <trkpt lat="48.25564" lon="-0.36869">
        <ele>231</ele>
        <time>2014-09-09T07:21:14Z</time>
      </trkpt>
      <trkpt lat="48.25578" lon="-0.36879">
        <ele>232</ele>
        <time>2014-09-09T07:21:16Z</time>
      </trkpt>
      <trkpt lat="48.25589" lon="-0.3689">
        <ele>231</ele>
        <time>2014-09-09T07:21:19Z</time>
      </trkpt>
      <trkpt lat="48.25601" lon="-0.36901">
        <ele>230</ele>
        <time>2014-09-09T07:21:22Z</time>
      </trkpt>
      <trkpt lat="48.25621" lon="-0.36921">
        <ele>229</ele>
        <time>2014-09-09T07:21:27Z</time>
      </trkpt>
      <trkpt lat="48.25633" lon="-0.36934">
        <ele>230</ele>
        <time>2014-09-09T07:21:30Z</time>
      </trkpt>
      <trkpt lat="48.25653" lon="-0.36952">
        <ele>229</ele>
        <time>2014-09-09T07:21:36Z</time>
      </trkpt>
      <trkpt lat="48.25676" lon="-0.36974">
        <ele>232</ele>
        <time>2014-09-09T07:21:41Z</time>
      </trkpt>
      <trkpt lat="48.25701" lon="-0.36999">
        <ele>233</ele>
        <time>2014-09-09T07:21:47Z</time>
      </trkpt>
      <trkpt lat="48.25726" lon="-0.37022">
        <ele>232</ele>
        <time>2014-09-09T07:21:53Z</time>
      </trkpt>
      <trkpt lat="48.25746" lon="-0.37041">
        <ele>230</ele>
        <time>2014-09-09T07:21:58Z</time>
      </trkpt>
      <trkpt lat="48.25759" lon="-0.37053">
        <ele>230</ele>
        <time>2014-09-09T07:22:01Z</time>
      </trkpt>
      <trkpt lat="48.25773" lon="-0.37065">
        <ele>230</ele>
        <time>2014-09-09T07:22:04Z</time>
      </trkpt>
      <trkpt lat="48.25801" lon="-0.37089">
        <ele>230</ele>
        <time>2014-09-09T07:22:10Z</time>
      </trkpt>
      <trkpt lat="48.25828" lon="-0.37114">
        <ele>231</ele>
        <time>2014-09-09T07:22:16Z</time>
      </trkpt>
      <trkpt lat="48.25842" lon="-0.37127">
        <ele>231</ele>
        <time>2014-09-09T07:22:19Z</time>
      </trkpt>
      <trkpt lat="48.25863" lon="-0.37153">
        <ele>230</ele>
        <time>2014-09-09T07:22:24Z</time>
      </trkpt>
      <trkpt lat="48.25886" lon="-0.37189">
        <ele>230</ele>
        <time>2014-09-09T07:22:30Z</time>
      </trkpt>
      <trkpt lat="48.25896" lon="-0.3721">
        <ele>229</ele>
        <time>2014-09-09T07:22:33Z</time>
      </trkpt>
      <trkpt lat="48.25913" lon="-0.37262">
        <ele>228</ele>
        <time>2014-09-09T07:22:40Z</time>
      </trkpt>
      <trkpt lat="48.25931" lon="-0.37324">
        <ele>232</ele>
        <time>2014-09-09T07:22:48Z</time>
      </trkpt>
      <trkpt lat="48.25943" lon="-0.37364">
        <ele>232</ele>
        <time>2014-09-09T07:22:53Z</time>
      </trkpt>
      <trkpt lat="48.25956" lon="-0.37407">
        <ele>227</ele>
        <time>2014-09-09T07:22:58Z</time>
      </trkpt>
      <trkpt lat="48.25963" lon="-0.37432">
        <ele>227</ele>
        <time>2014-09-09T07:23:01Z</time>
      </trkpt>
      <trkpt lat="48.25969" lon="-0.37457">
        <ele>227</ele>
        <time>2014-09-09T07:23:04Z</time>
      </trkpt>
      <trkpt lat="48.2598" lon="-0.37505">
        <ele>231</ele>
        <time>2014-09-09T07:23:10Z</time>
      </trkpt>
      <trkpt lat="48.25989" lon="-0.37533">
        <ele>231</ele>
        <time>2014-09-09T07:23:13Z</time>
      </trkpt>
      <trkpt lat="48.25997" lon="-0.3756">
        <ele>229</ele>
        <time>2014-09-09T07:23:16Z</time>
      </trkpt>
      <trkpt lat="48.26004" lon="-0.37583">
        <ele>230</ele>
        <time>2014-09-09T07:23:19Z</time>
      </trkpt>
      <trkpt lat="48.26018" lon="-0.37631">
        <ele>229</ele>
        <time>2014-09-09T07:23:25Z</time>
      </trkpt>
      <trkpt lat="48.26031" lon="-0.37676">
        <ele>228</ele>
        <time>2014-09-09T07:23:30Z</time>
      </trkpt>
      <trkpt lat="48.26045" lon="-0.37721">
        <ele>224</ele>
        <time>2014-09-09T07:23:35Z</time>
      </trkpt>
      <trkpt lat="48.26059" lon="-0.37765">
        <ele>223</ele>
        <time>2014-09-09T07:23:40Z</time>
      </trkpt>
      <trkpt lat="48.26067" lon="-0.37792">
        <ele>223</ele>
        <time>2014-09-09T07:23:43Z</time>
      </trkpt>
      <trkpt lat="48.26074" lon="-0.37819">
        <ele>223</ele>
        <time>2014-09-09T07:23:46Z</time>
      </trkpt>
      <trkpt lat="48.26082" lon="-0.37846">
        <ele>222</ele>
        <time>2014-09-09T07:23:49Z</time>
      </trkpt>
      <trkpt lat="48.2609" lon="-0.37875">
        <ele>223</ele>
        <time>2014-09-09T07:23:53Z</time>
      </trkpt>
      <trkpt lat="48.26098" lon="-0.37902">
        <ele>221</ele>
        <time>2014-09-09T07:23:57Z</time>
      </trkpt>
      <trkpt lat="48.26122" lon="-0.37983">
        <ele>220</ele>
        <time>2014-09-09T07:24:04Z</time>
      </trkpt>
      <trkpt lat="48.26129" lon="-0.38008">
        <ele>219</ele>
        <time>2014-09-09T07:24:07Z</time>
      </trkpt>
      <trkpt lat="48.26136" lon="-0.38031">
        <ele>219</ele>
        <time>2014-09-09T07:24:10Z</time>
      </trkpt>
      <trkpt lat="48.26144" lon="-0.38057">
        <ele>218</ele>
        <time>2014-09-09T07:24:13Z</time>
      </trkpt>
      <trkpt lat="48.26159" lon="-0.38107">
        <ele>218</ele>
        <time>2014-09-09T07:24:19Z</time>
      </trkpt>
      <trkpt lat="48.2617" lon="-0.38142">
        <ele>217</ele>
        <time>2014-09-09T07:24:23Z</time>
      </trkpt>
      <trkpt lat="48.26183" lon="-0.38193">
        <ele>218</ele>
        <time>2014-09-09T07:24:28Z</time>
      </trkpt>
      <trkpt lat="48.26191" lon="-0.3822">
        <ele>219</ele>
        <time>2014-09-09T07:24:31Z</time>
      </trkpt>
      <trkpt lat="48.26198" lon="-0.38247">
        <ele>218</ele>
        <time>2014-09-09T07:24:34Z</time>
      </trkpt>
      <trkpt lat="48.26213" lon="-0.38295">
        <ele>218</ele>
        <time>2014-09-09T07:24:40Z</time>
      </trkpt>
      <trkpt lat="48.26225" lon="-0.38343">
        <ele>219</ele>
        <time>2014-09-09T07:24:45Z</time>
      </trkpt>
      <trkpt lat="48.26241" lon="-0.38396">
        <ele>213</ele>
        <time>2014-09-09T07:24:51Z</time>
      </trkpt>
      <trkpt lat="48.26259" lon="-0.38449">
        <ele>215</ele>
        <time>2014-09-09T07:24:56Z</time>
      </trkpt>
      <trkpt lat="48.26271" lon="-0.38495">
        <ele>214</ele>
        <time>2014-09-09T07:25:01Z</time>
      </trkpt>
      <trkpt lat="48.26279" lon="-0.38523">
        <ele>213</ele>
        <time>2014-09-09T07:25:04Z</time>
      </trkpt>
      <trkpt lat="48.26287" lon="-0.3855">
        <ele>211</ele>
        <time>2014-09-09T07:25:08Z</time>
      </trkpt>
      <trkpt lat="48.26302" lon="-0.38603">
        <ele>208</ele>
        <time>2014-09-09T07:25:13Z</time>
      </trkpt>
      <trkpt lat="48.2631" lon="-0.38629">
        <ele>207</ele>
        <time>2014-09-09T07:25:17Z</time>
      </trkpt>
      <trkpt lat="48.26317" lon="-0.38654">
        <ele>208</ele>
        <time>2014-09-09T07:25:20Z</time>
      </trkpt>
      <trkpt lat="48.26332" lon="-0.38707">
        <ele>208</ele>
        <time>2014-09-09T07:25:26Z</time>
      </trkpt>
      <trkpt lat="48.26348" lon="-0.3876">
        <ele>210</ele>
        <time>2014-09-09T07:25:31Z</time>
      </trkpt>
      <trkpt lat="48.26355" lon="-0.38786">
        <ele>210</ele>
        <time>2014-09-09T07:25:35Z</time>
      </trkpt>
      <trkpt lat="48.26363" lon="-0.38813">
        <ele>210</ele>
        <time>2014-09-09T07:25:38Z</time>
      </trkpt>
      <trkpt lat="48.26378" lon="-0.38865">
        <ele>210</ele>
        <time>2014-09-09T07:25:44Z</time>
      </trkpt>
      <trkpt lat="48.26393" lon="-0.38917">
        <ele>209</ele>
        <time>2014-09-09T07:25:50Z</time>
      </trkpt>
      <trkpt lat="48.264" lon="-0.38941">
        <ele>209</ele>
        <time>2014-09-09T07:25:53Z</time>
      </trkpt>
      <trkpt lat="48.26415" lon="-0.38991">
        <ele>209</ele>
        <time>2014-09-09T07:25:59Z</time>
      </trkpt>
      <trkpt lat="48.2643" lon="-0.39041">
        <ele>208</ele>
        <time>2014-09-09T07:26:05Z</time>
      </trkpt>
      <trkpt lat="48.26444" lon="-0.39088">
        <ele>206</ele>
        <time>2014-09-09T07:26:10Z</time>
      </trkpt>
      <trkpt lat="48.26455" lon="-0.39124">
        <ele>206</ele>
        <time>2014-09-09T07:26:16Z</time>
      </trkpt>
      <trkpt lat="48.26478" lon="-0.39142">
        <ele>208</ele>
        <time>2014-09-09T07:26:22Z</time>
      </trkpt>
      <trkpt lat="48.26502" lon="-0.3914">
        <ele>210</ele>
        <time>2014-09-09T07:26:27Z</time>
      </trkpt>
      <trkpt lat="48.26527" lon="-0.39137">
        <ele>209</ele>
        <time>2014-09-09T07:26:32Z</time>
      </trkpt>
      <trkpt lat="48.26542" lon="-0.39135">
        <ele>208</ele>
        <time>2014-09-09T07:26:34Z</time>
      </trkpt>
      <trkpt lat="48.26558" lon="-0.39135">
        <ele>208</ele>
        <time>2014-09-09T07:26:37Z</time>
      </trkpt>
      <trkpt lat="48.26575" lon="-0.39134">
        <ele>208</ele>
        <time>2014-09-09T07:26:40Z</time>
      </trkpt>
      <trkpt lat="48.266" lon="-0.39133">
        <ele>207</ele>
        <time>2014-09-09T07:26:45Z</time>
      </trkpt>
      <trkpt lat="48.26617" lon="-0.39131">
        <ele>211</ele>
        <time>2014-09-09T07:26:49Z</time>
      </trkpt>
      <trkpt lat="48.26648" lon="-0.39129">
        <ele>211</ele>
        <time>2014-09-09T07:26:54Z</time>
      </trkpt>
      <trkpt lat="48.26675" lon="-0.39128">
        <ele>215</ele>
        <time>2014-09-09T07:27:00Z</time>
      </trkpt>
      <trkpt lat="48.26705" lon="-0.39127">
        <ele>212</ele>
        <time>2014-09-09T07:27:06Z</time>
      </trkpt>
      <trkpt lat="48.26734" lon="-0.39124">
        <ele>212</ele>
        <time>2014-09-09T07:27:12Z</time>
      </trkpt>
      <trkpt lat="48.26764" lon="-0.39121">
        <ele>211</ele>
        <time>2014-09-09T07:27:18Z</time>
      </trkpt>
      <trkpt lat="48.26795" lon="-0.39119">
        <ele>212</ele>
        <time>2014-09-09T07:27:24Z</time>
      </trkpt>
      <trkpt lat="48.26826" lon="-0.39116">
        <ele>213</ele>
        <time>2014-09-09T07:27:30Z</time>
      </trkpt>
      <trkpt lat="48.26856" lon="-0.39115">
        <ele>214</ele>
        <time>2014-09-09T07:27:36Z</time>
      </trkpt>
      <trkpt lat="48.26884" lon="-0.39112">
        <ele>215</ele>
        <time>2014-09-09T07:27:42Z</time>
      </trkpt>
      <trkpt lat="48.26906" lon="-0.39115">
        <ele>215</ele>
        <time>2014-09-09T07:27:47Z</time>
      </trkpt>
      <trkpt lat="48.26917" lon="-0.3912">
        <ele>214</ele>
        <time>2014-09-09T07:27:50Z</time>
      </trkpt>
      <trkpt lat="48.26929" lon="-0.39134">
        <ele>214</ele>
        <time>2014-09-09T07:27:54Z</time>
      </trkpt>
      <trkpt lat="48.26946" lon="-0.39164">
        <ele>215</ele>
        <time>2014-09-09T07:28:01Z</time>
      </trkpt>
      <trkpt lat="48.26962" lon="-0.39196">
        <ele>216</ele>
        <time>2014-09-09T07:28:07Z</time>
      </trkpt>
      <trkpt lat="48.26981" lon="-0.39232">
        <ele>216</ele>
        <time>2014-09-09T07:28:13Z</time>
      </trkpt>
      <trkpt lat="48.26993" lon="-0.39251">
        <ele>214</ele>
        <time>2014-09-09T07:28:16Z</time>
      </trkpt>
      <trkpt lat="48.27006" lon="-0.39269">
        <ele>213</ele>
        <time>2014-09-09T07:28:19Z</time>
      </trkpt>
      <trkpt lat="48.2702" lon="-0.39288">
        <ele>212</ele>
        <time>2014-09-09T07:28:22Z</time>
      </trkpt>
      <trkpt lat="48.27046" lon="-0.39317">
        <ele>212</ele>
        <time>2014-09-09T07:28:27Z</time>
      </trkpt>
      <trkpt lat="48.2707" lon="-0.39345">
        <ele>211</ele>
        <time>2014-09-09T07:28:33Z</time>
      </trkpt>
      <trkpt lat="48.27114" lon="-0.39397">
        <ele>209</ele>
        <time>2014-09-09T07:28:41Z</time>
      </trkpt>
      <trkpt lat="48.27143" lon="-0.39432">
        <ele>207</ele>
        <time>2014-09-09T07:28:47Z</time>
      </trkpt>
      <trkpt lat="48.27168" lon="-0.39462">
        <ele>208</ele>
        <time>2014-09-09T07:28:52Z</time>
      </trkpt>
      <trkpt lat="48.27182" lon="-0.39476">
        <ele>208</ele>
        <time>2014-09-09T07:28:55Z</time>
      </trkpt>
      <trkpt lat="48.27205" lon="-0.39493">
        <ele>207</ele>
        <time>2014-09-09T07:29:00Z</time>
      </trkpt>
      <trkpt lat="48.27231" lon="-0.39508">
        <ele>211</ele>
        <time>2014-09-09T07:29:06Z</time>
      </trkpt>
      <trkpt lat="48.27251" lon="-0.39518">
        <ele>211</ele>
        <time>2014-09-09T07:29:12Z</time>
      </trkpt>
      <trkpt lat="48.27282" lon="-0.39539">
        <ele>212</ele>
        <time>2014-09-09T07:29:20Z</time>
      </trkpt>
      <trkpt lat="48.27298" lon="-0.39547">
        <ele>212</ele>
        <time>2014-09-09T07:29:22Z</time>
      </trkpt>
      <trkpt lat="48.27314" lon="-0.39557">
        <ele>214</ele>
        <time>2014-09-09T07:29:26Z</time>
      </trkpt>
      <trkpt lat="48.2734" lon="-0.39573">
        <ele>208</ele>
        <time>2014-09-09T07:29:31Z</time>
      </trkpt>
      <trkpt lat="48.27368" lon="-0.39591">
        <ele>210</ele>
        <time>2014-09-09T07:29:37Z</time>
      </trkpt>
      <trkpt lat="48.27393" lon="-0.39607">
        <ele>208</ele>
        <time>2014-09-09T07:29:43Z</time>
      </trkpt>
      <trkpt lat="48.27405" lon="-0.39613">
        <ele>209</ele>
        <time>2014-09-09T07:29:45Z</time>
      </trkpt>
      <trkpt lat="48.27431" lon="-0.39627">
        <ele>206</ele>
        <time>2014-09-09T07:29:51Z</time>
      </trkpt>
      <trkpt lat="48.27444" lon="-0.39636">
        <ele>207</ele>
        <time>2014-09-09T07:29:54Z</time>
      </trkpt>
      <trkpt lat="48.27458" lon="-0.39644">
        <ele>207</ele>
        <time>2014-09-09T07:29:57Z</time>
      </trkpt>
      <trkpt lat="48.27472" lon="-0.39653">
        <ele>207</ele>
        <time>2014-09-09T07:30:00Z</time>
      </trkpt>
      <trkpt lat="48.27486" lon="-0.39661">
        <ele>208</ele>
        <time>2014-09-09T07:30:03Z</time>
      </trkpt>
      <trkpt lat="48.27499" lon="-0.3967">
        <ele>210</ele>
        <time>2014-09-09T07:30:06Z</time>
      </trkpt>
      <trkpt lat="48.2752" lon="-0.39686">
        <ele>208</ele>
        <time>2014-09-09T07:30:11Z</time>
      </trkpt>
      <trkpt lat="48.27533" lon="-0.39696">
        <ele>207</ele>
        <time>2014-09-09T07:30:14Z</time>
      </trkpt>
      <trkpt lat="48.27545" lon="-0.39707">
        <ele>207</ele>
        <time>2014-09-09T07:30:17Z</time>
      </trkpt>
      <trkpt lat="48.27557" lon="-0.39719">
        <ele>208</ele>
        <time>2014-09-09T07:30:20Z</time>
      </trkpt>
      <trkpt lat="48.2757" lon="-0.39731">
        <ele>208</ele>
        <time>2014-09-09T07:30:23Z</time>
      </trkpt>
      <trkpt lat="48.27594" lon="-0.39754">
        <ele>208</ele>
        <time>2014-09-09T07:30:29Z</time>
      </trkpt>
      <trkpt lat="48.27606" lon="-0.39766">
        <ele>209</ele>
        <time>2014-09-09T07:30:32Z</time>
      </trkpt>
      <trkpt lat="48.27618" lon="-0.39779">
        <ele>209</ele>
        <time>2014-09-09T07:30:35Z</time>
      </trkpt>
      <trkpt lat="48.2763" lon="-0.39792">
        <ele>209</ele>
        <time>2014-09-09T07:30:38Z</time>
      </trkpt>
      <trkpt lat="48.27641" lon="-0.39805">
        <ele>208</ele>
        <time>2014-09-09T07:30:41Z</time>
      </trkpt>
      <trkpt lat="48.27659" lon="-0.3983">
        <ele>208</ele>
        <time>2014-09-09T07:30:46Z</time>
      </trkpt>
      <trkpt lat="48.27678" lon="-0.39862">
        <ele>208</ele>
        <time>2014-09-09T07:30:52Z</time>
      </trkpt>
      <trkpt lat="48.27687" lon="-0.39878">
        <ele>208</ele>
        <time>2014-09-09T07:30:55Z</time>
      </trkpt>
      <trkpt lat="48.27694" lon="-0.39895">
        <ele>207</ele>
        <time>2014-09-09T07:30:58Z</time>
      </trkpt>
      <trkpt lat="48.27702" lon="-0.39913">
        <ele>208</ele>
        <time>2014-09-09T07:31:01Z</time>
      </trkpt>
      <trkpt lat="48.27709" lon="-0.39932">
        <ele>208</ele>
        <time>2014-09-09T07:31:04Z</time>
      </trkpt>
      <trkpt lat="48.27719" lon="-0.39963">
        <ele>209</ele>
        <time>2014-09-09T07:31:09Z</time>
      </trkpt>
      <trkpt lat="48.27728" lon="-0.39996">
        <ele>208</ele>
        <time>2014-09-09T07:31:14Z</time>
      </trkpt>
      <trkpt lat="48.27736" lon="-0.40033">
        <ele>208</ele>
        <time>2014-09-09T07:31:20Z</time>
      </trkpt>
      <trkpt lat="48.27738" lon="-0.40049">
        <ele>210</ele>
        <time>2014-09-09T07:31:23Z</time>
      </trkpt>
      <trkpt lat="48.27744" lon="-0.40083">
        <ele>210</ele>
        <time>2014-09-09T07:31:29Z</time>
      </trkpt>
      <trkpt lat="48.2775" lon="-0.40117">
        <ele>212</ele>
        <time>2014-09-09T07:31:35Z</time>
      </trkpt>
      <trkpt lat="48.27754" lon="-0.40133">
        <ele>210</ele>
        <time>2014-09-09T07:31:38Z</time>
      </trkpt>
      <trkpt lat="48.27763" lon="-0.40164">
        <ele>211</ele>
        <time>2014-09-09T07:31:44Z</time>
      </trkpt>
      <trkpt lat="48.27769" lon="-0.4018">
        <ele>209</ele>
        <time>2014-09-09T07:31:47Z</time>
      </trkpt>
      <trkpt lat="48.27778" lon="-0.40199">
        <ele>211</ele>
        <time>2014-09-09T07:31:51Z</time>
      </trkpt>
      <trkpt lat="48.27795" lon="-0.40232">
        <ele>212</ele>
        <time>2014-09-09T07:31:58Z</time>
      </trkpt>
      <trkpt lat="48.27803" lon="-0.40245">
        <ele>213</ele>
        <time>2014-09-09T07:32:01Z</time>
      </trkpt>
      <trkpt lat="48.27812" lon="-0.40257">
        <ele>212</ele>
        <time>2014-09-09T07:32:04Z</time>
      </trkpt>
      <trkpt lat="48.27835" lon="-0.40284">
        <ele>215</ele>
        <time>2014-09-09T07:32:11Z</time>
      </trkpt>
      <trkpt lat="48.27845" lon="-0.40294">
        <ele>213</ele>
        <time>2014-09-09T07:32:14Z</time>
      </trkpt>
      <trkpt lat="48.2787" lon="-0.40311">
        <ele>214</ele>
        <time>2014-09-09T07:32:21Z</time>
      </trkpt>
      <trkpt lat="48.27881" lon="-0.40317">
        <ele>216</ele>
        <time>2014-09-09T07:32:24Z</time>
      </trkpt>
      <trkpt lat="48.27903" lon="-0.40327">
        <ele>218</ele>
        <time>2014-09-09T07:32:30Z</time>
      </trkpt>
      <trkpt lat="48.27916" lon="-0.40333">
        <ele>217</ele>
        <time>2014-09-09T07:32:34Z</time>
      </trkpt>
      <trkpt lat="48.27928" lon="-0.40339">
        <ele>217</ele>
        <time>2014-09-09T07:32:36Z</time>
      </trkpt>
      <trkpt lat="48.2794" lon="-0.40345">
        <ele>216</ele>
        <time>2014-09-09T07:32:39Z</time>
      </trkpt>
      <trkpt lat="48.27953" lon="-0.40351">
        <ele>214</ele>
        <time>2014-09-09T07:32:42Z</time>
      </trkpt>
      <trkpt lat="48.27975" lon="-0.40362">
        <ele>216</ele>
        <time>2014-09-09T07:32:48Z</time>
      </trkpt>
      <trkpt lat="48.27987" lon="-0.40367">
        <ele>215</ele>
        <time>2014-09-09T07:32:51Z</time>
      </trkpt>
      <trkpt lat="48.27998" lon="-0.40373">
        <ele>217</ele>
        <time>2014-09-09T07:32:54Z</time>
      </trkpt>
      <trkpt lat="48.28021" lon="-0.40382">
        <ele>218</ele>
        <time>2014-09-09T07:33:00Z</time>
      </trkpt>
      <trkpt lat="48.28044" lon="-0.40394">
        <ele>219</ele>
        <time>2014-09-09T07:33:06Z</time>
      </trkpt>
      <trkpt lat="48.28056" lon="-0.404">
        <ele>218</ele>
        <time>2014-09-09T07:33:09Z</time>
      </trkpt>
      <trkpt lat="48.28067" lon="-0.40406">
        <ele>219</ele>
        <time>2014-09-09T07:33:12Z</time>
      </trkpt>
      <trkpt lat="48.2809" lon="-0.40417">
        <ele>218</ele>
        <time>2014-09-09T07:33:18Z</time>
      </trkpt>
      <trkpt lat="48.28102" lon="-0.40422">
        <ele>218</ele>
        <time>2014-09-09T07:33:21Z</time>
      </trkpt>
      <trkpt lat="48.28126" lon="-0.40433">
        <ele>217</ele>
        <time>2014-09-09T07:33:27Z</time>
      </trkpt>
      <trkpt lat="48.28138" lon="-0.40439">
        <ele>217</ele>
        <time>2014-09-09T07:33:30Z</time>
      </trkpt>
      <trkpt lat="48.28162" lon="-0.40451">
        <ele>219</ele>
        <time>2014-09-09T07:33:36Z</time>
      </trkpt>
      <trkpt lat="48.28174" lon="-0.40457">
        <ele>219</ele>
        <time>2014-09-09T07:33:39Z</time>
      </trkpt>
      <trkpt lat="48.28193" lon="-0.40466">
        <ele>217</ele>
        <time>2014-09-09T07:33:44Z</time>
      </trkpt>
      <trkpt lat="48.28208" lon="-0.40473">
        <ele>216</ele>
        <time>2014-09-09T07:33:48Z</time>
      </trkpt>
      <trkpt lat="48.28221" lon="-0.40479">
        <ele>216</ele>
        <time>2014-09-09T07:33:51Z</time>
      </trkpt>
      <trkpt lat="48.28233" lon="-0.40485">
        <ele>216</ele>
        <time>2014-09-09T07:33:54Z</time>
      </trkpt>
      <trkpt lat="48.28247" lon="-0.40492">
        <ele>216</ele>
        <time>2014-09-09T07:33:57Z</time>
      </trkpt>
      <trkpt lat="48.2828" lon="-0.40508">
        <ele>216</ele>
        <time>2014-09-09T07:34:04Z</time>
      </trkpt>
      <trkpt lat="48.28304" lon="-0.4052">
        <ele>217</ele>
        <time>2014-09-09T07:34:09Z</time>
      </trkpt>
      <trkpt lat="48.28319" lon="-0.40527">
        <ele>218</ele>
        <time>2014-09-09T07:34:12Z</time>
      </trkpt>
      <trkpt lat="48.28342" lon="-0.40533">
        <ele>214</ele>
        <time>2014-09-09T07:34:17Z</time>
      </trkpt>
      <trkpt lat="48.2837" lon="-0.40541">
        <ele>215</ele>
        <time>2014-09-09T07:34:23Z</time>
      </trkpt>
      <trkpt lat="48.28384" lon="-0.40543">
        <ele>215</ele>
        <time>2014-09-09T07:34:26Z</time>
      </trkpt>
      <trkpt lat="48.28398" lon="-0.40545">
        <ele>214</ele>
        <time>2014-09-09T07:34:29Z</time>
      </trkpt>
      <trkpt lat="48.28424" lon="-0.40548">
        <ele>213</ele>
        <time>2014-09-09T07:34:35Z</time>
      </trkpt>
      <trkpt lat="48.28453" lon="-0.40551">
        <ele>213</ele>
        <time>2014-09-09T07:34:41Z</time>
      </trkpt>
      <trkpt lat="48.28479" lon="-0.40553">
        <ele>212</ele>
        <time>2014-09-09T07:34:46Z</time>
      </trkpt>
      <trkpt lat="48.28508" lon="-0.40555">
        <ele>212</ele>
        <time>2014-09-09T07:34:52Z</time>
      </trkpt>
      <trkpt lat="48.28537" lon="-0.40557">
        <ele>212</ele>
        <time>2014-09-09T07:34:58Z</time>
      </trkpt>
      <trkpt lat="48.28562" lon="-0.4056">
        <ele>212</ele>
        <time>2014-09-09T07:35:03Z</time>
      </trkpt>
      <trkpt lat="48.28593" lon="-0.40562">
        <ele>214</ele>
        <time>2014-09-09T07:35:09Z</time>
      </trkpt>
      <trkpt lat="48.28626" lon="-0.40565">
        <ele>209</ele>
        <time>2014-09-09T07:35:15Z</time>
      </trkpt>
      <trkpt lat="48.28644" lon="-0.40567">
        <ele>207</ele>
        <time>2014-09-09T07:35:18Z</time>
      </trkpt>
      <trkpt lat="48.2867" lon="-0.4057">
        <ele>207</ele>
        <time>2014-09-09T07:35:23Z</time>
      </trkpt>
      <trkpt lat="48.28685" lon="-0.40572">
        <ele>207</ele>
        <time>2014-09-09T07:35:26Z</time>
      </trkpt>
      <trkpt lat="48.28699" lon="-0.40575">
        <ele>208</ele>
        <time>2014-09-09T07:35:29Z</time>
      </trkpt>
      <trkpt lat="48.28714" lon="-0.40577">
        <ele>208</ele>
        <time>2014-09-09T07:35:32Z</time>
      </trkpt>
      <trkpt lat="48.28739" lon="-0.40582">
        <ele>209</ele>
        <time>2014-09-09T07:35:37Z</time>
      </trkpt>
      <trkpt lat="48.28755" lon="-0.40585">
        <ele>208</ele>
        <time>2014-09-09T07:35:40Z</time>
      </trkpt>
      <trkpt lat="48.28776" lon="-0.40589">
        <ele>208</ele>
        <time>2014-09-09T07:35:45Z</time>
      </trkpt>
      <trkpt lat="48.28808" lon="-0.40596">
        <ele>208</ele>
        <time>2014-09-09T07:35:52Z</time>
      </trkpt>
      <trkpt lat="48.28825" lon="-0.40599">
        <ele>208</ele>
        <time>2014-09-09T07:35:53Z</time>
      </trkpt>
      <trkpt lat="48.28841" lon="-0.40602">
        <ele>208</ele>
        <time>2014-09-09T07:35:56Z</time>
      </trkpt>
      <trkpt lat="48.28858" lon="-0.40605">
        <ele>207</ele>
        <time>2014-09-09T07:35:59Z</time>
      </trkpt>
      <trkpt lat="48.28874" lon="-0.40608">
        <ele>207</ele>
        <time>2014-09-09T07:36:02Z</time>
      </trkpt>
      <trkpt lat="48.28906" lon="-0.40615">
        <ele>208</ele>
        <time>2014-09-09T07:36:08Z</time>
      </trkpt>
      <trkpt lat="48.28923" lon="-0.40618">
        <ele>208</ele>
        <time>2014-09-09T07:36:11Z</time>
      </trkpt>
      <trkpt lat="48.28939" lon="-0.40621">
        <ele>208</ele>
        <time>2014-09-09T07:36:14Z</time>
      </trkpt>
      <trkpt lat="48.28971" lon="-0.40627">
        <ele>207</ele>
        <time>2014-09-09T07:36:20Z</time>
      </trkpt>
      <trkpt lat="48.29004" lon="-0.40634">
        <ele>207</ele>
        <time>2014-09-09T07:36:26Z</time>
      </trkpt>
      <trkpt lat="48.29021" lon="-0.40637">
        <ele>207</ele>
        <time>2014-09-09T07:36:29Z</time>
      </trkpt>
      <trkpt lat="48.29037" lon="-0.4064">
        <ele>206</ele>
        <time>2014-09-09T07:36:32Z</time>
      </trkpt>
      <trkpt lat="48.29064" lon="-0.40645">
        <ele>206</ele>
        <time>2014-09-09T07:36:37Z</time>
      </trkpt>
      <trkpt lat="48.2908" lon="-0.40648">
        <ele>206</ele>
        <time>2014-09-09T07:36:40Z</time>
      </trkpt>
      <trkpt lat="48.29096" lon="-0.40651">
        <ele>206</ele>
        <time>2014-09-09T07:36:43Z</time>
      </trkpt>
      <trkpt lat="48.29128" lon="-0.40657">
        <ele>206</ele>
        <time>2014-09-09T07:36:49Z</time>
      </trkpt>
      <trkpt lat="48.2916" lon="-0.40663">
        <ele>204</ele>
        <time>2014-09-09T07:36:55Z</time>
      </trkpt>
      <trkpt lat="48.29188" lon="-0.40668">
        <ele>205</ele>
        <time>2014-09-09T07:37:00Z</time>
      </trkpt>
      <trkpt lat="48.29222" lon="-0.40674">
        <ele>205</ele>
        <time>2014-09-09T07:37:06Z</time>
      </trkpt>
      <trkpt lat="48.29255" lon="-0.4068">
        <ele>204</ele>
        <time>2014-09-09T07:37:12Z</time>
      </trkpt>
      <trkpt lat="48.29272" lon="-0.40684">
        <ele>202</ele>
        <time>2014-09-09T07:37:15Z</time>
      </trkpt>
      <trkpt lat="48.29304" lon="-0.40692">
        <ele>202</ele>
        <time>2014-09-09T07:37:21Z</time>
      </trkpt>
      <trkpt lat="48.2932" lon="-0.40698">
        <ele>202</ele>
        <time>2014-09-09T07:37:24Z</time>
      </trkpt>
      <trkpt lat="48.29335" lon="-0.40705">
        <ele>203</ele>
        <time>2014-09-09T07:37:27Z</time>
      </trkpt>
      <trkpt lat="48.29349" lon="-0.40712">
        <ele>202</ele>
        <time>2014-09-09T07:37:30Z</time>
      </trkpt>
      <trkpt lat="48.29371" lon="-0.40727">
        <ele>203</ele>
        <time>2014-09-09T07:37:35Z</time>
      </trkpt>
      <trkpt lat="48.29385" lon="-0.40737">
        <ele>201</ele>
        <time>2014-09-09T07:37:38Z</time>
      </trkpt>
      <trkpt lat="48.29398" lon="-0.40749">
        <ele>201</ele>
        <time>2014-09-09T07:37:41Z</time>
      </trkpt>
      <trkpt lat="48.2942" lon="-0.4077">
        <ele>201</ele>
        <time>2014-09-09T07:37:46Z</time>
      </trkpt>
      <trkpt lat="48.29434" lon="-0.40783">
        <ele>201</ele>
        <time>2014-09-09T07:37:49Z</time>
      </trkpt>
      <trkpt lat="48.29447" lon="-0.40797">
        <ele>201</ele>
        <time>2014-09-09T07:37:52Z</time>
      </trkpt>
      <trkpt lat="48.29472" lon="-0.40822">
        <ele>203</ele>
        <time>2014-09-09T07:37:58Z</time>
      </trkpt>
      <trkpt lat="48.29499" lon="-0.40844">
        <ele>203</ele>
        <time>2014-09-09T07:38:04Z</time>
      </trkpt>
      <trkpt lat="48.29528" lon="-0.40862">
        <ele>204</ele>
        <time>2014-09-09T07:38:10Z</time>
      </trkpt>
      <trkpt lat="48.29557" lon="-0.40874">
        <ele>206</ele>
        <time>2014-09-09T07:38:16Z</time>
      </trkpt>
      <trkpt lat="48.29573" lon="-0.40879">
        <ele>203</ele>
        <time>2014-09-09T07:38:19Z</time>
      </trkpt>
      <trkpt lat="48.29606" lon="-0.40884">
        <ele>205</ele>
        <time>2014-09-09T07:38:25Z</time>
      </trkpt>
      <trkpt lat="48.29633" lon="-0.40884">
        <ele>204</ele>
        <time>2014-09-09T07:38:30Z</time>
      </trkpt>
      <trkpt lat="48.29649" lon="-0.40884">
        <ele>204</ele>
        <time>2014-09-09T07:38:33Z</time>
      </trkpt>
      <trkpt lat="48.29664" lon="-0.40884">
        <ele>204</ele>
        <time>2014-09-09T07:38:37Z</time>
      </trkpt>
      <trkpt lat="48.29706" lon="-0.40884">
        <ele>205</ele>
        <time>2014-09-09T07:38:44Z</time>
      </trkpt>
      <trkpt lat="48.29738" lon="-0.40885">
        <ele>205</ele>
        <time>2014-09-09T07:38:50Z</time>
      </trkpt>
      <trkpt lat="48.29753" lon="-0.40885">
        <ele>205</ele>
        <time>2014-09-09T07:38:53Z</time>
      </trkpt>
      <trkpt lat="48.29767" lon="-0.40886">
        <ele>205</ele>
        <time>2014-09-09T07:38:56Z</time>
      </trkpt>
      <trkpt lat="48.2979" lon="-0.40887">
        <ele>205</ele>
        <time>2014-09-09T07:39:01Z</time>
      </trkpt>
      <trkpt lat="48.29803" lon="-0.40887">
        <ele>205</ele>
        <time>2014-09-09T07:39:04Z</time>
      </trkpt>
      <trkpt lat="48.29815" lon="-0.40888">
        <ele>206</ele>
        <time>2014-09-09T07:39:07Z</time>
      </trkpt>
      <trkpt lat="48.29828" lon="-0.40887">
        <ele>205</ele>
        <time>2014-09-09T07:39:10Z</time>
      </trkpt>
      <trkpt lat="48.29853" lon="-0.40888">
        <ele>207</ele>
        <time>2014-09-09T07:39:16Z</time>
      </trkpt>
      <trkpt lat="48.29873" lon="-0.40889">
        <ele>207</ele>
        <time>2014-09-09T07:39:21Z</time>
      </trkpt>
      <trkpt lat="48.29898" lon="-0.4089">
        <ele>208</ele>
        <time>2014-09-09T07:39:27Z</time>
      </trkpt>
      <trkpt lat="48.29923" lon="-0.40889">
        <ele>208</ele>
        <time>2014-09-09T07:39:33Z</time>
      </trkpt>
      <trkpt lat="48.29944" lon="-0.40906">
        <ele>210</ele>
        <time>2014-09-09T07:39:39Z</time>
      </trkpt>
      <trkpt lat="48.29952" lon="-0.40915">
        <ele>211</ele>
        <time>2014-09-09T07:39:42Z</time>
      </trkpt>
      <trkpt lat="48.29974" lon="-0.40932">
        <ele>211</ele>
        <time>2014-09-09T07:39:49Z</time>
      </trkpt>
      <trkpt lat="48.29992" lon="-0.40942">
        <ele>212</ele>
        <time>2014-09-09T07:39:54Z</time>
      </trkpt>
      <trkpt lat="48.30013" lon="-0.40953">
        <ele>211</ele>
        <time>2014-09-09T07:40:00Z</time>
      </trkpt>
      <trkpt lat="48.3004" lon="-0.40972">
        <ele>207</ele>
        <time>2014-09-09T07:40:07Z</time>
      </trkpt>
      <trkpt lat="48.30059" lon="-0.40988">
        <ele>208</ele>
        <time>2014-09-09T07:40:12Z</time>
      </trkpt>
      <trkpt lat="48.3008" lon="-0.41006">
        <ele>209</ele>
        <time>2014-09-09T07:40:18Z</time>
      </trkpt>
      <trkpt lat="48.30103" lon="-0.41024">
        <ele>209</ele>
        <time>2014-09-09T07:40:25Z</time>
      </trkpt>
      <trkpt lat="48.30112" lon="-0.41031">
        <ele>210</ele>
        <time>2014-09-09T07:40:28Z</time>
      </trkpt>
      <trkpt lat="48.30122" lon="-0.41038">
        <ele>210</ele>
        <time>2014-09-09T07:40:31Z</time>
      </trkpt>
      <trkpt lat="48.30132" lon="-0.41044">
        <ele>211</ele>
        <time>2014-09-09T07:40:34Z</time>
      </trkpt>
      <trkpt lat="48.30142" lon="-0.41051">
        <ele>211</ele>
        <time>2014-09-09T07:40:37Z</time>
      </trkpt>
      <trkpt lat="48.30152" lon="-0.41058">
        <ele>211</ele>
        <time>2014-09-09T07:40:40Z</time>
      </trkpt>
      <trkpt lat="48.30162" lon="-0.41066">
        <ele>212</ele>
        <time>2014-09-09T07:40:43Z</time>
      </trkpt>
      <trkpt lat="48.30172" lon="-0.41074">
        <ele>212</ele>
        <time>2014-09-09T07:40:46Z</time>
      </trkpt>
      <trkpt lat="48.30183" lon="-0.41082">
        <ele>213</ele>
        <time>2014-09-09T07:40:49Z</time>
      </trkpt>
      <trkpt lat="48.30206" lon="-0.41101">
        <ele>212</ele>
        <time>2014-09-09T07:40:56Z</time>
      </trkpt>
      <trkpt lat="48.30217" lon="-0.4111">
        <ele>211</ele>
        <time>2014-09-09T07:40:59Z</time>
      </trkpt>
      <trkpt lat="48.30239" lon="-0.41136">
        <ele>210</ele>
        <time>2014-09-09T07:41:05Z</time>
      </trkpt>
      <trkpt lat="48.30262" lon="-0.41181">
        <ele>207</ele>
        <time>2014-09-09T07:41:11Z</time>
      </trkpt>
      <trkpt lat="48.3027" lon="-0.41256">
        <ele>207</ele>
        <time>2014-09-09T07:41:17Z</time>
      </trkpt>
      <trkpt lat="48.30274" lon="-0.41324">
        <ele>204</ele>
        <time>2014-09-09T07:41:23Z</time>
      </trkpt>
      <trkpt lat="48.30279" lon="-0.41354">
        <ele>204</ele>
        <time>2014-09-09T07:41:26Z</time>
      </trkpt>
      <trkpt lat="48.30286" lon="-0.41383">
        <ele>204</ele>
        <time>2014-09-09T07:41:29Z</time>
      </trkpt>
      <trkpt lat="48.30298" lon="-0.41408">
        <ele>203</ele>
        <time>2014-09-09T07:41:32Z</time>
      </trkpt>
      <trkpt lat="48.30312" lon="-0.4143">
        <ele>203</ele>
        <time>2014-09-09T07:41:35Z</time>
      </trkpt>
      <trkpt lat="48.30329" lon="-0.41483">
        <ele>203</ele>
        <time>2014-09-09T07:41:41Z</time>
      </trkpt>
      <trkpt lat="48.30333" lon="-0.41514">
        <ele>205</ele>
        <time>2014-09-09T07:41:45Z</time>
      </trkpt>
      <trkpt lat="48.30352" lon="-0.41565">
        <ele>201</ele>
        <time>2014-09-09T07:41:51Z</time>
      </trkpt>
      <trkpt lat="48.30365" lon="-0.4159">
        <ele>200</ele>
        <time>2014-09-09T07:41:53Z</time>
      </trkpt>
      <trkpt lat="48.30377" lon="-0.41615">
        <ele>199</ele>
        <time>2014-09-09T07:41:56Z</time>
      </trkpt>
      <trkpt lat="48.30399" lon="-0.41659">
        <ele>198</ele>
        <time>2014-09-09T07:42:01Z</time>
      </trkpt>
      <trkpt lat="48.30423" lon="-0.4171">
        <ele>196</ele>
        <time>2014-09-09T07:42:07Z</time>
      </trkpt>
      <trkpt lat="48.30445" lon="-0.41751">
        <ele>198</ele>
        <time>2014-09-09T07:42:12Z</time>
      </trkpt>
      <trkpt lat="48.30467" lon="-0.41791">
        <ele>195</ele>
        <time>2014-09-09T07:42:18Z</time>
      </trkpt>
      <trkpt lat="48.30486" lon="-0.41822">
        <ele>195</ele>
        <time>2014-09-09T07:42:23Z</time>
      </trkpt>
      <trkpt lat="48.30509" lon="-0.41861">
        <ele>194</ele>
        <time>2014-09-09T07:42:29Z</time>
      </trkpt>
      <trkpt lat="48.30535" lon="-0.41904">
        <ele>193</ele>
        <time>2014-09-09T07:42:35Z</time>
      </trkpt>
      <trkpt lat="48.30547" lon="-0.41927">
        <ele>192</ele>
        <time>2014-09-09T07:42:38Z</time>
      </trkpt>
      <trkpt lat="48.30561" lon="-0.4195">
        <ele>192</ele>
        <time>2014-09-09T07:42:41Z</time>
      </trkpt>
      <trkpt lat="48.30583" lon="-0.41985">
        <ele>192</ele>
        <time>2014-09-09T07:42:46Z</time>
      </trkpt>
      <trkpt lat="48.30595" lon="-0.42006">
        <ele>194</ele>
        <time>2014-09-09T07:42:49Z</time>
      </trkpt>
      <trkpt lat="48.30606" lon="-0.42024">
        <ele>195</ele>
        <time>2014-09-09T07:42:52Z</time>
      </trkpt>
      <trkpt lat="48.30616" lon="-0.4204">
        <ele>195</ele>
        <time>2014-09-09T07:42:55Z</time>
      </trkpt>
      <trkpt lat="48.30626" lon="-0.42057">
        <ele>197</ele>
        <time>2014-09-09T07:42:58Z</time>
      </trkpt>
      <trkpt lat="48.30645" lon="-0.42079">
        <ele>195</ele>
        <time>2014-09-09T07:43:03Z</time>
      </trkpt>
      <trkpt lat="48.30663" lon="-0.42086">
        <ele>195</ele>
        <time>2014-09-09T07:43:08Z</time>
      </trkpt>
      <trkpt lat="48.30679" lon="-0.4209">
        <ele>196</ele>
        <time>2014-09-09T07:43:15Z</time>
      </trkpt>
      <trkpt lat="48.30691" lon="-0.42063">
        <ele>197</ele>
        <time>2014-09-09T07:43:26Z</time>
      </trkpt>
      <trkpt lat="48.30693" lon="-0.42034">
        <ele>190</ele>
        <time>2014-09-09T07:43:33Z</time>
      </trkpt>
      <trkpt lat="48.30699" lon="-0.42006">
        <ele>195</ele>
        <time>2014-09-09T07:43:39Z</time>
      </trkpt>
      <trkpt lat="48.30704" lon="-0.41975">
        <ele>198</ele>
        <time>2014-09-09T07:43:46Z</time>
      </trkpt>
      <trkpt lat="48.30707" lon="-0.41964">
        <ele>198</ele>
        <time>2014-09-09T07:43:51Z</time>
      </trkpt>
      <trkpt lat="48.30712" lon="-0.41943">
        <ele>194</ele>
        <time>2014-09-09T07:43:54Z</time>
      </trkpt>
      <trkpt lat="48.3072" lon="-0.41921">
        <ele>200</ele>
        <time>2014-09-09T07:44:00Z</time>
      </trkpt>
      <trkpt lat="48.30729" lon="-0.41897">
        <ele>197</ele>
        <time>2014-09-09T07:44:05Z</time>
      </trkpt>
      <trkpt lat="48.30739" lon="-0.41872">
        <ele>202</ele>
        <time>2014-09-09T07:44:10Z</time>
      </trkpt>
      <trkpt lat="48.30744" lon="-0.41861">
        <ele>197</ele>
        <time>2014-09-09T07:44:13Z</time>
      </trkpt>
      <trkpt lat="48.30757" lon="-0.41836">
        <ele>199</ele>
        <time>2014-09-09T07:44:20Z</time>
      </trkpt>
      <trkpt lat="48.30774" lon="-0.41808">
        <ele>199</ele>
        <time>2014-09-09T07:44:27Z</time>
      </trkpt>
      <trkpt lat="48.30784" lon="-0.41793">
        <ele>200</ele>
        <time>2014-09-09T07:44:30Z</time>
      </trkpt>
      <trkpt lat="48.30802" lon="-0.41768">
        <ele>194</ele>
        <time>2014-09-09T07:44:38Z</time>
      </trkpt>
      <trkpt lat="48.30818" lon="-0.41748">
        <ele>197</ele>
        <time>2014-09-09T07:44:45Z</time>
      </trkpt>
      <trkpt lat="48.30831" lon="-0.41731">
        <ele>199</ele>
        <time>2014-09-09T07:44:49Z</time>
      </trkpt>
      <trkpt lat="48.3085" lon="-0.41709">
        <ele>199</ele>
        <time>2014-09-09T07:44:55Z</time>
      </trkpt>
      <trkpt lat="48.3087" lon="-0.41686">
        <ele>200</ele>
        <time>2014-09-09T07:45:02Z</time>
      </trkpt>
      <trkpt lat="48.30878" lon="-0.41676">
        <ele>202</ele>
        <time>2014-09-09T07:45:06Z</time>
      </trkpt>
      <trkpt lat="48.30887" lon="-0.41663">
        <ele>203</ele>
        <time>2014-09-09T07:45:10Z</time>
      </trkpt>
      <trkpt lat="48.30911" lon="-0.41632">
        <ele>198</ele>
        <time>2014-09-09T07:45:18Z</time>
      </trkpt>
      <trkpt lat="48.30923" lon="-0.41614">
        <ele>204</ele>
        <time>2014-09-09T07:45:23Z</time>
      </trkpt>
      <trkpt lat="48.30932" lon="-0.41602">
        <ele>201</ele>
        <time>2014-09-09T07:45:27Z</time>
      </trkpt>
      <trkpt lat="48.30942" lon="-0.4159">
        <ele>197</ele>
        <time>2014-09-09T07:45:31Z</time>
      </trkpt>
      <trkpt lat="48.30961" lon="-0.41549">
        <ele>204</ele>
        <time>2014-09-09T07:45:42Z</time>
      </trkpt>
      <trkpt lat="48.30975" lon="-0.41519">
        <ele>200</ele>
        <time>2014-09-09T07:45:48Z</time>
      </trkpt>
      <trkpt lat="48.3099" lon="-0.41492">
        <ele>208</ele>
        <time>2014-09-09T07:45:55Z</time>
      </trkpt>
      <trkpt lat="48.31002" lon="-0.41462">
        <ele>211</ele>
        <time>2014-09-09T07:46:01Z</time>
      </trkpt>
      <trkpt lat="48.31014" lon="-0.41431">
        <ele>204</ele>
        <time>2014-09-09T07:46:06Z</time>
      </trkpt>
      <trkpt lat="48.31022" lon="-0.41404">
        <ele>204</ele>
        <time>2014-09-09T07:46:12Z</time>
      </trkpt>
      <trkpt lat="48.31026" lon="-0.41388">
        <ele>203</ele>
        <time>2014-09-09T07:46:15Z</time>
      </trkpt>
      <trkpt lat="48.31034" lon="-0.41363">
        <ele>204</ele>
        <time>2014-09-09T07:46:21Z</time>
      </trkpt>
      <trkpt lat="48.31042" lon="-0.41338">
        <ele>206</ele>
        <time>2014-09-09T07:46:30Z</time>
      </trkpt>
      <trkpt lat="48.31042" lon="-0.41338">
        <ele>206</ele>
        <time>2014-09-09T07:46:35Z</time>
      </trkpt>
      <trkpt lat="48.31042" lon="-0.41338">
        <ele>157</ele>
        <time>2014-09-09T07:46:35Z</time>
      </trkpt>
      <trkpt lat="48.31042" lon="-0.41338">
        <ele>157</ele>
        <time>2014-09-09T07:47:00Z</time>
      </trkpt>
      <trkpt lat="48.31047" lon="-0.41319">
        <ele>205</ele>
        <time>2014-09-09T07:47:00Z</time>
      </trkpt>
      <trkpt lat="48.31051" lon="-0.413">
        <ele>206</ele>
        <time>2014-09-09T07:47:05Z</time>
      </trkpt>
      <trkpt lat="48.31058" lon="-0.41273">
        <ele>208</ele>
        <time>2014-09-09T07:47:14Z</time>
      </trkpt>
      <trkpt lat="48.3107" lon="-0.41222">
        <ele>204</ele>
        <time>2014-09-09T07:47:26Z</time>
      </trkpt>
      <trkpt lat="48.31079" lon="-0.41186">
        <ele>207</ele>
        <time>2014-09-09T07:47:34Z</time>
      </trkpt>
      <trkpt lat="48.31085" lon="-0.41162">
        <ele>210</ele>
        <time>2014-09-09T07:47:39Z</time>
      </trkpt>
      <trkpt lat="48.31089" lon="-0.41149">
        <ele>211</ele>
        <time>2014-09-09T07:47:42Z</time>
      </trkpt>
      <trkpt lat="48.31097" lon="-0.4112">
        <ele>209</ele>
        <time>2014-09-09T07:47:49Z</time>
      </trkpt>
      <trkpt lat="48.31108" lon="-0.4108">
        <ele>207</ele>
        <time>2014-09-09T07:47:58Z</time>
      </trkpt>
      <trkpt lat="48.31117" lon="-0.41049">
        <ele>212</ele>
        <time>2014-09-09T07:48:06Z</time>
      </trkpt>
      <trkpt lat="48.31124" lon="-0.4103">
        <ele>212</ele>
        <time>2014-09-09T07:48:11Z</time>
      </trkpt>
      <trkpt lat="48.31132" lon="-0.41008">
        <ele>210</ele>
        <time>2014-09-09T07:48:17Z</time>
      </trkpt>
      <trkpt lat="48.31142" lon="-0.40985">
        <ele>210</ele>
        <time>2014-09-09T07:48:24Z</time>
      </trkpt>
      <trkpt lat="48.3115" lon="-0.40958">
        <ele>216</ele>
        <time>2014-09-09T07:48:31Z</time>
      </trkpt>
      <trkpt lat="48.31158" lon="-0.40942">
        <ele>217</ele>
        <time>2014-09-09T07:48:36Z</time>
      </trkpt>
      <trkpt lat="48.31173" lon="-0.40916">
        <ele>215</ele>
        <time>2014-09-09T07:48:41Z</time>
      </trkpt>
      <trkpt lat="48.31187" lon="-0.40898">
        <ele>214</ele>
        <time>2014-09-09T07:48:46Z</time>
      </trkpt>
      <trkpt lat="48.31206" lon="-0.40868">
        <ele>212</ele>
        <time>2014-09-09T07:48:53Z</time>
      </trkpt>
      <trkpt lat="48.31213" lon="-0.40853">
        <ele>210</ele>
        <time>2014-09-09T07:48:58Z</time>
      </trkpt>
      <trkpt lat="48.3123" lon="-0.40827">
        <ele>210</ele>
        <time>2014-09-09T07:49:04Z</time>
      </trkpt>
      <trkpt lat="48.31242" lon="-0.40809">
        <ele>210</ele>
        <time>2014-09-09T07:49:09Z</time>
      </trkpt>
      <trkpt lat="48.3125" lon="-0.40797">
        <ele>211</ele>
        <time>2014-09-09T07:49:12Z</time>
      </trkpt>
      <trkpt lat="48.31265" lon="-0.40774">
        <ele>216</ele>
        <time>2014-09-09T07:49:20Z</time>
      </trkpt>
      <trkpt lat="48.31277" lon="-0.40747">
        <ele>216</ele>
        <time>2014-09-09T07:49:27Z</time>
      </trkpt>
      <trkpt lat="48.31296" lon="-0.40713">
        <ele>212</ele>
        <time>2014-09-09T07:49:34Z</time>
      </trkpt>
      <trkpt lat="48.31313" lon="-0.40684">
        <ele>206</ele>
        <time>2014-09-09T07:49:40Z</time>
      </trkpt>
      <trkpt lat="48.31326" lon="-0.40656">
        <ele>209</ele>
        <time>2014-09-09T07:49:45Z</time>
      </trkpt>
      <trkpt lat="48.31334" lon="-0.40641">
        <ele>211</ele>
        <time>2014-09-09T07:49:48Z</time>
      </trkpt>
      <trkpt lat="48.31349" lon="-0.40609">
        <ele>212</ele>
        <time>2014-09-09T07:49:54Z</time>
      </trkpt>
      <trkpt lat="48.31362" lon="-0.40576">
        <ele>214</ele>
        <time>2014-09-09T07:50:00Z</time>
      </trkpt>
      <trkpt lat="48.31371" lon="-0.40536">
        <ele>213</ele>
        <time>2014-09-09T07:50:08Z</time>
      </trkpt>
      <trkpt lat="48.31381" lon="-0.40494">
        <ele>210</ele>
        <time>2014-09-09T07:50:15Z</time>
      </trkpt>
      <trkpt lat="48.3139" lon="-0.40462">
        <ele>218</ele>
        <time>2014-09-09T07:50:21Z</time>
      </trkpt>
      <trkpt lat="48.31398" lon="-0.40429">
        <ele>215</ele>
        <time>2014-09-09T07:50:27Z</time>
      </trkpt>
      <trkpt lat="48.31406" lon="-0.40394">
        <ele>211</ele>
        <time>2014-09-09T07:50:33Z</time>
      </trkpt>
      <trkpt lat="48.31412" lon="-0.40375">
        <ele>210</ele>
        <time>2014-09-09T07:50:36Z</time>
      </trkpt>
      <trkpt lat="48.31416" lon="-0.40358">
        <ele>207</ele>
        <time>2014-09-09T07:50:39Z</time>
      </trkpt>
      <trkpt lat="48.31421" lon="-0.4034">
        <ele>211</ele>
        <time>2014-09-09T07:50:42Z</time>
      </trkpt>
      <trkpt lat="48.3143" lon="-0.40306">
        <ele>209</ele>
        <time>2014-09-09T07:50:48Z</time>
      </trkpt>
      <trkpt lat="48.31438" lon="-0.40279">
        <ele>209</ele>
        <time>2014-09-09T07:50:52Z</time>
      </trkpt>
      <trkpt lat="48.31447" lon="-0.40242">
        <ele>206</ele>
        <time>2014-09-09T07:50:58Z</time>
      </trkpt>
      <trkpt lat="48.31456" lon="-0.40199">
        <ele>206</ele>
        <time>2014-09-09T07:51:05Z</time>
      </trkpt>
      <trkpt lat="48.31464" lon="-0.40155">
        <ele>209</ele>
        <time>2014-09-09T07:51:13Z</time>
      </trkpt>
      <trkpt lat="48.31475" lon="-0.4011">
        <ele>210</ele>
        <time>2014-09-09T07:51:21Z</time>
      </trkpt>
      <trkpt lat="48.31485" lon="-0.40079">
        <ele>209</ele>
        <time>2014-09-09T07:51:27Z</time>
      </trkpt>
      <trkpt lat="48.31492" lon="-0.40054">
        <ele>208</ele>
        <time>2014-09-09T07:51:32Z</time>
      </trkpt>
      <trkpt lat="48.315" lon="-0.40023">
        <ele>207</ele>
        <time>2014-09-09T07:51:38Z</time>
      </trkpt>
      <trkpt lat="48.31511" lon="-0.39989">
        <ele>210</ele>
        <time>2014-09-09T07:51:45Z</time>
      </trkpt>
      <trkpt lat="48.31526" lon="-0.39952">
        <ele>208</ele>
        <time>2014-09-09T07:51:52Z</time>
      </trkpt>
      <trkpt lat="48.31537" lon="-0.39916">
        <ele>210</ele>
        <time>2014-09-09T07:51:59Z</time>
      </trkpt>
      <trkpt lat="48.3156" lon="-0.39869">
        <ele>208</ele>
        <time>2014-09-09T07:52:07Z</time>
      </trkpt>
      <trkpt lat="48.31568" lon="-0.39852">
        <ele>208</ele>
        <time>2014-09-09T07:52:11Z</time>
      </trkpt>
      <trkpt lat="48.31578" lon="-0.39829">
        <ele>209</ele>
        <time>2014-09-09T07:52:17Z</time>
      </trkpt>
      <trkpt lat="48.31593" lon="-0.39805">
        <ele>207</ele>
        <time>2014-09-09T07:52:26Z</time>
      </trkpt>
      <trkpt lat="48.31604" lon="-0.39786">
        <ele>206</ele>
        <time>2014-09-09T07:52:32Z</time>
      </trkpt>
      <trkpt lat="48.31613" lon="-0.39776">
        <ele>207</ele>
        <time>2014-09-09T07:52:37Z</time>
      </trkpt>
      <trkpt lat="48.31624" lon="-0.39753">
        <ele>210</ele>
        <time>2014-09-09T07:52:44Z</time>
      </trkpt>
      <trkpt lat="48.31636" lon="-0.3972">
        <ele>209</ele>
        <time>2014-09-09T07:52:52Z</time>
      </trkpt>
      <trkpt lat="48.31643" lon="-0.397">
        <ele>208</ele>
        <time>2014-09-09T07:52:57Z</time>
      </trkpt>
      <trkpt lat="48.3166" lon="-0.39666">
        <ele>208</ele>
        <time>2014-09-09T07:53:04Z</time>
      </trkpt>
      <trkpt lat="48.3167" lon="-0.39651">
        <ele>209</ele>
        <time>2014-09-09T07:53:08Z</time>
      </trkpt>
      <trkpt lat="48.31685" lon="-0.39623">
        <ele>211</ele>
        <time>2014-09-09T07:53:15Z</time>
      </trkpt>
      <trkpt lat="48.31705" lon="-0.39589">
        <ele>211</ele>
        <time>2014-09-09T07:53:23Z</time>
      </trkpt>
      <trkpt lat="48.31719" lon="-0.39558">
        <ele>211</ele>
        <time>2014-09-09T07:53:30Z</time>
      </trkpt>
      <trkpt lat="48.31737" lon="-0.39529">
        <ele>207</ele>
        <time>2014-09-09T07:53:37Z</time>
      </trkpt>
      <trkpt lat="48.3175" lon="-0.39501">
        <ele>207</ele>
        <time>2014-09-09T07:53:43Z</time>
      </trkpt>
      <trkpt lat="48.31768" lon="-0.39467">
        <ele>209</ele>
        <time>2014-09-09T07:53:51Z</time>
      </trkpt>
      <trkpt lat="48.3178" lon="-0.39446">
        <ele>211</ele>
        <time>2014-09-09T07:53:56Z</time>
      </trkpt>
      <trkpt lat="48.31793" lon="-0.39421">
        <ele>214</ele>
        <time>2014-09-09T07:54:02Z</time>
      </trkpt>
      <trkpt lat="48.31806" lon="-0.39399">
        <ele>212</ele>
        <time>2014-09-09T07:54:09Z</time>
      </trkpt>
      <trkpt lat="48.31824" lon="-0.3936">
        <ele>212</ele>
        <time>2014-09-09T07:54:19Z</time>
      </trkpt>
      <trkpt lat="48.31836" lon="-0.39332">
        <ele>213</ele>
        <time>2014-09-09T07:54:25Z</time>
      </trkpt>
      <trkpt lat="48.31852" lon="-0.39301">
        <ele>217</ele>
        <time>2014-09-09T07:54:33Z</time>
      </trkpt>
      <trkpt lat="48.31862" lon="-0.39277">
        <ele>221</ele>
        <time>2014-09-09T07:54:38Z</time>
      </trkpt>
      <trkpt lat="48.31869" lon="-0.39255">
        <ele>221</ele>
        <time>2014-09-09T07:54:43Z</time>
      </trkpt>
      <trkpt lat="48.31878" lon="-0.39203">
        <ele>213</ele>
        <time>2014-09-09T07:54:52Z</time>
      </trkpt>
      <trkpt lat="48.31883" lon="-0.39164">
        <ele>201</ele>
        <time>2014-09-09T07:54:59Z</time>
      </trkpt>
      <trkpt lat="48.31886" lon="-0.3913">
        <ele>200</ele>
        <time>2014-09-09T07:55:05Z</time>
      </trkpt>
      <trkpt lat="48.31887" lon="-0.39091">
        <ele>197</ele>
        <time>2014-09-09T07:55:12Z</time>
      </trkpt>
      <trkpt lat="48.31894" lon="-0.39055">
        <ele>193</ele>
        <time>2014-09-09T07:55:18Z</time>
      </trkpt>
      <trkpt lat="48.31917" lon="-0.39013">
        <ele>214</ele>
        <time>2014-09-09T07:55:24Z</time>
      </trkpt>
      <trkpt lat="48.31931" lon="-0.38972">
        <ele>214</ele>
        <time>2014-09-09T07:55:31Z</time>
      </trkpt>
      <trkpt lat="48.31935" lon="-0.38933">
        <ele>216</ele>
        <time>2014-09-09T07:55:39Z</time>
      </trkpt>
      <trkpt lat="48.31937" lon="-0.38898">
        <ele>213</ele>
        <time>2014-09-09T07:55:45Z</time>
      </trkpt>
      <trkpt lat="48.31937" lon="-0.38864">
        <ele>210</ele>
        <time>2014-09-09T07:55:51Z</time>
      </trkpt>
      <trkpt lat="48.31938" lon="-0.38833">
        <ele>211</ele>
        <time>2014-09-09T07:55:56Z</time>
      </trkpt>
      <trkpt lat="48.31938" lon="-0.38809">
        <ele>216</ele>
        <time>2014-09-09T07:56:00Z</time>
      </trkpt>
      <trkpt lat="48.31939" lon="-0.38775">
        <ele>216</ele>
        <time>2014-09-09T07:56:06Z</time>
      </trkpt>
      <trkpt lat="48.31943" lon="-0.38743">
        <ele>216</ele>
        <time>2014-09-09T07:56:11Z</time>
      </trkpt>
      <trkpt lat="48.31948" lon="-0.38705">
        <ele>214</ele>
        <time>2014-09-09T07:56:17Z</time>
      </trkpt>
      <trkpt lat="48.31956" lon="-0.38668">
        <ele>215</ele>
        <time>2014-09-09T07:56:24Z</time>
      </trkpt>
      <trkpt lat="48.31962" lon="-0.38637">
        <ele>214</ele>
        <time>2014-09-09T07:56:30Z</time>
      </trkpt>
      <trkpt lat="48.31971" lon="-0.38602">
        <ele>215</ele>
        <time>2014-09-09T07:56:37Z</time>
      </trkpt>
      <trkpt lat="48.31988" lon="-0.38567">
        <ele>218</ele>
        <time>2014-09-09T07:56:45Z</time>
      </trkpt>
      <trkpt lat="48.32006" lon="-0.38533">
        <ele>220</ele>
        <time>2014-09-09T07:56:52Z</time>
      </trkpt>
      <trkpt lat="48.32024" lon="-0.38494">
        <ele>222</ele>
        <time>2014-09-09T07:57:01Z</time>
      </trkpt>
      <trkpt lat="48.32044" lon="-0.38465">
        <ele>221</ele>
        <time>2014-09-09T07:57:08Z</time>
      </trkpt>
      <trkpt lat="48.32071" lon="-0.38429">
        <ele>221</ele>
        <time>2014-09-09T07:57:18Z</time>
      </trkpt>
      <trkpt lat="48.32084" lon="-0.38412">
        <ele>222</ele>
        <time>2014-09-09T07:57:23Z</time>
      </trkpt>
      <trkpt lat="48.32099" lon="-0.38395">
        <ele>223</ele>
        <time>2014-09-09T07:57:28Z</time>
      </trkpt>
      <trkpt lat="48.32113" lon="-0.3838">
        <ele>227</ele>
        <time>2014-09-09T07:57:33Z</time>
      </trkpt>
      <trkpt lat="48.32133" lon="-0.38353">
        <ele>226</ele>
        <time>2014-09-09T07:57:39Z</time>
      </trkpt>
      <trkpt lat="48.32151" lon="-0.38331">
        <ele>217</ele>
        <time>2014-09-09T07:57:44Z</time>
      </trkpt>
      <trkpt lat="48.32169" lon="-0.38311">
        <ele>218</ele>
        <time>2014-09-09T07:57:51Z</time>
      </trkpt>
      <trkpt lat="48.32183" lon="-0.38292">
        <ele>216</ele>
        <time>2014-09-09T07:57:58Z</time>
      </trkpt>
      <trkpt lat="48.322" lon="-0.38265">
        <ele>210</ele>
        <time>2014-09-09T07:58:05Z</time>
      </trkpt>
      <trkpt lat="48.32212" lon="-0.38244">
        <ele>205</ele>
        <time>2014-09-09T07:58:12Z</time>
      </trkpt>
      <trkpt lat="48.3224" lon="-0.38162">
        <ele>203</ele>
        <time>2014-09-09T07:58:28Z</time>
      </trkpt>
      <trkpt lat="48.32246" lon="-0.38128">
        <ele>193</ele>
        <time>2014-09-09T07:58:34Z</time>
      </trkpt>
      <trkpt lat="48.32251" lon="-0.38101">
        <ele>190</ele>
        <time>2014-09-09T07:58:39Z</time>
      </trkpt>
      <trkpt lat="48.32259" lon="-0.38069">
        <ele>189</ele>
        <time>2014-09-09T07:58:44Z</time>
      </trkpt>
      <trkpt lat="48.32268" lon="-0.38031">
        <ele>183</ele>
        <time>2014-09-09T07:58:50Z</time>
      </trkpt>
      <trkpt lat="48.32277" lon="-0.38007">
        <ele>186</ele>
        <time>2014-09-09T07:58:54Z</time>
      </trkpt>
      <trkpt lat="48.32287" lon="-0.37976">
        <ele>194</ele>
        <time>2014-09-09T07:58:59Z</time>
      </trkpt>
      <trkpt lat="48.32303" lon="-0.37947">
        <ele>208</ele>
        <time>2014-09-09T07:59:04Z</time>
      </trkpt>
      <trkpt lat="48.32326" lon="-0.37907">
        <ele>217</ele>
        <time>2014-09-09T07:59:10Z</time>
      </trkpt>
      <trkpt lat="48.32334" lon="-0.37886">
        <ele>224</ele>
        <time>2014-09-09T07:59:15Z</time>
      </trkpt>
      <trkpt lat="48.32351" lon="-0.37847">
        <ele>229</ele>
        <time>2014-09-09T07:59:23Z</time>
      </trkpt>
      <trkpt lat="48.32369" lon="-0.37813">
        <ele>226</ele>
        <time>2014-09-09T07:59:29Z</time>
      </trkpt>
      <trkpt lat="48.32387" lon="-0.37772">
        <ele>232</ele>
        <time>2014-09-09T07:59:37Z</time>
      </trkpt>
      <trkpt lat="48.32403" lon="-0.37747">
        <ele>237</ele>
        <time>2014-09-09T07:59:44Z</time>
      </trkpt>
      <trkpt lat="48.32413" lon="-0.37727">
        <ele>242</ele>
        <time>2014-09-09T07:59:50Z</time>
      </trkpt>
      <trkpt lat="48.32438" lon="-0.37693">
        <ele>239</ele>
        <time>2014-09-09T07:59:58Z</time>
      </trkpt>
      <trkpt lat="48.32461" lon="-0.37659">
        <ele>236</ele>
        <time>2014-09-09T08:00:05Z</time>
      </trkpt>
      <trkpt lat="48.32476" lon="-0.37639">
        <ele>236</ele>
        <time>2014-09-09T08:00:10Z</time>
      </trkpt>
      <trkpt lat="48.32493" lon="-0.37612">
        <ele>232</ele>
        <time>2014-09-09T08:00:16Z</time>
      </trkpt>
      <trkpt lat="48.32507" lon="-0.37582">
        <ele>235</ele>
        <time>2014-09-09T08:00:23Z</time>
      </trkpt>
      <trkpt lat="48.32519" lon="-0.37564">
        <ele>228</ele>
        <time>2014-09-09T08:00:29Z</time>
      </trkpt>
      <trkpt lat="48.32537" lon="-0.37522">
        <ele>226</ele>
        <time>2014-09-09T08:00:36Z</time>
      </trkpt>
      <trkpt lat="48.32551" lon="-0.37493">
        <ele>225</ele>
        <time>2014-09-09T08:00:42Z</time>
      </trkpt>
      <trkpt lat="48.32565" lon="-0.3745">
        <ele>228</ele>
        <time>2014-09-09T08:00:51Z</time>
      </trkpt>
      <trkpt lat="48.32576" lon="-0.37415">
        <ele>230</ele>
        <time>2014-09-09T08:00:56Z</time>
      </trkpt>
      <trkpt lat="48.32585" lon="-0.3739">
        <ele>224</ele>
        <time>2014-09-09T08:01:01Z</time>
      </trkpt>
      <trkpt lat="48.32596" lon="-0.37355">
        <ele>222</ele>
        <time>2014-09-09T08:01:07Z</time>
      </trkpt>
      <trkpt lat="48.32602" lon="-0.3734">
        <ele>220</ele>
        <time>2014-09-09T08:01:09Z</time>
      </trkpt>
      <trkpt lat="48.32606" lon="-0.37322">
        <ele>227</ele>
        <time>2014-09-09T08:01:12Z</time>
      </trkpt>
      <trkpt lat="48.32613" lon="-0.37293">
        <ele>227</ele>
        <time>2014-09-09T08:01:16Z</time>
      </trkpt>
      <trkpt lat="48.32619" lon="-0.37262">
        <ele>229</ele>
        <time>2014-09-09T08:01:21Z</time>
      </trkpt>
      <trkpt lat="48.32629" lon="-0.37222">
        <ele>234</ele>
        <time>2014-09-09T08:01:28Z</time>
      </trkpt>
      <trkpt lat="48.32635" lon="-0.37192">
        <ele>235</ele>
        <time>2014-09-09T08:01:33Z</time>
      </trkpt>
      <trkpt lat="48.3264" lon="-0.37163">
        <ele>237</ele>
        <time>2014-09-09T08:01:39Z</time>
      </trkpt>
      <trkpt lat="48.32647" lon="-0.37131">
        <ele>227</ele>
        <time>2014-09-09T08:01:45Z</time>
      </trkpt>
      <trkpt lat="48.32651" lon="-0.37103">
        <ele>230</ele>
        <time>2014-09-09T08:01:50Z</time>
      </trkpt>
      <trkpt lat="48.32658" lon="-0.37061">
        <ele>230</ele>
        <time>2014-09-09T08:01:58Z</time>
      </trkpt>
      <trkpt lat="48.32658" lon="-0.3701">
        <ele>226</ele>
        <time>2014-09-09T08:02:06Z</time>
      </trkpt>
      <trkpt lat="48.3266" lon="-0.36963">
        <ele>232</ele>
        <time>2014-09-09T08:02:13Z</time>
      </trkpt>
      <trkpt lat="48.3266" lon="-0.36935">
        <ele>231</ele>
        <time>2014-09-09T08:02:18Z</time>
      </trkpt>
      <trkpt lat="48.32663" lon="-0.36898">
        <ele>232</ele>
        <time>2014-09-09T08:02:24Z</time>
      </trkpt>
      <trkpt lat="48.32664" lon="-0.3687">
        <ele>235</ele>
        <time>2014-09-09T08:02:29Z</time>
      </trkpt>
      <trkpt lat="48.32666" lon="-0.36833">
        <ele>226</ele>
        <time>2014-09-09T08:02:36Z</time>
      </trkpt>
      <trkpt lat="48.32667" lon="-0.36796">
        <ele>230</ele>
        <time>2014-09-09T08:02:43Z</time>
      </trkpt>
      <trkpt lat="48.3267" lon="-0.36758">
        <ele>230</ele>
        <time>2014-09-09T08:02:50Z</time>
      </trkpt>
      <trkpt lat="48.32676" lon="-0.36709">
        <ele>229</ele>
        <time>2014-09-09T08:02:59Z</time>
      </trkpt>
      <trkpt lat="48.32676" lon="-0.36672">
        <ele>234</ele>
        <time>2014-09-09T08:03:04Z</time>
      </trkpt>
      <trkpt lat="48.32677" lon="-0.36651">
        <ele>232</ele>
        <time>2014-09-09T08:03:07Z</time>
      </trkpt>
      <trkpt lat="48.3268" lon="-0.36616">
        <ele>232</ele>
        <time>2014-09-09T08:03:13Z</time>
      </trkpt>
      <trkpt lat="48.32685" lon="-0.36584">
        <ele>234</ele>
        <time>2014-09-09T08:03:19Z</time>
      </trkpt>
      <trkpt lat="48.32697" lon="-0.36539">
        <ele>232</ele>
        <time>2014-09-09T08:03:27Z</time>
      </trkpt>
      <trkpt lat="48.32703" lon="-0.36511">
        <ele>231</ele>
        <time>2014-09-09T08:03:32Z</time>
      </trkpt>
      <trkpt lat="48.32712" lon="-0.36474">
        <ele>233</ele>
        <time>2014-09-09T08:03:39Z</time>
      </trkpt>
      <trkpt lat="48.32721" lon="-0.36441">
        <ele>233</ele>
        <time>2014-09-09T08:03:45Z</time>
      </trkpt>
      <trkpt lat="48.32728" lon="-0.36419">
        <ele>235</ele>
        <time>2014-09-09T08:03:50Z</time>
      </trkpt>
      <trkpt lat="48.32738" lon="-0.36385">
        <ele>237</ele>
        <time>2014-09-09T08:03:57Z</time>
      </trkpt>
      <trkpt lat="48.32758" lon="-0.36342">
        <ele>230</ele>
        <time>2014-09-09T08:04:07Z</time>
      </trkpt>
      <trkpt lat="48.32775" lon="-0.36308">
        <ele>232</ele>
        <time>2014-09-09T08:04:16Z</time>
      </trkpt>
      <trkpt lat="48.32786" lon="-0.36288">
        <ele>233</ele>
        <time>2014-09-09T08:04:22Z</time>
      </trkpt>
      <trkpt lat="48.32797" lon="-0.36269">
        <ele>231</ele>
        <time>2014-09-09T08:04:29Z</time>
      </trkpt>
      <trkpt lat="48.3282" lon="-0.36223">
        <ele>232</ele>
        <time>2014-09-09T08:04:41Z</time>
      </trkpt>
      <trkpt lat="48.32831" lon="-0.36197">
        <ele>235</ele>
        <time>2014-09-09T08:04:47Z</time>
      </trkpt>
      <trkpt lat="48.32842" lon="-0.36168">
        <ele>237</ele>
        <time>2014-09-09T08:04:54Z</time>
      </trkpt>
      <trkpt lat="48.32853" lon="-0.36144">
        <ele>240</ele>
        <time>2014-09-09T08:05:01Z</time>
      </trkpt>
      <trkpt lat="48.32868" lon="-0.36103">
        <ele>239</ele>
        <time>2014-09-09T08:05:11Z</time>
      </trkpt>
      <trkpt lat="48.32877" lon="-0.36084">
        <ele>243</ele>
        <time>2014-09-09T08:05:16Z</time>
      </trkpt>
      <trkpt lat="48.32894" lon="-0.36052">
        <ele>239</ele>
        <time>2014-09-09T08:05:22Z</time>
      </trkpt>
      <trkpt lat="48.32911" lon="-0.36022">
        <ele>237</ele>
        <time>2014-09-09T08:05:29Z</time>
      </trkpt>
      <trkpt lat="48.32926" lon="-0.35991">
        <ele>233</ele>
        <time>2014-09-09T08:05:35Z</time>
      </trkpt>
      <trkpt lat="48.32941" lon="-0.35964">
        <ele>237</ele>
        <time>2014-09-09T08:05:41Z</time>
      </trkpt>
      <trkpt lat="48.32947" lon="-0.35954">
        <ele>235</ele>
        <time>2014-09-09T08:05:44Z</time>
      </trkpt>
      <trkpt lat="48.32954" lon="-0.35938">
        <ele>237</ele>
        <time>2014-09-09T08:05:49Z</time>
      </trkpt>
      <trkpt lat="48.32968" lon="-0.35907">
        <ele>237</ele>
        <time>2014-09-09T08:05:56Z</time>
      </trkpt>
      <trkpt lat="48.32977" lon="-0.35887">
        <ele>239</ele>
        <time>2014-09-09T08:06:04Z</time>
      </trkpt>
      <trkpt lat="48.32996" lon="-0.35842">
        <ele>237</ele>
        <time>2014-09-09T08:06:16Z</time>
      </trkpt>
      <trkpt lat="48.3301" lon="-0.35817">
        <ele>243</ele>
        <time>2014-09-09T08:06:24Z</time>
      </trkpt>
      <trkpt lat="48.33024" lon="-0.35791">
        <ele>244</ele>
        <time>2014-09-09T08:06:31Z</time>
      </trkpt>
      <trkpt lat="48.33047" lon="-0.35752">
        <ele>242</ele>
        <time>2014-09-09T08:06:40Z</time>
      </trkpt>
      <trkpt lat="48.33063" lon="-0.35728">
        <ele>240</ele>
        <time>2014-09-09T08:06:47Z</time>
      </trkpt>
      <trkpt lat="48.33073" lon="-0.3571">
        <ele>240</ele>
        <time>2014-09-09T08:06:52Z</time>
      </trkpt>
      <trkpt lat="48.33087" lon="-0.35691">
        <ele>244</ele>
        <time>2014-09-09T08:06:58Z</time>
      </trkpt>
      <trkpt lat="48.33103" lon="-0.35666">
        <ele>254</ele>
        <time>2014-09-09T08:07:05Z</time>
      </trkpt>
      <trkpt lat="48.33124" lon="-0.35642">
        <ele>255</ele>
        <time>2014-09-09T08:07:12Z</time>
      </trkpt>
      <trkpt lat="48.33139" lon="-0.35623">
        <ele>249</ele>
        <time>2014-09-09T08:07:17Z</time>
      </trkpt>
      <trkpt lat="48.3316" lon="-0.35596">
        <ele>242</ele>
        <time>2014-09-09T08:07:23Z</time>
      </trkpt>
      <trkpt lat="48.33172" lon="-0.35577">
        <ele>245</ele>
        <time>2014-09-09T08:07:28Z</time>
      </trkpt>
      <trkpt lat="48.33187" lon="-0.35558">
        <ele>246</ele>
        <time>2014-09-09T08:07:33Z</time>
      </trkpt>
      <trkpt lat="48.33197" lon="-0.35545">
        <ele>245</ele>
        <time>2014-09-09T08:07:37Z</time>
      </trkpt>
      <trkpt lat="48.33204" lon="-0.35536">
        <ele>245</ele>
        <time>2014-09-09T08:07:40Z</time>
      </trkpt>
      <trkpt lat="48.33212" lon="-0.35524">
        <ele>246</ele>
        <time>2014-09-09T08:07:43Z</time>
      </trkpt>
      <trkpt lat="48.33231" lon="-0.35501">
        <ele>251</ele>
        <time>2014-09-09T08:07:49Z</time>
      </trkpt>
      <trkpt lat="48.3325" lon="-0.35474">
        <ele>252</ele>
        <time>2014-09-09T08:07:57Z</time>
      </trkpt>
      <trkpt lat="48.33268" lon="-0.35448">
        <ele>254</ele>
        <time>2014-09-09T08:08:05Z</time>
      </trkpt>
      <trkpt lat="48.3328" lon="-0.35428">
        <ele>259</ele>
        <time>2014-09-09T08:08:12Z</time>
      </trkpt>
      <trkpt lat="48.33296" lon="-0.35407">
        <ele>260</ele>
        <time>2014-09-09T08:08:18Z</time>
      </trkpt>
      <trkpt lat="48.33316" lon="-0.35376">
        <ele>253</ele>
        <time>2014-09-09T08:08:25Z</time>
      </trkpt>
      <trkpt lat="48.33332" lon="-0.35353">
        <ele>253</ele>
        <time>2014-09-09T08:08:32Z</time>
      </trkpt>
      <trkpt lat="48.33351" lon="-0.35325">
        <ele>252</ele>
        <time>2014-09-09T08:08:40Z</time>
      </trkpt>
      <trkpt lat="48.33361" lon="-0.35311">
        <ele>255</ele>
        <time>2014-09-09T08:08:44Z</time>
      </trkpt>
      <trkpt lat="48.33381" lon="-0.35285">
        <ele>254</ele>
        <time>2014-09-09T08:08:51Z</time>
      </trkpt>
      <trkpt lat="48.33402" lon="-0.35258">
        <ele>253</ele>
        <time>2014-09-09T08:08:57Z</time>
      </trkpt>
      <trkpt lat="48.33421" lon="-0.35237">
        <ele>249</ele>
        <time>2014-09-09T08:09:02Z</time>
      </trkpt>
      <trkpt lat="48.33431" lon="-0.35225">
        <ele>250</ele>
        <time>2014-09-09T08:09:05Z</time>
      </trkpt>
      <trkpt lat="48.33453" lon="-0.35207">
        <ele>254</ele>
        <time>2014-09-09T08:09:11Z</time>
      </trkpt>
      <trkpt lat="48.33466" lon="-0.3519">
        <ele>251</ele>
        <time>2014-09-09T08:09:17Z</time>
      </trkpt>
      <trkpt lat="48.33478" lon="-0.35174">
        <ele>252</ele>
        <time>2014-09-09T08:09:23Z</time>
      </trkpt>
      <trkpt lat="48.33495" lon="-0.35151">
        <ele>255</ele>
        <time>2014-09-09T08:09:31Z</time>
      </trkpt>
      <trkpt lat="48.33515" lon="-0.35127">
        <ele>258</ele>
        <time>2014-09-09T08:09:40Z</time>
      </trkpt>
      <trkpt lat="48.33534" lon="-0.35099">
        <ele>260</ele>
        <time>2014-09-09T08:09:50Z</time>
      </trkpt>
      <trkpt lat="48.33549" lon="-0.3508">
        <ele>258</ele>
        <time>2014-09-09T08:09:56Z</time>
      </trkpt>
      <trkpt lat="48.33559" lon="-0.35069">
        <ele>257</ele>
        <time>2014-09-09T08:10:01Z</time>
      </trkpt>
      <trkpt lat="48.33572" lon="-0.35055">
        <ele>255</ele>
        <time>2014-09-09T08:10:06Z</time>
      </trkpt>
      <trkpt lat="48.33587" lon="-0.35038">
        <ele>249</ele>
        <time>2014-09-09T08:10:12Z</time>
      </trkpt>
      <trkpt lat="48.33606" lon="-0.35017">
        <ele>253</ele>
        <time>2014-09-09T08:10:19Z</time>
      </trkpt>
      <trkpt lat="48.33618" lon="-0.35001">
        <ele>254</ele>
        <time>2014-09-09T08:10:24Z</time>
      </trkpt>
      <trkpt lat="48.33625" lon="-0.34992">
        <ele>253</ele>
        <time>2014-09-09T08:10:27Z</time>
      </trkpt>
      <trkpt lat="48.33637" lon="-0.34974">
        <ele>254</ele>
        <time>2014-09-09T08:10:34Z</time>
      </trkpt>
      <trkpt lat="48.33653" lon="-0.34955">
        <ele>255</ele>
        <time>2014-09-09T08:10:41Z</time>
      </trkpt>
      <trkpt lat="48.33669" lon="-0.34936">
        <ele>253</ele>
        <time>2014-09-09T08:10:48Z</time>
      </trkpt>
      <trkpt lat="48.3368" lon="-0.34923">
        <ele>257</ele>
        <time>2014-09-09T08:10:53Z</time>
      </trkpt>
      <trkpt lat="48.33702" lon="-0.34897">
        <ele>258</ele>
        <time>2014-09-09T08:11:00Z</time>
      </trkpt>
      <trkpt lat="48.33713" lon="-0.34883">
        <ele>259</ele>
        <time>2014-09-09T08:11:05Z</time>
      </trkpt>
      <trkpt lat="48.33719" lon="-0.34874">
        <ele>255</ele>
        <time>2014-09-09T08:11:08Z</time>
      </trkpt>
      <trkpt lat="48.33724" lon="-0.34867">
        <ele>254</ele>
        <time>2014-09-09T08:11:11Z</time>
      </trkpt>
      <trkpt lat="48.33734" lon="-0.34857">
        <ele>255</ele>
        <time>2014-09-09T08:11:18Z</time>
      </trkpt>
      <trkpt lat="48.33736" lon="-0.34856">
        <ele>254</ele>
        <time>2014-09-09T08:11:20Z</time>
      </trkpt>
      <trkpt lat="48.33736" lon="-0.34856">
        <ele>208.3</ele>
        <time>2014-09-09T08:11:27Z</time>
      </trkpt>
      <trkpt lat="48.33736" lon="-0.34856">
        <ele>208.3</ele>
        <time>2014-09-09T08:12:24Z</time>
      </trkpt>
      <trkpt lat="48.33754" lon="-0.34839">
        <ele>252</ele>
        <time>2014-09-09T08:12:24Z</time>
      </trkpt>
      <trkpt lat="48.33767" lon="-0.34821">
        <ele>250</ele>
        <time>2014-09-09T08:12:31Z</time>
      </trkpt>
      <trkpt lat="48.33783" lon="-0.34803">
        <ele>250</ele>
        <time>2014-09-09T08:12:38Z</time>
      </trkpt>
      <trkpt lat="48.33796" lon="-0.34785">
        <ele>254</ele>
        <time>2014-09-09T08:12:44Z</time>
      </trkpt>
      <trkpt lat="48.33814" lon="-0.34762">
        <ele>256</ele>
        <time>2014-09-09T08:12:51Z</time>
      </trkpt>
      <trkpt lat="48.33831" lon="-0.34747">
        <ele>266</ele>
        <time>2014-09-09T08:12:57Z</time>
      </trkpt>
      <trkpt lat="48.33848" lon="-0.34728">
        <ele>261</ele>
        <time>2014-09-09T08:13:04Z</time>
      </trkpt>
      <trkpt lat="48.33868" lon="-0.347">
        <ele>258</ele>
        <time>2014-09-09T08:13:11Z</time>
      </trkpt>
      <trkpt lat="48.33883" lon="-0.34684">
        <ele>260</ele>
        <time>2014-09-09T08:13:16Z</time>
      </trkpt>
      <trkpt lat="48.33905" lon="-0.34658">
        <ele>259</ele>
        <time>2014-09-09T08:13:23Z</time>
      </trkpt>
      <trkpt lat="48.33922" lon="-0.3464">
        <ele>261</ele>
        <time>2014-09-09T08:13:29Z</time>
      </trkpt>
      <trkpt lat="48.33943" lon="-0.34612">
        <ele>258</ele>
        <time>2014-09-09T08:13:36Z</time>
      </trkpt>
      <trkpt lat="48.33959" lon="-0.3459">
        <ele>260</ele>
        <time>2014-09-09T08:13:41Z</time>
      </trkpt>
      <trkpt lat="48.33974" lon="-0.3457">
        <ele>258</ele>
        <time>2014-09-09T08:13:46Z</time>
      </trkpt>
      <trkpt lat="48.33992" lon="-0.34547">
        <ele>252</ele>
        <time>2014-09-09T08:13:52Z</time>
      </trkpt>
      <trkpt lat="48.34009" lon="-0.34524">
        <ele>254</ele>
        <time>2014-09-09T08:13:58Z</time>
      </trkpt>
      <trkpt lat="48.34028" lon="-0.34505">
        <ele>251</ele>
        <time>2014-09-09T08:14:03Z</time>
      </trkpt>
      <trkpt lat="48.34048" lon="-0.34481">
        <ele>252</ele>
        <time>2014-09-09T08:14:08Z</time>
      </trkpt>
      <trkpt lat="48.3407" lon="-0.34456">
        <ele>252</ele>
        <time>2014-09-09T08:14:14Z</time>
      </trkpt>
      <trkpt lat="48.34085" lon="-0.34431">
        <ele>256</ele>
        <time>2014-09-09T08:14:20Z</time>
      </trkpt>
      <trkpt lat="48.34105" lon="-0.34404">
        <ele>251</ele>
        <time>2014-09-09T08:14:26Z</time>
      </trkpt>
      <trkpt lat="48.34125" lon="-0.34379">
        <ele>253</ele>
        <time>2014-09-09T08:14:32Z</time>
      </trkpt>
      <trkpt lat="48.34146" lon="-0.34351">
        <ele>250</ele>
        <time>2014-09-09T08:14:38Z</time>
      </trkpt>
      <trkpt lat="48.34163" lon="-0.34334">
        <ele>250</ele>
        <time>2014-09-09T08:14:42Z</time>
      </trkpt>
      <trkpt lat="48.34178" lon="-0.34315">
        <ele>251</ele>
        <time>2014-09-09T08:14:48Z</time>
      </trkpt>
      <trkpt lat="48.34188" lon="-0.34301">
        <ele>246</ele>
        <time>2014-09-09T08:14:50Z</time>
      </trkpt>
      <trkpt lat="48.34203" lon="-0.34281">
        <ele>242</ele>
        <time>2014-09-09T08:14:55Z</time>
      </trkpt>
      <trkpt lat="48.34218" lon="-0.34261">
        <ele>243</ele>
        <time>2014-09-09T08:15:01Z</time>
      </trkpt>
      <trkpt lat="48.34242" lon="-0.34233">
        <ele>245</ele>
        <time>2014-09-09T08:15:06Z</time>
      </trkpt>
      <trkpt lat="48.34267" lon="-0.34205">
        <ele>247</ele>
        <time>2014-09-09T08:15:12Z</time>
      </trkpt>
      <trkpt lat="48.34294" lon="-0.34174">
        <ele>249</ele>
        <time>2014-09-09T08:15:20Z</time>
      </trkpt>
      <trkpt lat="48.34312" lon="-0.34156">
        <ele>241</ele>
        <time>2014-09-09T08:15:25Z</time>
      </trkpt>
      <trkpt lat="48.34323" lon="-0.34147">
        <ele>248</ele>
        <time>2014-09-09T08:15:29Z</time>
      </trkpt>
      <trkpt lat="48.34348" lon="-0.34123">
        <ele>250</ele>
        <time>2014-09-09T08:15:35Z</time>
      </trkpt>
      <trkpt lat="48.34375" lon="-0.341">
        <ele>245</ele>
        <time>2014-09-09T08:15:41Z</time>
      </trkpt>
      <trkpt lat="48.34388" lon="-0.3409">
        <ele>245</ele>
        <time>2014-09-09T08:15:44Z</time>
      </trkpt>
      <trkpt lat="48.34399" lon="-0.3408">
        <ele>246</ele>
        <time>2014-09-09T08:15:47Z</time>
      </trkpt>
      <trkpt lat="48.34411" lon="-0.34071">
        <ele>246</ele>
        <time>2014-09-09T08:15:50Z</time>
      </trkpt>
      <trkpt lat="48.3442" lon="-0.34063">
        <ele>245</ele>
        <time>2014-09-09T08:15:53Z</time>
      </trkpt>
      <trkpt lat="48.3443" lon="-0.34056">
        <ele>247</ele>
        <time>2014-09-09T08:15:56Z</time>
      </trkpt>
      <trkpt lat="48.34447" lon="-0.34042">
        <ele>247</ele>
        <time>2014-09-09T08:16:01Z</time>
      </trkpt>
      <trkpt lat="48.34458" lon="-0.34034">
        <ele>249</ele>
        <time>2014-09-09T08:16:04Z</time>
      </trkpt>
      <trkpt lat="48.34476" lon="-0.34021">
        <ele>249</ele>
        <time>2014-09-09T08:16:09Z</time>
      </trkpt>
      <trkpt lat="48.34498" lon="-0.34004">
        <ele>250</ele>
        <time>2014-09-09T08:16:15Z</time>
      </trkpt>
      <trkpt lat="48.34509" lon="-0.33994">
        <ele>250</ele>
        <time>2014-09-09T08:16:18Z</time>
      </trkpt>
      <trkpt lat="48.34529" lon="-0.33977">
        <ele>247</ele>
        <time>2014-09-09T08:16:23Z</time>
      </trkpt>
      <trkpt lat="48.34544" lon="-0.3396">
        <ele>248</ele>
        <time>2014-09-09T08:16:28Z</time>
      </trkpt>
      <trkpt lat="48.34554" lon="-0.33948">
        <ele>248</ele>
        <time>2014-09-09T08:16:31Z</time>
      </trkpt>
      <trkpt lat="48.34563" lon="-0.33936">
        <ele>248</ele>
        <time>2014-09-09T08:16:34Z</time>
      </trkpt>
      <trkpt lat="48.34581" lon="-0.33911">
        <ele>248</ele>
        <time>2014-09-09T08:16:40Z</time>
      </trkpt>
      <trkpt lat="48.34602" lon="-0.3388">
        <ele>247</ele>
        <time>2014-09-09T08:16:47Z</time>
      </trkpt>
      <trkpt lat="48.3462" lon="-0.3385">
        <ele>251</ele>
        <time>2014-09-09T08:16:53Z</time>
      </trkpt>
      <trkpt lat="48.34636" lon="-0.33823">
        <ele>250</ele>
        <time>2014-09-09T08:16:59Z</time>
      </trkpt>
      <trkpt lat="48.34648" lon="-0.33791">
        <ele>245</ele>
        <time>2014-09-09T08:17:04Z</time>
      </trkpt>
      <trkpt lat="48.34657" lon="-0.33763">
        <ele>248</ele>
        <time>2014-09-09T08:17:09Z</time>
      </trkpt>
      <trkpt lat="48.34664" lon="-0.33728">
        <ele>244</ele>
        <time>2014-09-09T08:17:15Z</time>
      </trkpt>
      <trkpt lat="48.34669" lon="-0.33703">
        <ele>245</ele>
        <time>2014-09-09T08:17:20Z</time>
      </trkpt>
      <trkpt lat="48.34672" lon="-0.33688">
        <ele>246</ele>
        <time>2014-09-09T08:17:23Z</time>
      </trkpt>
      <trkpt lat="48.34677" lon="-0.33667">
        <ele>245</ele>
        <time>2014-09-09T08:17:27Z</time>
      </trkpt>
      <trkpt lat="48.34686" lon="-0.33637">
        <ele>243</ele>
        <time>2014-09-09T08:17:33Z</time>
      </trkpt>
      <trkpt lat="48.34696" lon="-0.33594">
        <ele>242</ele>
        <time>2014-09-09T08:17:40Z</time>
      </trkpt>
      <trkpt lat="48.34703" lon="-0.33556">
        <ele>246</ele>
        <time>2014-09-09T08:17:46Z</time>
      </trkpt>
      <trkpt lat="48.34707" lon="-0.33538">
        <ele>244</ele>
        <time>2014-09-09T08:17:49Z</time>
      </trkpt>
      <trkpt lat="48.34712" lon="-0.33504">
        <ele>247</ele>
        <time>2014-09-09T08:17:54Z</time>
      </trkpt>
      <trkpt lat="48.34714" lon="-0.33486">
        <ele>248</ele>
        <time>2014-09-09T08:17:57Z</time>
      </trkpt>
      <trkpt lat="48.3472" lon="-0.33446">
        <ele>247</ele>
        <time>2014-09-09T08:18:03Z</time>
      </trkpt>
      <trkpt lat="48.34725" lon="-0.33423">
        <ele>246</ele>
        <time>2014-09-09T08:18:07Z</time>
      </trkpt>
      <trkpt lat="48.34731" lon="-0.33398">
        <ele>245</ele>
        <time>2014-09-09T08:18:12Z</time>
      </trkpt>
      <trkpt lat="48.34738" lon="-0.33381">
        <ele>245</ele>
        <time>2014-09-09T08:18:16Z</time>
      </trkpt>
      <trkpt lat="48.34745" lon="-0.33352">
        <ele>244</ele>
        <time>2014-09-09T08:18:22Z</time>
      </trkpt>
      <trkpt lat="48.34751" lon="-0.33322">
        <ele>244</ele>
        <time>2014-09-09T08:18:29Z</time>
      </trkpt>
      <trkpt lat="48.34758" lon="-0.33301">
        <ele>245</ele>
        <time>2014-09-09T08:18:34Z</time>
      </trkpt>
      <trkpt lat="48.34771" lon="-0.33273">
        <ele>248</ele>
        <time>2014-09-09T08:18:41Z</time>
      </trkpt>
      <trkpt lat="48.34786" lon="-0.33241">
        <ele>245</ele>
        <time>2014-09-09T08:18:47Z</time>
      </trkpt>
      <trkpt lat="48.34797" lon="-0.33222">
        <ele>246</ele>
        <time>2014-09-09T08:18:51Z</time>
      </trkpt>
      <trkpt lat="48.34813" lon="-0.33194">
        <ele>251</ele>
        <time>2014-09-09T08:18:58Z</time>
      </trkpt>
      <trkpt lat="48.3483" lon="-0.33166">
        <ele>254</ele>
        <time>2014-09-09T08:19:04Z</time>
      </trkpt>
      <trkpt lat="48.34841" lon="-0.33148">
        <ele>254</ele>
        <time>2014-09-09T08:19:08Z</time>
      </trkpt>
      <trkpt lat="48.34855" lon="-0.33123">
        <ele>247</ele>
        <time>2014-09-09T08:19:15Z</time>
      </trkpt>
      <trkpt lat="48.34877" lon="-0.33095">
        <ele>252</ele>
        <time>2014-09-09T08:19:21Z</time>
      </trkpt>
      <trkpt lat="48.34894" lon="-0.33072">
        <ele>249</ele>
        <time>2014-09-09T08:19:26Z</time>
      </trkpt>
      <trkpt lat="48.34914" lon="-0.33051">
        <ele>253</ele>
        <time>2014-09-09T08:19:31Z</time>
      </trkpt>
      <trkpt lat="48.34929" lon="-0.33032">
        <ele>254</ele>
        <time>2014-09-09T08:19:37Z</time>
      </trkpt>
      <trkpt lat="48.34946" lon="-0.33011">
        <ele>251</ele>
        <time>2014-09-09T08:19:42Z</time>
      </trkpt>
      <trkpt lat="48.34967" lon="-0.32984">
        <ele>245</ele>
        <time>2014-09-09T08:19:48Z</time>
      </trkpt>
      <trkpt lat="48.34986" lon="-0.32956">
        <ele>244</ele>
        <time>2014-09-09T08:19:54Z</time>
      </trkpt>
      <trkpt lat="48.35007" lon="-0.32931">
        <ele>246</ele>
        <time>2014-09-09T08:20:00Z</time>
      </trkpt>
      <trkpt lat="48.35023" lon="-0.32911">
        <ele>248</ele>
        <time>2014-09-09T08:20:05Z</time>
      </trkpt>
      <trkpt lat="48.35035" lon="-0.32894">
        <ele>249</ele>
        <time>2014-09-09T08:20:09Z</time>
      </trkpt>
      <trkpt lat="48.35052" lon="-0.32866">
        <ele>249</ele>
        <time>2014-09-09T08:20:15Z</time>
      </trkpt>
      <trkpt lat="48.35067" lon="-0.32837">
        <ele>246</ele>
        <time>2014-09-09T08:20:21Z</time>
      </trkpt>
      <trkpt lat="48.35075" lon="-0.32822">
        <ele>245</ele>
        <time>2014-09-09T08:20:24Z</time>
      </trkpt>
      <trkpt lat="48.35091" lon="-0.32791">
        <ele>245</ele>
        <time>2014-09-09T08:20:30Z</time>
      </trkpt>
      <trkpt lat="48.35105" lon="-0.32759">
        <ele>244</ele>
        <time>2014-09-09T08:20:36Z</time>
      </trkpt>
      <trkpt lat="48.35117" lon="-0.32724">
        <ele>242</ele>
        <time>2014-09-09T08:20:43Z</time>
      </trkpt>
      <trkpt lat="48.35135" lon="-0.3268">
        <ele>243</ele>
        <time>2014-09-09T08:20:50Z</time>
      </trkpt>
      <trkpt lat="48.35145" lon="-0.32658">
        <ele>244</ele>
        <time>2014-09-09T08:20:54Z</time>
      </trkpt>
      <trkpt lat="48.35154" lon="-0.3264">
        <ele>248</ele>
        <time>2014-09-09T08:20:57Z</time>
      </trkpt>
      <trkpt lat="48.35163" lon="-0.32607">
        <ele>247</ele>
        <time>2014-09-09T08:21:03Z</time>
      </trkpt>
      <trkpt lat="48.35173" lon="-0.32569">
        <ele>244</ele>
        <time>2014-09-09T08:21:09Z</time>
      </trkpt>
      <trkpt lat="48.35181" lon="-0.32524">
        <ele>243</ele>
        <time>2014-09-09T08:21:15Z</time>
      </trkpt>
      <trkpt lat="48.35188" lon="-0.32488">
        <ele>246</ele>
        <time>2014-09-09T08:21:21Z</time>
      </trkpt>
      <trkpt lat="48.35194" lon="-0.3246">
        <ele>247</ele>
        <time>2014-09-09T08:21:26Z</time>
      </trkpt>
      <trkpt lat="48.35203" lon="-0.32419">
        <ele>250</ele>
        <time>2014-09-09T08:21:33Z</time>
      </trkpt>
      <trkpt lat="48.35212" lon="-0.32379">
        <ele>245</ele>
        <time>2014-09-09T08:21:40Z</time>
      </trkpt>
      <trkpt lat="48.3522" lon="-0.32348">
        <ele>248</ele>
        <time>2014-09-09T08:21:45Z</time>
      </trkpt>
      <trkpt lat="48.35229" lon="-0.32311">
        <ele>249</ele>
        <time>2014-09-09T08:21:51Z</time>
      </trkpt>
      <trkpt lat="48.35237" lon="-0.32275">
        <ele>242</ele>
        <time>2014-09-09T08:21:56Z</time>
      </trkpt>
      <trkpt lat="48.35239" lon="-0.32255">
        <ele>241</ele>
        <time>2014-09-09T08:21:59Z</time>
      </trkpt>
      <trkpt lat="48.35242" lon="-0.32234">
        <ele>242</ele>
        <time>2014-09-09T08:22:02Z</time>
      </trkpt>
      <trkpt lat="48.35245" lon="-0.32205">
        <ele>243</ele>
        <time>2014-09-09T08:22:07Z</time>
      </trkpt>
      <trkpt lat="48.35249" lon="-0.32169">
        <ele>242</ele>
        <time>2014-09-09T08:22:14Z</time>
      </trkpt>
      <trkpt lat="48.35252" lon="-0.32149">
        <ele>242</ele>
        <time>2014-09-09T08:22:18Z</time>
      </trkpt>
      <trkpt lat="48.35255" lon="-0.32127">
        <ele>242</ele>
        <time>2014-09-09T08:22:24Z</time>
      </trkpt>
      <trkpt lat="48.35267" lon="-0.32093">
        <ele>245</ele>
        <time>2014-09-09T08:22:33Z</time>
      </trkpt>
      <trkpt lat="48.35271" lon="-0.32072">
        <ele>247</ele>
        <time>2014-09-09T08:22:38Z</time>
      </trkpt>
      <trkpt lat="48.35278" lon="-0.32036">
        <ele>245</ele>
        <time>2014-09-09T08:22:46Z</time>
      </trkpt>
      <trkpt lat="48.35286" lon="-0.31996">
        <ele>247</ele>
        <time>2014-09-09T08:22:53Z</time>
      </trkpt>
      <trkpt lat="48.35295" lon="-0.31967">
        <ele>244</ele>
        <time>2014-09-09T08:22:59Z</time>
      </trkpt>
      <trkpt lat="48.35319" lon="-0.31907">
        <ele>244</ele>
        <time>2014-09-09T08:23:09Z</time>
      </trkpt>
      <trkpt lat="48.35333" lon="-0.31875">
        <ele>242</ele>
        <time>2014-09-09T08:23:15Z</time>
      </trkpt>
      <trkpt lat="48.35348" lon="-0.31846">
        <ele>241</ele>
        <time>2014-09-09T08:23:21Z</time>
      </trkpt>
      <trkpt lat="48.3537" lon="-0.31812">
        <ele>241</ele>
        <time>2014-09-09T08:23:27Z</time>
      </trkpt>
      <trkpt lat="48.35386" lon="-0.31781">
        <ele>246</ele>
        <time>2014-09-09T08:23:34Z</time>
      </trkpt>
      <trkpt lat="48.35407" lon="-0.3175">
        <ele>248</ele>
        <time>2014-09-09T08:23:41Z</time>
      </trkpt>
      <trkpt lat="48.35418" lon="-0.31736">
        <ele>247</ele>
        <time>2014-09-09T08:23:44Z</time>
      </trkpt>
      <trkpt lat="48.35427" lon="-0.31724">
        <ele>244</ele>
        <time>2014-09-09T08:23:47Z</time>
      </trkpt>
      <trkpt lat="48.35453" lon="-0.31695">
        <ele>242</ele>
        <time>2014-09-09T08:23:54Z</time>
      </trkpt>
      <trkpt lat="48.35474" lon="-0.31673">
        <ele>243</ele>
        <time>2014-09-09T08:24:00Z</time>
      </trkpt>
      <trkpt lat="48.35492" lon="-0.31657">
        <ele>241</ele>
        <time>2014-09-09T08:24:05Z</time>
      </trkpt>
      <trkpt lat="48.35516" lon="-0.31636">
        <ele>238</ele>
        <time>2014-09-09T08:24:11Z</time>
      </trkpt>
      <trkpt lat="48.35538" lon="-0.31618">
        <ele>240</ele>
        <time>2014-09-09T08:24:17Z</time>
      </trkpt>
      <trkpt lat="48.35562" lon="-0.31602">
        <ele>235</ele>
        <time>2014-09-09T08:24:23Z</time>
      </trkpt>
      <trkpt lat="48.35574" lon="-0.31594">
        <ele>234</ele>
        <time>2014-09-09T08:24:26Z</time>
      </trkpt>
      <trkpt lat="48.35598" lon="-0.31583">
        <ele>236</ele>
        <time>2014-09-09T08:24:31Z</time>
      </trkpt>
      <trkpt lat="48.35624" lon="-0.3157">
        <ele>234</ele>
        <time>2014-09-09T08:24:38Z</time>
      </trkpt>
      <trkpt lat="48.35637" lon="-0.31566">
        <ele>232</ele>
        <time>2014-09-09T08:24:43Z</time>
      </trkpt>
      <trkpt lat="48.35664" lon="-0.31557">
        <ele>233</ele>
        <time>2014-09-09T08:24:54Z</time>
      </trkpt>
      <trkpt lat="48.35689" lon="-0.31548">
        <ele>235</ele>
        <time>2014-09-09T08:25:00Z</time>
      </trkpt>
      <trkpt lat="48.35718" lon="-0.31536">
        <ele>229</ele>
        <time>2014-09-09T08:25:07Z</time>
      </trkpt>
      <trkpt lat="48.35738" lon="-0.31526">
        <ele>231</ele>
        <time>2014-09-09T08:25:12Z</time>
      </trkpt>
      <trkpt lat="48.35763" lon="-0.31516">
        <ele>235</ele>
        <time>2014-09-09T08:25:18Z</time>
      </trkpt>
      <trkpt lat="48.35784" lon="-0.31507">
        <ele>237</ele>
        <time>2014-09-09T08:25:23Z</time>
      </trkpt>
      <trkpt lat="48.35809" lon="-0.315">
        <ele>236</ele>
        <time>2014-09-09T08:25:29Z</time>
      </trkpt>
      <trkpt lat="48.35833" lon="-0.31494">
        <ele>233</ele>
        <time>2014-09-09T08:25:34Z</time>
      </trkpt>
      <trkpt lat="48.35847" lon="-0.31491">
        <ele>233</ele>
        <time>2014-09-09T08:25:37Z</time>
      </trkpt>
      <trkpt lat="48.35871" lon="-0.31491">
        <ele>231</ele>
        <time>2014-09-09T08:25:42Z</time>
      </trkpt>
      <trkpt lat="48.35899" lon="-0.3149">
        <ele>232</ele>
        <time>2014-09-09T08:25:48Z</time>
      </trkpt>
      <trkpt lat="48.3592" lon="-0.31493">
        <ele>229</ele>
        <time>2014-09-09T08:25:53Z</time>
      </trkpt>
      <trkpt lat="48.35934" lon="-0.31496">
        <ele>228</ele>
        <time>2014-09-09T08:25:56Z</time>
      </trkpt>
      <trkpt lat="48.35958" lon="-0.31505">
        <ele>225</ele>
        <time>2014-09-09T08:26:02Z</time>
      </trkpt>
      <trkpt lat="48.35979" lon="-0.31514">
        <ele>231</ele>
        <time>2014-09-09T08:26:07Z</time>
      </trkpt>
      <trkpt lat="48.35999" lon="-0.31523">
        <ele>230</ele>
        <time>2014-09-09T08:26:12Z</time>
      </trkpt>
      <trkpt lat="48.36026" lon="-0.31534">
        <ele>234</ele>
        <time>2014-09-09T08:26:19Z</time>
      </trkpt>
      <trkpt lat="48.36043" lon="-0.31546">
        <ele>229</ele>
        <time>2014-09-09T08:26:27Z</time>
      </trkpt>
      <trkpt lat="48.36043" lon="-0.31546">
        <ele>229</ele>
        <time>2014-09-09T08:26:33Z</time>
      </trkpt>
      <trkpt lat="48.36043" lon="-0.31546">
        <ele>182</ele>
        <time>2014-09-09T08:26:34Z</time>
      </trkpt>
      <trkpt lat="48.36043" lon="-0.31546">
        <ele>182</ele>
        <time>2014-09-09T08:26:58Z</time>
      </trkpt>
      <trkpt lat="48.36043" lon="-0.31525">
        <ele>224</ele>
        <time>2014-09-09T08:26:58Z</time>
      </trkpt>
      <trkpt lat="48.36042" lon="-0.31498">
        <ele>225</ele>
        <time>2014-09-09T08:27:04Z</time>
      </trkpt>
      <trkpt lat="48.36046" lon="-0.31463">
        <ele>228</ele>
        <time>2014-09-09T08:27:10Z</time>
      </trkpt>
      <trkpt lat="48.36048" lon="-0.31445">
        <ele>228</ele>
        <time>2014-09-09T08:27:13Z</time>
      </trkpt>
      <trkpt lat="48.36051" lon="-0.31416">
        <ele>228</ele>
        <time>2014-09-09T08:27:18Z</time>
      </trkpt>
      <trkpt lat="48.36053" lon="-0.3138">
        <ele>228</ele>
        <time>2014-09-09T08:27:24Z</time>
      </trkpt>
      <trkpt lat="48.36058" lon="-0.31347">
        <ele>229</ele>
        <time>2014-09-09T08:27:30Z</time>
      </trkpt>
      <trkpt lat="48.36059" lon="-0.3133">
        <ele>229</ele>
        <time>2014-09-09T08:27:33Z</time>
      </trkpt>
      <trkpt lat="48.36062" lon="-0.31312">
        <ele>229</ele>
        <time>2014-09-09T08:27:36Z</time>
      </trkpt>
      <trkpt lat="48.36065" lon="-0.31275">
        <ele>229</ele>
        <time>2014-09-09T08:27:42Z</time>
      </trkpt>
      <trkpt lat="48.36068" lon="-0.31237">
        <ele>228</ele>
        <time>2014-09-09T08:27:48Z</time>
      </trkpt>
      <trkpt lat="48.36069" lon="-0.31217">
        <ele>228</ele>
        <time>2014-09-09T08:27:51Z</time>
      </trkpt>
      <trkpt lat="48.36069" lon="-0.31184">
        <ele>228</ele>
        <time>2014-09-09T08:27:56Z</time>
      </trkpt>
      <trkpt lat="48.36068" lon="-0.31146">
        <ele>228</ele>
        <time>2014-09-09T08:28:02Z</time>
      </trkpt>
      <trkpt lat="48.36065" lon="-0.31115">
        <ele>228</ele>
        <time>2014-09-09T08:28:07Z</time>
      </trkpt>
      <trkpt lat="48.3606" lon="-0.31077">
        <ele>228</ele>
        <time>2014-09-09T08:28:13Z</time>
      </trkpt>
      <trkpt lat="48.36051" lon="-0.31039">
        <ele>228</ele>
        <time>2014-09-09T08:28:19Z</time>
      </trkpt>
      <trkpt lat="48.36043" lon="-0.31009">
        <ele>228</ele>
        <time>2014-09-09T08:28:24Z</time>
      </trkpt>
      <trkpt lat="48.36033" lon="-0.30973">
        <ele>228</ele>
        <time>2014-09-09T08:28:30Z</time>
      </trkpt>
      <trkpt lat="48.36027" lon="-0.30954">
        <ele>228</ele>
        <time>2014-09-09T08:28:33Z</time>
      </trkpt>
      <trkpt lat="48.36023" lon="-0.30936">
        <ele>228</ele>
        <time>2014-09-09T08:28:36Z</time>
      </trkpt>
      <trkpt lat="48.36012" lon="-0.30898">
        <ele>229</ele>
        <time>2014-09-09T08:28:42Z</time>
      </trkpt>
      <trkpt lat="48.36001" lon="-0.3086">
        <ele>229</ele>
        <time>2014-09-09T08:28:48Z</time>
      </trkpt>
      <trkpt lat="48.35992" lon="-0.30828">
        <ele>230</ele>
        <time>2014-09-09T08:28:53Z</time>
      </trkpt>
      <trkpt lat="48.35982" lon="-0.30794">
        <ele>230</ele>
        <time>2014-09-09T08:28:59Z</time>
      </trkpt>
      <trkpt lat="48.35976" lon="-0.30774">
        <ele>230</ele>
        <time>2014-09-09T08:29:02Z</time>
      </trkpt>
      <trkpt lat="48.35965" lon="-0.30737">
        <ele>230</ele>
        <time>2014-09-09T08:29:08Z</time>
      </trkpt>
      <trkpt lat="48.35954" lon="-0.30699">
        <ele>230</ele>
        <time>2014-09-09T08:29:14Z</time>
      </trkpt>
      <trkpt lat="48.35946" lon="-0.30668">
        <ele>231</ele>
        <time>2014-09-09T08:29:19Z</time>
      </trkpt>
      <trkpt lat="48.35935" lon="-0.3063">
        <ele>231</ele>
        <time>2014-09-09T08:29:25Z</time>
      </trkpt>
      <trkpt lat="48.35925" lon="-0.30594">
        <ele>231</ele>
        <time>2014-09-09T08:29:31Z</time>
      </trkpt>
      <trkpt lat="48.3592" lon="-0.30574">
        <ele>232</ele>
        <time>2014-09-09T08:29:34Z</time>
      </trkpt>
      <trkpt lat="48.35911" lon="-0.30543">
        <ele>233</ele>
        <time>2014-09-09T08:29:39Z</time>
      </trkpt>
      <trkpt lat="48.35906" lon="-0.30525">
        <ele>233</ele>
        <time>2014-09-09T08:29:42Z</time>
      </trkpt>
      <trkpt lat="48.35897" lon="-0.3049">
        <ele>234</ele>
        <time>2014-09-09T08:29:48Z</time>
      </trkpt>
      <trkpt lat="48.35887" lon="-0.30452">
        <ele>234</ele>
        <time>2014-09-09T08:29:54Z</time>
      </trkpt>
      <trkpt lat="48.35878" lon="-0.3042">
        <ele>236</ele>
        <time>2014-09-09T08:29:59Z</time>
      </trkpt>
      <trkpt lat="48.35867" lon="-0.3038">
        <ele>237</ele>
        <time>2014-09-09T08:30:05Z</time>
      </trkpt>
      <trkpt lat="48.35853" lon="-0.30335">
        <ele>237</ele>
        <time>2014-09-09T08:30:12Z</time>
      </trkpt>
      <trkpt lat="48.35844" lon="-0.30304">
        <ele>238</ele>
        <time>2014-09-09T08:30:18Z</time>
      </trkpt>
      <trkpt lat="48.35833" lon="-0.30266">
        <ele>238</ele>
        <time>2014-09-09T08:30:23Z</time>
      </trkpt>
      <trkpt lat="48.35828" lon="-0.30247">
        <ele>238</ele>
        <time>2014-09-09T08:30:29Z</time>
      </trkpt>
      <trkpt lat="48.358" lon="-0.30144">
        <ele>239</ele>
        <time>2014-09-09T08:30:45Z</time>
      </trkpt>
      <trkpt lat="48.35789" lon="-0.30106">
        <ele>240</ele>
        <time>2014-09-09T08:30:51Z</time>
      </trkpt>
      <trkpt lat="48.35777" lon="-0.30062">
        <ele>241</ele>
        <time>2014-09-09T08:30:56Z</time>
      </trkpt>
      <trkpt lat="48.35766" lon="-0.30027">
        <ele>237</ele>
        <time>2014-09-09T08:31:02Z</time>
      </trkpt>
      <trkpt lat="48.3576" lon="-0.30007">
        <ele>238</ele>
        <time>2014-09-09T08:31:05Z</time>
      </trkpt>
      <trkpt lat="48.35751" lon="-0.29975">
        <ele>239</ele>
        <time>2014-09-09T08:31:10Z</time>
      </trkpt>
      <trkpt lat="48.35745" lon="-0.29955">
        <ele>240</ele>
        <time>2014-09-09T08:31:13Z</time>
      </trkpt>
      <trkpt lat="48.35734" lon="-0.29916">
        <ele>240</ele>
        <time>2014-09-09T08:31:19Z</time>
      </trkpt>
      <trkpt lat="48.35725" lon="-0.29878">
        <ele>242</ele>
        <time>2014-09-09T08:31:25Z</time>
      </trkpt>
      <trkpt lat="48.35716" lon="-0.29847">
        <ele>241</ele>
        <time>2014-09-09T08:31:30Z</time>
      </trkpt>
      <trkpt lat="48.35711" lon="-0.29827">
        <ele>244</ele>
        <time>2014-09-09T08:31:33Z</time>
      </trkpt>
      <trkpt lat="48.35705" lon="-0.29807">
        <ele>244</ele>
        <time>2014-09-09T08:31:36Z</time>
      </trkpt>
      <trkpt lat="48.357" lon="-0.29789">
        <ele>243</ele>
        <time>2014-09-09T08:31:39Z</time>
      </trkpt>
      <trkpt lat="48.3569" lon="-0.29753">
        <ele>243</ele>
        <time>2014-09-09T08:31:45Z</time>
      </trkpt>
      <trkpt lat="48.35685" lon="-0.29735">
        <ele>243</ele>
        <time>2014-09-09T08:31:48Z</time>
      </trkpt>
      <trkpt lat="48.35679" lon="-0.29715">
        <ele>243</ele>
        <time>2014-09-09T08:31:51Z</time>
      </trkpt>
      <trkpt lat="48.35674" lon="-0.29695">
        <ele>245</ele>
        <time>2014-09-09T08:31:54Z</time>
      </trkpt>
      <trkpt lat="48.35668" lon="-0.29675">
        <ele>246</ele>
        <time>2014-09-09T08:31:57Z</time>
      </trkpt>
      <trkpt lat="48.35662" lon="-0.29656">
        <ele>246</ele>
        <time>2014-09-09T08:32:00Z</time>
      </trkpt>
      <trkpt lat="48.35651" lon="-0.29617">
        <ele>248</ele>
        <time>2014-09-09T08:32:06Z</time>
      </trkpt>
      <trkpt lat="48.35642" lon="-0.29586">
        <ele>248</ele>
        <time>2014-09-09T08:32:11Z</time>
      </trkpt>
      <trkpt lat="48.35634" lon="-0.29555">
        <ele>249</ele>
        <time>2014-09-09T08:32:16Z</time>
      </trkpt>
      <trkpt lat="48.35623" lon="-0.29516">
        <ele>250</ele>
        <time>2014-09-09T08:32:22Z</time>
      </trkpt>
      <trkpt lat="48.35612" lon="-0.29478">
        <ele>251</ele>
        <time>2014-09-09T08:32:28Z</time>
      </trkpt>
      <trkpt lat="48.35607" lon="-0.29459">
        <ele>251</ele>
        <time>2014-09-09T08:32:31Z</time>
      </trkpt>
      <trkpt lat="48.35598" lon="-0.29427">
        <ele>252</ele>
        <time>2014-09-09T08:32:36Z</time>
      </trkpt>
      <trkpt lat="48.35592" lon="-0.29409">
        <ele>252</ele>
        <time>2014-09-09T08:32:39Z</time>
      </trkpt>
      <trkpt lat="48.35587" lon="-0.2939">
        <ele>253</ele>
        <time>2014-09-09T08:32:42Z</time>
      </trkpt>
      <trkpt lat="48.35577" lon="-0.29351">
        <ele>254</ele>
        <time>2014-09-09T08:32:48Z</time>
      </trkpt>
      <trkpt lat="48.35571" lon="-0.29332">
        <ele>255</ele>
        <time>2014-09-09T08:32:51Z</time>
      </trkpt>
      <trkpt lat="48.35566" lon="-0.29313">
        <ele>255</ele>
        <time>2014-09-09T08:32:54Z</time>
      </trkpt>
      <trkpt lat="48.35561" lon="-0.29295">
        <ele>255</ele>
        <time>2014-09-09T08:32:57Z</time>
      </trkpt>
      <trkpt lat="48.35555" lon="-0.29276">
        <ele>256</ele>
        <time>2014-09-09T08:33:00Z</time>
      </trkpt>
      <trkpt lat="48.3555" lon="-0.29257">
        <ele>257</ele>
        <time>2014-09-09T08:33:03Z</time>
      </trkpt>
      <trkpt lat="48.3554" lon="-0.2922">
        <ele>257</ele>
        <time>2014-09-09T08:33:09Z</time>
      </trkpt>
      <trkpt lat="48.35529" lon="-0.29183">
        <ele>259</ele>
        <time>2014-09-09T08:33:15Z</time>
      </trkpt>
      <trkpt lat="48.35515" lon="-0.29131">
        <ele>259</ele>
        <time>2014-09-09T08:33:23Z</time>
      </trkpt>
      <trkpt lat="48.35506" lon="-0.29099">
        <ele>260</ele>
        <time>2014-09-09T08:33:28Z</time>
      </trkpt>
      <trkpt lat="48.35495" lon="-0.2906">
        <ele>261</ele>
        <time>2014-09-09T08:33:34Z</time>
      </trkpt>
      <trkpt lat="48.35489" lon="-0.29041">
        <ele>261</ele>
        <time>2014-09-09T08:33:37Z</time>
      </trkpt>
      <trkpt lat="48.3548" lon="-0.29003">
        <ele>263</ele>
        <time>2014-09-09T08:33:43Z</time>
      </trkpt>
      <trkpt lat="48.35472" lon="-0.28976">
        <ele>262</ele>
        <time>2014-09-09T08:33:50Z</time>
      </trkpt>
      <trkpt lat="48.3546" lon="-0.28931">
        <ele>262</ele>
        <time>2014-09-09T08:33:58Z</time>
      </trkpt>
      <trkpt lat="48.3545" lon="-0.28903">
        <ele>260</ele>
        <time>2014-09-09T08:34:03Z</time>
      </trkpt>
      <trkpt lat="48.35438" lon="-0.28867">
        <ele>259</ele>
        <time>2014-09-09T08:34:10Z</time>
      </trkpt>
      <trkpt lat="48.35425" lon="-0.2883">
        <ele>257</ele>
        <time>2014-09-09T08:34:16Z</time>
      </trkpt>
      <trkpt lat="48.35402" lon="-0.28773">
        <ele>256</ele>
        <time>2014-09-09T08:34:23Z</time>
      </trkpt>
      <trkpt lat="48.35382" lon="-0.28726">
        <ele>257</ele>
        <time>2014-09-09T08:34:29Z</time>
      </trkpt>
      <trkpt lat="48.35367" lon="-0.28689">
        <ele>257</ele>
        <time>2014-09-09T08:34:34Z</time>
      </trkpt>
      <trkpt lat="48.3535" lon="-0.28649">
        <ele>258</ele>
        <time>2014-09-09T08:34:40Z</time>
      </trkpt>
      <trkpt lat="48.35331" lon="-0.28612">
        <ele>254</ele>
        <time>2014-09-09T08:34:45Z</time>
      </trkpt>
      <trkpt lat="48.35307" lon="-0.28567">
        <ele>252</ele>
        <time>2014-09-09T08:34:51Z</time>
      </trkpt>
      <trkpt lat="48.35297" lon="-0.28548">
        <ele>251</ele>
        <time>2014-09-09T08:34:54Z</time>
      </trkpt>
      <trkpt lat="48.35286" lon="-0.2853">
        <ele>249</ele>
        <time>2014-09-09T08:34:57Z</time>
      </trkpt>
      <trkpt lat="48.35274" lon="-0.28509">
        <ele>251</ele>
        <time>2014-09-09T08:35:00Z</time>
      </trkpt>
      <trkpt lat="48.35253" lon="-0.28473">
        <ele>248</ele>
        <time>2014-09-09T08:35:06Z</time>
      </trkpt>
      <trkpt lat="48.35245" lon="-0.28445">
        <ele>249</ele>
        <time>2014-09-09T08:35:12Z</time>
      </trkpt>
      <trkpt lat="48.35231" lon="-0.28427">
        <ele>250</ele>
        <time>2014-09-09T08:35:17Z</time>
      </trkpt>
      <trkpt lat="48.35214" lon="-0.28409">
        <ele>250</ele>
        <time>2014-09-09T08:35:22Z</time>
      </trkpt>
      <trkpt lat="48.35193" lon="-0.2838">
        <ele>248</ele>
        <time>2014-09-09T08:35:28Z</time>
      </trkpt>
      <trkpt lat="48.35177" lon="-0.28357">
        <ele>248</ele>
        <time>2014-09-09T08:35:33Z</time>
      </trkpt>
      <trkpt lat="48.35159" lon="-0.28328">
        <ele>248</ele>
        <time>2014-09-09T08:35:39Z</time>
      </trkpt>
      <trkpt lat="48.3514" lon="-0.28297">
        <ele>247</ele>
        <time>2014-09-09T08:35:45Z</time>
      </trkpt>
      <trkpt lat="48.3513" lon="-0.28281">
        <ele>246</ele>
        <time>2014-09-09T08:35:48Z</time>
      </trkpt>
      <trkpt lat="48.35117" lon="-0.2826">
        <ele>246</ele>
        <time>2014-09-09T08:35:52Z</time>
      </trkpt>
      <trkpt lat="48.35095" lon="-0.28227">
        <ele>245</ele>
        <time>2014-09-09T08:35:58Z</time>
      </trkpt>
      <trkpt lat="48.35077" lon="-0.282">
        <ele>244</ele>
        <time>2014-09-09T08:36:03Z</time>
      </trkpt>
      <trkpt lat="48.35061" lon="-0.28174">
        <ele>245</ele>
        <time>2014-09-09T08:36:08Z</time>
      </trkpt>
      <trkpt lat="48.35045" lon="-0.28148">
        <ele>245</ele>
        <time>2014-09-09T08:36:13Z</time>
      </trkpt>
      <trkpt lat="48.35026" lon="-0.28119">
        <ele>245</ele>
        <time>2014-09-09T08:36:19Z</time>
      </trkpt>
      <trkpt lat="48.35017" lon="-0.28105">
        <ele>245</ele>
        <time>2014-09-09T08:36:22Z</time>
      </trkpt>
      <trkpt lat="48.35" lon="-0.28079">
        <ele>241</ele>
        <time>2014-09-09T08:36:28Z</time>
      </trkpt>
      <trkpt lat="48.34982" lon="-0.28049">
        <ele>242</ele>
        <time>2014-09-09T08:36:34Z</time>
      </trkpt>
      <trkpt lat="48.34967" lon="-0.28014">
        <ele>243</ele>
        <time>2014-09-09T08:36:41Z</time>
      </trkpt>
      <trkpt lat="48.34951" lon="-0.27996">
        <ele>242</ele>
        <time>2014-09-09T08:36:47Z</time>
      </trkpt>
      <trkpt lat="48.34934" lon="-0.27966">
        <ele>243</ele>
        <time>2014-09-09T08:36:53Z</time>
      </trkpt>
      <trkpt lat="48.34925" lon="-0.27953">
        <ele>242</ele>
        <time>2014-09-09T08:36:56Z</time>
      </trkpt>
      <trkpt lat="48.34915" lon="-0.27943">
        <ele>242</ele>
        <time>2014-09-09T08:37:00Z</time>
      </trkpt>
      <trkpt lat="48.34903" lon="-0.27934">
        <ele>244</ele>
        <time>2014-09-09T08:37:03Z</time>
      </trkpt>
      <trkpt lat="48.34885" lon="-0.27925">
        <ele>245</ele>
        <time>2014-09-09T08:37:07Z</time>
      </trkpt>
      <trkpt lat="48.34859" lon="-0.27913">
        <ele>242</ele>
        <time>2014-09-09T08:37:14Z</time>
      </trkpt>
      <trkpt lat="48.34837" lon="-0.27905">
        <ele>242</ele>
        <time>2014-09-09T08:37:20Z</time>
      </trkpt>
      <trkpt lat="48.34827" lon="-0.27901">
        <ele>242</ele>
        <time>2014-09-09T08:37:23Z</time>
      </trkpt>
      <trkpt lat="48.34802" lon="-0.27888">
        <ele>248</ele>
        <time>2014-09-09T08:37:30Z</time>
      </trkpt>
      <trkpt lat="48.34774" lon="-0.2788">
        <ele>248</ele>
        <time>2014-09-09T08:37:38Z</time>
      </trkpt>
      <trkpt lat="48.34747" lon="-0.27866">
        <ele>242</ele>
        <time>2014-09-09T08:37:44Z</time>
      </trkpt>
      <trkpt lat="48.34731" lon="-0.27859">
        <ele>242</ele>
        <time>2014-09-09T08:37:47Z</time>
      </trkpt>
      <trkpt lat="48.34711" lon="-0.2785">
        <ele>244</ele>
        <time>2014-09-09T08:37:52Z</time>
      </trkpt>
      <trkpt lat="48.34689" lon="-0.27841">
        <ele>246</ele>
        <time>2014-09-09T08:37:58Z</time>
      </trkpt>
      <trkpt lat="48.34668" lon="-0.27831">
        <ele>245</ele>
        <time>2014-09-09T08:38:03Z</time>
      </trkpt>
      <trkpt lat="48.34643" lon="-0.27819">
        <ele>235</ele>
        <time>2014-09-09T08:38:09Z</time>
      </trkpt>
      <trkpt lat="48.34624" lon="-0.27809">
        <ele>235</ele>
        <time>2014-09-09T08:38:14Z</time>
      </trkpt>
      <trkpt lat="48.34597" lon="-0.27815">
        <ele>236</ele>
        <time>2014-09-09T08:38:21Z</time>
      </trkpt>
      <trkpt lat="48.34585" lon="-0.2784">
        <ele>232</ele>
        <time>2014-09-09T08:38:26Z</time>
      </trkpt>
      <trkpt lat="48.34573" lon="-0.27866">
        <ele>235</ele>
        <time>2014-09-09T08:38:31Z</time>
      </trkpt>
      <trkpt lat="48.34558" lon="-0.27896">
        <ele>234</ele>
        <time>2014-09-09T08:38:37Z</time>
      </trkpt>
      <trkpt lat="48.34547" lon="-0.27919">
        <ele>233</ele>
        <time>2014-09-09T08:38:42Z</time>
      </trkpt>
      <trkpt lat="48.34532" lon="-0.27948">
        <ele>235</ele>
        <time>2014-09-09T08:38:48Z</time>
      </trkpt>
      <trkpt lat="48.34516" lon="-0.27975">
        <ele>236</ele>
        <time>2014-09-09T08:38:54Z</time>
      </trkpt>
      <trkpt lat="48.3451" lon="-0.27987">
        <ele>233</ele>
        <time>2014-09-09T08:38:57Z</time>
      </trkpt>
      <trkpt lat="48.34497" lon="-0.28017">
        <ele>235</ele>
        <time>2014-09-09T08:39:03Z</time>
      </trkpt>
      <trkpt lat="48.34473" lon="-0.28055">
        <ele>238</ele>
        <time>2014-09-09T08:39:11Z</time>
      </trkpt>
      <trkpt lat="48.34456" lon="-0.28087">
        <ele>238</ele>
        <time>2014-09-09T08:39:17Z</time>
      </trkpt>
      <trkpt lat="48.34444" lon="-0.28114">
        <ele>241</ele>
        <time>2014-09-09T08:39:22Z</time>
      </trkpt>
      <trkpt lat="48.3443" lon="-0.28146">
        <ele>246</ele>
        <time>2014-09-09T08:39:29Z</time>
      </trkpt>
      <trkpt lat="48.34415" lon="-0.28175">
        <ele>238</ele>
        <time>2014-09-09T08:39:36Z</time>
      </trkpt>
      <trkpt lat="48.34403" lon="-0.28199">
        <ele>239</ele>
        <time>2014-09-09T08:39:41Z</time>
      </trkpt>
      <trkpt lat="48.34395" lon="-0.28218">
        <ele>239</ele>
        <time>2014-09-09T08:39:45Z</time>
      </trkpt>
      <trkpt lat="48.34383" lon="-0.28241">
        <ele>239</ele>
        <time>2014-09-09T08:39:50Z</time>
      </trkpt>
      <trkpt lat="48.34363" lon="-0.28273">
        <ele>243</ele>
        <time>2014-09-09T08:39:57Z</time>
      </trkpt>
      <trkpt lat="48.34345" lon="-0.28303">
        <ele>243</ele>
        <time>2014-09-09T08:40:04Z</time>
      </trkpt>
      <trkpt lat="48.34326" lon="-0.28323">
        <ele>241</ele>
        <time>2014-09-09T08:40:10Z</time>
      </trkpt>
      <trkpt lat="48.34303" lon="-0.28335">
        <ele>245</ele>
        <time>2014-09-09T08:40:17Z</time>
      </trkpt>
      <trkpt lat="48.34275" lon="-0.28342">
        <ele>242</ele>
        <time>2014-09-09T08:40:24Z</time>
      </trkpt>
      <trkpt lat="48.34251" lon="-0.28348">
        <ele>240</ele>
        <time>2014-09-09T08:40:30Z</time>
      </trkpt>
      <trkpt lat="48.34227" lon="-0.2836">
        <ele>245</ele>
        <time>2014-09-09T08:40:37Z</time>
      </trkpt>
      <trkpt lat="48.34212" lon="-0.28372">
        <ele>250</ele>
        <time>2014-09-09T08:40:43Z</time>
      </trkpt>
      <trkpt lat="48.34183" lon="-0.28393">
        <ele>249</ele>
        <time>2014-09-09T08:40:50Z</time>
      </trkpt>
      <trkpt lat="48.34167" lon="-0.28404">
        <ele>250</ele>
        <time>2014-09-09T08:40:55Z</time>
      </trkpt>
      <trkpt lat="48.3415" lon="-0.28416">
        <ele>247</ele>
        <time>2014-09-09T08:41:00Z</time>
      </trkpt>
      <trkpt lat="48.34128" lon="-0.28433">
        <ele>249</ele>
        <time>2014-09-09T08:41:06Z</time>
      </trkpt>
      <trkpt lat="48.34112" lon="-0.28442">
        <ele>251</ele>
        <time>2014-09-09T08:41:11Z</time>
      </trkpt>
      <trkpt lat="48.34087" lon="-0.28449">
        <ele>254</ele>
        <time>2014-09-09T08:41:20Z</time>
      </trkpt>
      <trkpt lat="48.34059" lon="-0.28456">
        <ele>246</ele>
        <time>2014-09-09T08:41:27Z</time>
      </trkpt>
      <trkpt lat="48.34036" lon="-0.28465">
        <ele>245</ele>
        <time>2014-09-09T08:41:32Z</time>
      </trkpt>
      <trkpt lat="48.34012" lon="-0.28472">
        <ele>246</ele>
        <time>2014-09-09T08:41:38Z</time>
      </trkpt>
      <trkpt lat="48.33994" lon="-0.28478">
        <ele>245</ele>
        <time>2014-09-09T08:41:43Z</time>
      </trkpt>
      <trkpt lat="48.33981" lon="-0.28483">
        <ele>243</ele>
        <time>2014-09-09T08:41:47Z</time>
      </trkpt>
      <trkpt lat="48.33972" lon="-0.28486">
        <ele>244</ele>
        <time>2014-09-09T08:41:50Z</time>
      </trkpt>
      <trkpt lat="48.33967" lon="-0.28487">
        <ele>244</ele>
        <time>2014-09-09T08:41:52Z</time>
      </trkpt>
      <trkpt lat="48.33967" lon="-0.28487">
        <ele>196.8</ele>
        <time>2014-09-09T08:41:58Z</time>
      </trkpt>
      <trkpt lat="48.33967" lon="-0.28487">
        <ele>196.8</ele>
        <time>2014-09-09T08:42:25Z</time>
      </trkpt>
      <trkpt lat="48.33951" lon="-0.28495">
        <ele>248</ele>
        <time>2014-09-09T08:42:25Z</time>
      </trkpt>
      <trkpt lat="48.3393" lon="-0.28501">
        <ele>243</ele>
        <time>2014-09-09T08:42:31Z</time>
      </trkpt>
      <trkpt lat="48.33907" lon="-0.28504">
        <ele>254</ele>
        <time>2014-09-09T08:42:39Z</time>
      </trkpt>
      <trkpt lat="48.33874" lon="-0.28518">
        <ele>269</ele>
        <time>2014-09-09T08:42:50Z</time>
      </trkpt>
      <trkpt lat="48.33857" lon="-0.28536">
        <ele>272</ele>
        <time>2014-09-09T08:42:56Z</time>
      </trkpt>
      <trkpt lat="48.33827" lon="-0.28559">
        <ele>246</ele>
        <time>2014-09-09T08:43:01Z</time>
      </trkpt>
      <trkpt lat="48.33817" lon="-0.28569">
        <ele>238</ele>
        <time>2014-09-09T08:43:04Z</time>
      </trkpt>
      <trkpt lat="48.33799" lon="-0.28593">
        <ele>236</ele>
        <time>2014-09-09T08:43:10Z</time>
      </trkpt>
      <trkpt lat="48.33778" lon="-0.28621">
        <ele>235</ele>
        <time>2014-09-09T08:43:17Z</time>
      </trkpt>
      <trkpt lat="48.33759" lon="-0.2864">
        <ele>233</ele>
        <time>2014-09-09T08:43:23Z</time>
      </trkpt>
      <trkpt lat="48.33739" lon="-0.28653">
        <ele>233</ele>
        <time>2014-09-09T08:43:28Z</time>
      </trkpt>
      <trkpt lat="48.33705" lon="-0.28667">
        <ele>231</ele>
        <time>2014-09-09T08:43:36Z</time>
      </trkpt>
      <trkpt lat="48.33683" lon="-0.28668">
        <ele>231</ele>
        <time>2014-09-09T08:43:41Z</time>
      </trkpt>
      <trkpt lat="48.3366" lon="-0.28669">
        <ele>229</ele>
        <time>2014-09-09T08:43:46Z</time>
      </trkpt>
      <trkpt lat="48.33631" lon="-0.28676">
        <ele>224</ele>
        <time>2014-09-09T08:43:52Z</time>
      </trkpt>
      <trkpt lat="48.336" lon="-0.28683">
        <ele>223</ele>
        <time>2014-09-09T08:43:58Z</time>
      </trkpt>
      <trkpt lat="48.33576" lon="-0.28682">
        <ele>221</ele>
        <time>2014-09-09T08:44:03Z</time>
      </trkpt>
      <trkpt lat="48.33552" lon="-0.28684">
        <ele>223</ele>
        <time>2014-09-09T08:44:10Z</time>
      </trkpt>
      <trkpt lat="48.33524" lon="-0.28679">
        <ele>227</ele>
        <time>2014-09-09T08:44:20Z</time>
      </trkpt>
      <trkpt lat="48.33489" lon="-0.28681">
        <ele>221</ele>
        <time>2014-09-09T08:44:28Z</time>
      </trkpt>
      <trkpt lat="48.33449" lon="-0.28691">
        <ele>218</ele>
        <time>2014-09-09T08:44:34Z</time>
      </trkpt>
      <trkpt lat="48.33426" lon="-0.28698">
        <ele>217</ele>
        <time>2014-09-09T08:44:37Z</time>
      </trkpt>
      <trkpt lat="48.33384" lon="-0.28713">
        <ele>215</ele>
        <time>2014-09-09T08:44:42Z</time>
      </trkpt>
      <trkpt lat="48.33343" lon="-0.2873">
        <ele>215</ele>
        <time>2014-09-09T08:44:47Z</time>
      </trkpt>
      <trkpt lat="48.3332" lon="-0.2874">
        <ele>214</ele>
        <time>2014-09-09T08:44:51Z</time>
      </trkpt>
      <trkpt lat="48.33273" lon="-0.28772">
        <ele>211</ele>
        <time>2014-09-09T08:44:57Z</time>
      </trkpt>
      <trkpt lat="48.33258" lon="-0.28788">
        <ele>211</ele>
        <time>2014-09-09T08:45:00Z</time>
      </trkpt>
      <trkpt lat="48.33233" lon="-0.28826">
        <ele>213</ele>
        <time>2014-09-09T08:45:08Z</time>
      </trkpt>
      <trkpt lat="48.33221" lon="-0.28852">
        <ele>212</ele>
        <time>2014-09-09T08:45:13Z</time>
      </trkpt>
      <trkpt lat="48.33215" lon="-0.28867">
        <ele>213</ele>
        <time>2014-09-09T08:45:16Z</time>
      </trkpt>
      <trkpt lat="48.33206" lon="-0.28904">
        <ele>219</ele>
        <time>2014-09-09T08:45:23Z</time>
      </trkpt>
      <trkpt lat="48.33196" lon="-0.28934">
        <ele>217</ele>
        <time>2014-09-09T08:45:29Z</time>
      </trkpt>
      <trkpt lat="48.33181" lon="-0.28966">
        <ele>219</ele>
        <time>2014-09-09T08:45:36Z</time>
      </trkpt>
      <trkpt lat="48.33168" lon="-0.28993">
        <ele>219</ele>
        <time>2014-09-09T08:45:42Z</time>
      </trkpt>
      <trkpt lat="48.33152" lon="-0.29023">
        <ele>219</ele>
        <time>2014-09-09T08:45:49Z</time>
      </trkpt>
      <trkpt lat="48.33135" lon="-0.29059">
        <ele>220</ele>
        <time>2014-09-09T08:45:57Z</time>
      </trkpt>
      <trkpt lat="48.33124" lon="-0.29081">
        <ele>221</ele>
        <time>2014-09-09T08:46:02Z</time>
      </trkpt>
      <trkpt lat="48.3311" lon="-0.29113">
        <ele>222</ele>
        <time>2014-09-09T08:46:09Z</time>
      </trkpt>
      <trkpt lat="48.33105" lon="-0.29127">
        <ele>221</ele>
        <time>2014-09-09T08:46:12Z</time>
      </trkpt>
      <trkpt lat="48.33097" lon="-0.2915">
        <ele>222</ele>
        <time>2014-09-09T08:46:17Z</time>
      </trkpt>
      <trkpt lat="48.3309" lon="-0.29172">
        <ele>222</ele>
        <time>2014-09-09T08:46:22Z</time>
      </trkpt>
      <trkpt lat="48.3308" lon="-0.29201">
        <ele>223</ele>
        <time>2014-09-09T08:46:29Z</time>
      </trkpt>
      <trkpt lat="48.33072" lon="-0.29223">
        <ele>222</ele>
        <time>2014-09-09T08:46:34Z</time>
      </trkpt>
      <trkpt lat="48.33063" lon="-0.29252">
        <ele>222</ele>
        <time>2014-09-09T08:46:40Z</time>
      </trkpt>
      <trkpt lat="48.33052" lon="-0.29279">
        <ele>227</ele>
        <time>2014-09-09T08:46:47Z</time>
      </trkpt>
      <trkpt lat="48.33041" lon="-0.29311">
        <ele>226</ele>
        <time>2014-09-09T08:46:53Z</time>
      </trkpt>
      <trkpt lat="48.33036" lon="-0.29324">
        <ele>227</ele>
        <time>2014-09-09T08:46:56Z</time>
      </trkpt>
      <trkpt lat="48.33031" lon="-0.29338">
        <ele>227</ele>
        <time>2014-09-09T08:46:59Z</time>
      </trkpt>
      <trkpt lat="48.33026" lon="-0.29352">
        <ele>227</ele>
        <time>2014-09-09T08:47:02Z</time>
      </trkpt>
      <trkpt lat="48.33018" lon="-0.29376">
        <ele>225</ele>
        <time>2014-09-09T08:47:07Z</time>
      </trkpt>
      <trkpt lat="48.33009" lon="-0.29403">
        <ele>225</ele>
        <time>2014-09-09T08:47:13Z</time>
      </trkpt>
      <trkpt lat="48.32998" lon="-0.29436">
        <ele>225</ele>
        <time>2014-09-09T08:47:20Z</time>
      </trkpt>
      <trkpt lat="48.32985" lon="-0.29474">
        <ele>225</ele>
        <time>2014-09-09T08:47:28Z</time>
      </trkpt>
      <trkpt lat="48.32974" lon="-0.29507">
        <ele>226</ele>
        <time>2014-09-09T08:47:35Z</time>
      </trkpt>
      <trkpt lat="48.32962" lon="-0.29545">
        <ele>225</ele>
        <time>2014-09-09T08:47:43Z</time>
      </trkpt>
      <trkpt lat="48.32953" lon="-0.29574">
        <ele>225</ele>
        <time>2014-09-09T08:47:48Z</time>
      </trkpt>
      <trkpt lat="48.32949" lon="-0.2959">
        <ele>226</ele>
        <time>2014-09-09T08:47:52Z</time>
      </trkpt>
      <trkpt lat="48.32942" lon="-0.29614">
        <ele>228</ele>
        <time>2014-09-09T08:47:57Z</time>
      </trkpt>
      <trkpt lat="48.32937" lon="-0.2963">
        <ele>229</ele>
        <time>2014-09-09T08:48:00Z</time>
      </trkpt>
      <trkpt lat="48.3293" lon="-0.29655">
        <ele>228</ele>
        <time>2014-09-09T08:48:05Z</time>
      </trkpt>
      <trkpt lat="48.32919" lon="-0.29688">
        <ele>228</ele>
        <time>2014-09-09T08:48:12Z</time>
      </trkpt>
      <trkpt lat="48.32905" lon="-0.2972">
        <ele>228</ele>
        <time>2014-09-09T08:48:19Z</time>
      </trkpt>
      <trkpt lat="48.32893" lon="-0.29741">
        <ele>229</ele>
        <time>2014-09-09T08:48:24Z</time>
      </trkpt>
      <trkpt lat="48.3288" lon="-0.29762">
        <ele>230</ele>
        <time>2014-09-09T08:48:29Z</time>
      </trkpt>
      <trkpt lat="48.32867" lon="-0.29782">
        <ele>232</ele>
        <time>2014-09-09T08:48:34Z</time>
      </trkpt>
      <trkpt lat="48.32852" lon="-0.29803">
        <ele>232</ele>
        <time>2014-09-09T08:48:41Z</time>
      </trkpt>
      <trkpt lat="48.32833" lon="-0.29811">
        <ele>233</ele>
        <time>2014-09-09T08:48:47Z</time>
      </trkpt>
      <trkpt lat="48.32814" lon="-0.2981">
        <ele>232</ele>
        <time>2014-09-09T08:48:53Z</time>
      </trkpt>
      <trkpt lat="48.32791" lon="-0.29802">
        <ele>230</ele>
        <time>2014-09-09T08:48:58Z</time>
      </trkpt>
      <trkpt lat="48.32761" lon="-0.29788">
        <ele>229</ele>
        <time>2014-09-09T08:49:03Z</time>
      </trkpt>
      <trkpt lat="48.3274" lon="-0.29776">
        <ele>230</ele>
        <time>2014-09-09T08:49:06Z</time>
      </trkpt>
      <trkpt lat="48.3272" lon="-0.29767">
        <ele>228</ele>
        <time>2014-09-09T08:49:09Z</time>
      </trkpt>
      <trkpt lat="48.327" lon="-0.2976">
        <ele>227</ele>
        <time>2014-09-09T08:49:12Z</time>
      </trkpt>
      <trkpt lat="48.32664" lon="-0.29768">
        <ele>227</ele>
        <time>2014-09-09T08:49:18Z</time>
      </trkpt>
      <trkpt lat="48.32641" lon="-0.29787">
        <ele>226</ele>
        <time>2014-09-09T08:49:24Z</time>
      </trkpt>
      <trkpt lat="48.32619" lon="-0.29809">
        <ele>228</ele>
        <time>2014-09-09T08:49:31Z</time>
      </trkpt>
      <trkpt lat="48.32609" lon="-0.29819">
        <ele>228</ele>
        <time>2014-09-09T08:49:34Z</time>
      </trkpt>
      <trkpt lat="48.3258" lon="-0.29845">
        <ele>229</ele>
        <time>2014-09-09T08:49:43Z</time>
      </trkpt>
      <trkpt lat="48.32556" lon="-0.29862">
        <ele>231</ele>
        <time>2014-09-09T08:49:50Z</time>
      </trkpt>
      <trkpt lat="48.32546" lon="-0.29868">
        <ele>230</ele>
        <time>2014-09-09T08:49:53Z</time>
      </trkpt>
      <trkpt lat="48.32525" lon="-0.2988">
        <ele>232</ele>
        <time>2014-09-09T08:49:59Z</time>
      </trkpt>
      <trkpt lat="48.32509" lon="-0.29889">
        <ele>232</ele>
        <time>2014-09-09T08:50:04Z</time>
      </trkpt>
      <trkpt lat="48.32499" lon="-0.29896">
        <ele>233</ele>
        <time>2014-09-09T08:50:07Z</time>
      </trkpt>
      <trkpt lat="48.32476" lon="-0.29908">
        <ele>235</ele>
        <time>2014-09-09T08:50:14Z</time>
      </trkpt>
      <trkpt lat="48.32453" lon="-0.29922">
        <ele>238</ele>
        <time>2014-09-09T08:50:21Z</time>
      </trkpt>
      <trkpt lat="48.32442" lon="-0.29928">
        <ele>236</ele>
        <time>2014-09-09T08:50:24Z</time>
      </trkpt>
      <trkpt lat="48.3242" lon="-0.29938">
        <ele>238</ele>
        <time>2014-09-09T08:50:30Z</time>
      </trkpt>
      <trkpt lat="48.32394" lon="-0.29946">
        <ele>238</ele>
        <time>2014-09-09T08:50:37Z</time>
      </trkpt>
      <trkpt lat="48.32377" lon="-0.29955">
        <ele>239</ele>
        <time>2014-09-09T08:50:42Z</time>
      </trkpt>
      <trkpt lat="48.32351" lon="-0.2998">
        <ele>240</ele>
        <time>2014-09-09T08:50:50Z</time>
      </trkpt>
      <trkpt lat="48.32333" lon="-0.30004">
        <ele>241</ele>
        <time>2014-09-09T08:50:57Z</time>
      </trkpt>
      <trkpt lat="48.32311" lon="-0.30023">
        <ele>246</ele>
        <time>2014-09-09T08:51:04Z</time>
      </trkpt>
      <trkpt lat="48.32284" lon="-0.30037">
        <ele>244</ele>
        <time>2014-09-09T08:51:11Z</time>
      </trkpt>
      <trkpt lat="48.32275" lon="-0.30042">
        <ele>244</ele>
        <time>2014-09-09T08:51:14Z</time>
      </trkpt>
      <trkpt lat="48.32265" lon="-0.30048">
        <ele>246</ele>
        <time>2014-09-09T08:51:17Z</time>
      </trkpt>
      <trkpt lat="48.32256" lon="-0.30054">
        <ele>246</ele>
        <time>2014-09-09T08:51:20Z</time>
      </trkpt>
      <trkpt lat="48.32245" lon="-0.30061">
        <ele>245</ele>
        <time>2014-09-09T08:51:23Z</time>
      </trkpt>
      <trkpt lat="48.32227" lon="-0.30071">
        <ele>244</ele>
        <time>2014-09-09T08:51:28Z</time>
      </trkpt>
      <trkpt lat="48.32204" lon="-0.30086">
        <ele>246</ele>
        <time>2014-09-09T08:51:35Z</time>
      </trkpt>
      <trkpt lat="48.32183" lon="-0.30103">
        <ele>248</ele>
        <time>2014-09-09T08:51:42Z</time>
      </trkpt>
      <trkpt lat="48.32161" lon="-0.30124">
        <ele>248</ele>
        <time>2014-09-09T08:51:49Z</time>
      </trkpt>
      <trkpt lat="48.32152" lon="-0.30134">
        <ele>247</ele>
        <time>2014-09-09T08:51:52Z</time>
      </trkpt>
      <trkpt lat="48.32134" lon="-0.30154">
        <ele>247</ele>
        <time>2014-09-09T08:51:58Z</time>
      </trkpt>
      <trkpt lat="48.32124" lon="-0.30166">
        <ele>248</ele>
        <time>2014-09-09T08:52:01Z</time>
      </trkpt>
      <trkpt lat="48.32112" lon="-0.30182">
        <ele>247</ele>
        <time>2014-09-09T08:52:05Z</time>
      </trkpt>
      <trkpt lat="48.32103" lon="-0.30193">
        <ele>247</ele>
        <time>2014-09-09T08:52:08Z</time>
      </trkpt>
      <trkpt lat="48.32084" lon="-0.30214">
        <ele>250</ele>
        <time>2014-09-09T08:52:14Z</time>
      </trkpt>
      <trkpt lat="48.32064" lon="-0.30231">
        <ele>249</ele>
        <time>2014-09-09T08:52:20Z</time>
      </trkpt>
      <trkpt lat="48.32046" lon="-0.30243">
        <ele>250</ele>
        <time>2014-09-09T08:52:26Z</time>
      </trkpt>
      <trkpt lat="48.3202" lon="-0.30258">
        <ele>248</ele>
        <time>2014-09-09T08:52:32Z</time>
      </trkpt>
      <trkpt lat="48.32009" lon="-0.30263">
        <ele>249</ele>
        <time>2014-09-09T08:52:35Z</time>
      </trkpt>
      <trkpt lat="48.31997" lon="-0.30267">
        <ele>249</ele>
        <time>2014-09-09T08:52:38Z</time>
      </trkpt>
      <trkpt lat="48.31986" lon="-0.30271">
        <ele>250</ele>
        <time>2014-09-09T08:52:41Z</time>
      </trkpt>
      <trkpt lat="48.31967" lon="-0.30278">
        <ele>250</ele>
        <time>2014-09-09T08:52:46Z</time>
      </trkpt>
      <trkpt lat="48.31939" lon="-0.30288">
        <ele>251</ele>
        <time>2014-09-09T08:52:53Z</time>
      </trkpt>
      <trkpt lat="48.31914" lon="-0.30297">
        <ele>251</ele>
        <time>2014-09-09T08:52:59Z</time>
      </trkpt>
      <trkpt lat="48.31901" lon="-0.30301">
        <ele>252</ele>
        <time>2014-09-09T08:53:02Z</time>
      </trkpt>
      <trkpt lat="48.3188" lon="-0.30309">
        <ele>252</ele>
        <time>2014-09-09T08:53:07Z</time>
      </trkpt>
      <trkpt lat="48.31868" lon="-0.30314">
        <ele>252</ele>
        <time>2014-09-09T08:53:10Z</time>
      </trkpt>
      <trkpt lat="48.31859" lon="-0.30318">
        <ele>252</ele>
        <time>2014-09-09T08:53:13Z</time>
      </trkpt>
      <trkpt lat="48.3185" lon="-0.30324">
        <ele>252</ele>
        <time>2014-09-09T08:53:16Z</time>
      </trkpt>
      <trkpt lat="48.31826" lon="-0.30344">
        <ele>250</ele>
        <time>2014-09-09T08:53:23Z</time>
      </trkpt>
      <trkpt lat="48.31812" lon="-0.30361">
        <ele>250</ele>
        <time>2014-09-09T08:53:28Z</time>
      </trkpt>
      <trkpt lat="48.31801" lon="-0.30378">
        <ele>250</ele>
        <time>2014-09-09T08:53:32Z</time>
      </trkpt>
      <trkpt lat="48.31783" lon="-0.30402">
        <ele>252</ele>
        <time>2014-09-09T08:53:38Z</time>
      </trkpt>
      <trkpt lat="48.31775" lon="-0.30413">
        <ele>252</ele>
        <time>2014-09-09T08:53:41Z</time>
      </trkpt>
      <trkpt lat="48.31753" lon="-0.30438">
        <ele>253</ele>
        <time>2014-09-09T08:53:48Z</time>
      </trkpt>
      <trkpt lat="48.31739" lon="-0.3045">
        <ele>253</ele>
        <time>2014-09-09T08:53:53Z</time>
      </trkpt>
      <trkpt lat="48.31737" lon="-0.30452">
        <ele>253</ele>
        <time>2014-09-09T08:53:55Z</time>
      </trkpt>
      <trkpt lat="48.31737" lon="-0.30452">
        <ele>205</ele>
        <time>2014-09-09T08:54:00Z</time>
      </trkpt>
      <trkpt lat="48.31737" lon="-0.30452">
        <ele>205</ele>
        <time>2014-09-09T08:56:16Z</time>
      </trkpt>
      <trkpt lat="48.31726" lon="-0.3046">
        <ele>252</ele>
        <time>2014-09-09T08:56:16Z</time>
      </trkpt>
      <trkpt lat="48.31707" lon="-0.30473">
        <ele>253</ele>
        <time>2014-09-09T08:56:24Z</time>
      </trkpt>
      <trkpt lat="48.31694" lon="-0.30484">
        <ele>251</ele>
        <time>2014-09-09T08:56:29Z</time>
      </trkpt>
      <trkpt lat="48.3167" lon="-0.30504">
        <ele>253</ele>
        <time>2014-09-09T08:56:37Z</time>
      </trkpt>
      <trkpt lat="48.31661" lon="-0.3051">
        <ele>253</ele>
        <time>2014-09-09T08:56:40Z</time>
      </trkpt>
      <trkpt lat="48.31652" lon="-0.30517">
        <ele>253</ele>
        <time>2014-09-09T08:56:43Z</time>
      </trkpt>
      <trkpt lat="48.31629" lon="-0.30536">
        <ele>253</ele>
        <time>2014-09-09T08:56:51Z</time>
      </trkpt>
      <trkpt lat="48.31609" lon="-0.30551">
        <ele>253</ele>
        <time>2014-09-09T08:56:57Z</time>
      </trkpt>
      <trkpt lat="48.31598" lon="-0.30559">
        <ele>252</ele>
        <time>2014-09-09T08:57:00Z</time>
      </trkpt>
      <trkpt lat="48.31576" lon="-0.30576">
        <ele>253</ele>
        <time>2014-09-09T08:57:06Z</time>
      </trkpt>
      <trkpt lat="48.31566" lon="-0.30584">
        <ele>252</ele>
        <time>2014-09-09T08:57:09Z</time>
      </trkpt>
      <trkpt lat="48.31556" lon="-0.30591">
        <ele>252</ele>
        <time>2014-09-09T08:57:12Z</time>
      </trkpt>
      <trkpt lat="48.31546" lon="-0.30598">
        <ele>251</ele>
        <time>2014-09-09T08:57:15Z</time>
      </trkpt>
      <trkpt lat="48.31535" lon="-0.30605">
        <ele>252</ele>
        <time>2014-09-09T08:57:18Z</time>
      </trkpt>
      <trkpt lat="48.31513" lon="-0.30618">
        <ele>252</ele>
        <time>2014-09-09T08:57:24Z</time>
      </trkpt>
      <trkpt lat="48.3149" lon="-0.30632">
        <ele>251</ele>
        <time>2014-09-09T08:57:30Z</time>
      </trkpt>
      <trkpt lat="48.31467" lon="-0.30647">
        <ele>251</ele>
        <time>2014-09-09T08:57:36Z</time>
      </trkpt>
      <trkpt lat="48.31456" lon="-0.30655">
        <ele>250</ele>
        <time>2014-09-09T08:57:39Z</time>
      </trkpt>
      <trkpt lat="48.31436" lon="-0.30678">
        <ele>250</ele>
        <time>2014-09-09T08:57:45Z</time>
      </trkpt>
      <trkpt lat="48.31427" lon="-0.3069">
        <ele>252</ele>
        <time>2014-09-09T08:57:48Z</time>
      </trkpt>
      <trkpt lat="48.31419" lon="-0.30705">
        <ele>251</ele>
        <time>2014-09-09T08:57:51Z</time>
      </trkpt>
      <trkpt lat="48.314" lon="-0.30728">
        <ele>251</ele>
        <time>2014-09-09T08:57:57Z</time>
      </trkpt>
      <trkpt lat="48.31383" lon="-0.30742">
        <ele>251</ele>
        <time>2014-09-09T08:58:02Z</time>
      </trkpt>
      <trkpt lat="48.31357" lon="-0.30752">
        <ele>253</ele>
        <time>2014-09-09T08:58:08Z</time>
      </trkpt>
      <trkpt lat="48.31337" lon="-0.3076">
        <ele>253</ele>
        <time>2014-09-09T08:58:13Z</time>
      </trkpt>
      <trkpt lat="48.31316" lon="-0.30773">
        <ele>255</ele>
        <time>2014-09-09T08:58:19Z</time>
      </trkpt>
      <trkpt lat="48.31294" lon="-0.3079">
        <ele>256</ele>
        <time>2014-09-09T08:58:25Z</time>
      </trkpt>
      <trkpt lat="48.31283" lon="-0.30801">
        <ele>255</ele>
        <time>2014-09-09T08:58:28Z</time>
      </trkpt>
      <trkpt lat="48.31266" lon="-0.30818">
        <ele>256</ele>
        <time>2014-09-09T08:58:33Z</time>
      </trkpt>
      <trkpt lat="48.31244" lon="-0.30839">
        <ele>256</ele>
        <time>2014-09-09T08:58:40Z</time>
      </trkpt>
      <trkpt lat="48.31221" lon="-0.30861">
        <ele>257</ele>
        <time>2014-09-09T08:58:46Z</time>
      </trkpt>
      <trkpt lat="48.31206" lon="-0.30874">
        <ele>259</ele>
        <time>2014-09-09T08:58:49Z</time>
      </trkpt>
      <trkpt lat="48.31177" lon="-0.30884">
        <ele>259</ele>
        <time>2014-09-09T08:58:56Z</time>
      </trkpt>
      <trkpt lat="48.31151" lon="-0.30901">
        <ele>263</ele>
        <time>2014-09-09T08:59:02Z</time>
      </trkpt>
      <trkpt lat="48.31139" lon="-0.30912">
        <ele>265</ele>
        <time>2014-09-09T08:59:05Z</time>
      </trkpt>
      <trkpt lat="48.31121" lon="-0.30926">
        <ele>264</ele>
        <time>2014-09-09T08:59:10Z</time>
      </trkpt>
      <trkpt lat="48.31108" lon="-0.30934">
        <ele>266</ele>
        <time>2014-09-09T08:59:13Z</time>
      </trkpt>
      <trkpt lat="48.31086" lon="-0.30943">
        <ele>268</ele>
        <time>2014-09-09T08:59:18Z</time>
      </trkpt>
      <trkpt lat="48.31067" lon="-0.30954">
        <ele>267</ele>
        <time>2014-09-09T08:59:23Z</time>
      </trkpt>
      <trkpt lat="48.31043" lon="-0.30964">
        <ele>267</ele>
        <time>2014-09-09T08:59:29Z</time>
      </trkpt>
      <trkpt lat="48.31028" lon="-0.3097">
        <ele>269</ele>
        <time>2014-09-09T08:59:32Z</time>
      </trkpt>
      <trkpt lat="48.31007" lon="-0.30982">
        <ele>269</ele>
        <time>2014-09-09T08:59:38Z</time>
      </trkpt>
      <trkpt lat="48.30991" lon="-0.30994">
        <ele>270</ele>
        <time>2014-09-09T08:59:43Z</time>
      </trkpt>
      <trkpt lat="48.30973" lon="-0.31017">
        <ele>266</ele>
        <time>2014-09-09T08:59:50Z</time>
      </trkpt>
      <trkpt lat="48.30955" lon="-0.31047">
        <ele>271</ele>
        <time>2014-09-09T08:59:58Z</time>
      </trkpt>
      <trkpt lat="48.30936" lon="-0.31079">
        <ele>272</ele>
        <time>2014-09-09T09:00:05Z</time>
      </trkpt>
      <trkpt lat="48.30927" lon="-0.31096">
        <ele>268</ele>
        <time>2014-09-09T09:00:10Z</time>
      </trkpt>
      <trkpt lat="48.30908" lon="-0.3113">
        <ele>270</ele>
        <time>2014-09-09T09:00:18Z</time>
      </trkpt>
      <trkpt lat="48.30891" lon="-0.31158">
        <ele>269</ele>
        <time>2014-09-09T09:00:24Z</time>
      </trkpt>
      <trkpt lat="48.30871" lon="-0.31192">
        <ele>268</ele>
        <time>2014-09-09T09:00:31Z</time>
      </trkpt>
      <trkpt lat="48.30856" lon="-0.31215">
        <ele>267</ele>
        <time>2014-09-09T09:00:36Z</time>
      </trkpt>
      <trkpt lat="48.30832" lon="-0.31252">
        <ele>269</ele>
        <time>2014-09-09T09:00:43Z</time>
      </trkpt>
      <trkpt lat="48.30816" lon="-0.31281">
        <ele>270</ele>
        <time>2014-09-09T09:00:50Z</time>
      </trkpt>
      <trkpt lat="48.30808" lon="-0.31303">
        <ele>266</ele>
        <time>2014-09-09T09:00:55Z</time>
      </trkpt>
      <trkpt lat="48.30798" lon="-0.31342">
        <ele>266</ele>
        <time>2014-09-09T09:01:03Z</time>
      </trkpt>
      <trkpt lat="48.30789" lon="-0.31375">
        <ele>266</ele>
        <time>2014-09-09T09:01:11Z</time>
      </trkpt>
      <trkpt lat="48.30786" lon="-0.31387">
        <ele>266</ele>
        <time>2014-09-09T09:01:14Z</time>
      </trkpt>
      <trkpt lat="48.30777" lon="-0.31403">
        <ele>268</ele>
        <time>2014-09-09T09:01:19Z</time>
      </trkpt>
      <trkpt lat="48.30771" lon="-0.31416">
        <ele>266</ele>
        <time>2014-09-09T09:01:27Z</time>
      </trkpt>
      <trkpt lat="48.30751" lon="-0.31413">
        <ele>265</ele>
        <time>2014-09-09T09:01:39Z</time>
      </trkpt>
      <trkpt lat="48.30751" lon="-0.31413">
        <ele>219</ele>
        <time>2014-09-09T09:01:47Z</time>
      </trkpt>
      <trkpt lat="48.30751" lon="-0.31413">
        <ele>219</ele>
        <time>2014-09-09T09:02:56Z</time>
      </trkpt>
      <trkpt lat="48.30736" lon="-0.3141">
        <ele>271</ele>
        <time>2014-09-09T09:02:56Z</time>
      </trkpt>
      <trkpt lat="48.30717" lon="-0.31409">
        <ele>265</ele>
        <time>2014-09-09T09:03:02Z</time>
      </trkpt>
      <trkpt lat="48.30699" lon="-0.3141">
        <ele>260</ele>
        <time>2014-09-09T09:03:06Z</time>
      </trkpt>
      <trkpt lat="48.30669" lon="-0.31413">
        <ele>267</ele>
        <time>2014-09-09T09:03:39Z</time>
      </trkpt>
      <trkpt lat="48.30645" lon="-0.31417">
        <ele>267</ele>
        <time>2014-09-09T09:03:47Z</time>
      </trkpt>
      <trkpt lat="48.30619" lon="-0.31423">
        <ele>263</ele>
        <time>2014-09-09T09:03:55Z</time>
      </trkpt>
      <trkpt lat="48.30596" lon="-0.31421">
        <ele>261</ele>
        <time>2014-09-09T09:04:01Z</time>
      </trkpt>
      <trkpt lat="48.30589" lon="-0.31419">
        <ele>261</ele>
        <time>2014-09-09T09:04:04Z</time>
      </trkpt>
      <trkpt lat="48.30563" lon="-0.31404">
        <ele>263</ele>
        <time>2014-09-09T09:04:39Z</time>
      </trkpt>
      <trkpt lat="48.30546" lon="-0.31396">
        <ele>263</ele>
        <time>2014-09-09T09:04:45Z</time>
      </trkpt>
      <trkpt lat="48.30536" lon="-0.31393">
        <ele>264</ele>
        <time>2014-09-09T09:04:49Z</time>
      </trkpt>
      <trkpt lat="48.30518" lon="-0.31392">
        <ele>265</ele>
        <time>2014-09-09T09:04:54Z</time>
      </trkpt>
      <trkpt lat="48.30499" lon="-0.31395">
        <ele>265</ele>
        <time>2014-09-09T09:04:59Z</time>
      </trkpt>
      <trkpt lat="48.30474" lon="-0.31403">
        <ele>265</ele>
        <time>2014-09-09T09:05:06Z</time>
      </trkpt>
      <trkpt lat="48.30458" lon="-0.31413">
        <ele>265</ele>
        <time>2014-09-09T09:05:11Z</time>
      </trkpt>
      <trkpt lat="48.30441" lon="-0.31423">
        <ele>264</ele>
        <time>2014-09-09T09:05:17Z</time>
      </trkpt>
      <trkpt lat="48.30421" lon="-0.31433">
        <ele>265</ele>
        <time>2014-09-09T09:05:24Z</time>
      </trkpt>
      <trkpt lat="48.30408" lon="-0.31438">
        <ele>265</ele>
        <time>2014-09-09T09:05:28Z</time>
      </trkpt>
      <trkpt lat="48.30392" lon="-0.31441">
        <ele>263</ele>
        <time>2014-09-09T09:05:33Z</time>
      </trkpt>
      <trkpt lat="48.30381" lon="-0.31442">
        <ele>264</ele>
        <time>2014-09-09T09:05:37Z</time>
      </trkpt>
      <trkpt lat="48.30352" lon="-0.31441">
        <ele>265</ele>
        <time>2014-09-09T09:05:45Z</time>
      </trkpt>
      <trkpt lat="48.30337" lon="-0.31438">
        <ele>264</ele>
        <time>2014-09-09T09:05:48Z</time>
      </trkpt>
      <trkpt lat="48.30305" lon="-0.3143">
        <ele>262</ele>
        <time>2014-09-09T09:05:54Z</time>
      </trkpt>
      <trkpt lat="48.30276" lon="-0.31423">
        <ele>260</ele>
        <time>2014-09-09T09:05:59Z</time>
      </trkpt>
      <trkpt lat="48.30239" lon="-0.31423">
        <ele>259</ele>
        <time>2014-09-09T09:06:05Z</time>
      </trkpt>
      <trkpt lat="48.30209" lon="-0.31442">
        <ele>258</ele>
        <time>2014-09-09T09:06:12Z</time>
      </trkpt>
      <trkpt lat="48.30205" lon="-0.31466">
        <ele>258</ele>
        <time>2014-09-09T09:06:18Z</time>
      </trkpt>
      <trkpt lat="48.30206" lon="-0.31495">
        <ele>258</ele>
        <time>2014-09-09T09:06:23Z</time>
      </trkpt>
      <trkpt lat="48.30209" lon="-0.31532">
        <ele>259</ele>
        <time>2014-09-09T09:06:29Z</time>
      </trkpt>
      <trkpt lat="48.30209" lon="-0.31549">
        <ele>259</ele>
        <time>2014-09-09T09:06:32Z</time>
      </trkpt>
      <trkpt lat="48.30201" lon="-0.31597">
        <ele>260</ele>
        <time>2014-09-09T09:06:40Z</time>
      </trkpt>
      <trkpt lat="48.30189" lon="-0.31628">
        <ele>259</ele>
        <time>2014-09-09T09:06:46Z</time>
      </trkpt>
      <trkpt lat="48.30177" lon="-0.31656">
        <ele>260</ele>
        <time>2014-09-09T09:06:51Z</time>
      </trkpt>
      <trkpt lat="48.30161" lon="-0.31693">
        <ele>261</ele>
        <time>2014-09-09T09:06:58Z</time>
      </trkpt>
      <trkpt lat="48.30153" lon="-0.31719">
        <ele>263</ele>
        <time>2014-09-09T09:07:03Z</time>
      </trkpt>
      <trkpt lat="48.30143" lon="-0.3176">
        <ele>262</ele>
        <time>2014-09-09T09:07:10Z</time>
      </trkpt>
      <trkpt lat="48.30136" lon="-0.31791">
        <ele>259</ele>
        <time>2014-09-09T09:07:15Z</time>
      </trkpt>
      <trkpt lat="48.30127" lon="-0.31835">
        <ele>260</ele>
        <time>2014-09-09T09:07:22Z</time>
      </trkpt>
      <trkpt lat="48.3012" lon="-0.3187">
        <ele>262</ele>
        <time>2014-09-09T09:07:28Z</time>
      </trkpt>
      <trkpt lat="48.30102" lon="-0.31898">
        <ele>264</ele>
        <time>2014-09-09T09:07:34Z</time>
      </trkpt>
      <trkpt lat="48.30079" lon="-0.3192">
        <ele>262</ele>
        <time>2014-09-09T09:07:40Z</time>
      </trkpt>
      <trkpt lat="48.30065" lon="-0.31935">
        <ele>263</ele>
        <time>2014-09-09T09:07:44Z</time>
      </trkpt>
      <trkpt lat="48.30047" lon="-0.31959">
        <ele>267</ele>
        <time>2014-09-09T09:07:50Z</time>
      </trkpt>
      <trkpt lat="48.30037" lon="-0.31972">
        <ele>268</ele>
        <time>2014-09-09T09:07:53Z</time>
      </trkpt>
      <trkpt lat="48.3002" lon="-0.31993">
        <ele>266</ele>
        <time>2014-09-09T09:07:58Z</time>
      </trkpt>
      <trkpt lat="48.30002" lon="-0.3202">
        <ele>265</ele>
        <time>2014-09-09T09:08:04Z</time>
      </trkpt>
      <trkpt lat="48.2999" lon="-0.32045">
        <ele>265</ele>
        <time>2014-09-09T09:08:09Z</time>
      </trkpt>
      <trkpt lat="48.29972" lon="-0.32087">
        <ele>269</ele>
        <time>2014-09-09T09:08:17Z</time>
      </trkpt>
      <trkpt lat="48.29956" lon="-0.32119">
        <ele>267</ele>
        <time>2014-09-09T09:08:23Z</time>
      </trkpt>
      <trkpt lat="48.29943" lon="-0.32157">
        <ele>266</ele>
        <time>2014-09-09T09:08:30Z</time>
      </trkpt>
      <trkpt lat="48.29931" lon="-0.32185">
        <ele>263</ele>
        <time>2014-09-09T09:08:35Z</time>
      </trkpt>
      <trkpt lat="48.29923" lon="-0.32202">
        <ele>265</ele>
        <time>2014-09-09T09:08:39Z</time>
      </trkpt>
      <trkpt lat="48.29918" lon="-0.3222">
        <ele>264</ele>
        <time>2014-09-09T09:08:42Z</time>
      </trkpt>
      <trkpt lat="48.29907" lon="-0.32271">
        <ele>270</ele>
        <time>2014-09-09T09:08:49Z</time>
      </trkpt>
      <trkpt lat="48.29904" lon="-0.32308">
        <ele>268</ele>
        <time>2014-09-09T09:08:55Z</time>
      </trkpt>
      <trkpt lat="48.29903" lon="-0.32341">
        <ele>270</ele>
        <time>2014-09-09T09:09:00Z</time>
      </trkpt>
      <trkpt lat="48.29902" lon="-0.32381">
        <ele>270</ele>
        <time>2014-09-09T09:09:06Z</time>
      </trkpt>
      <trkpt lat="48.299" lon="-0.32412">
        <ele>272</ele>
        <time>2014-09-09T09:09:11Z</time>
      </trkpt>
      <trkpt lat="48.29898" lon="-0.3245">
        <ele>274</ele>
        <time>2014-09-09T09:09:17Z</time>
      </trkpt>
      <trkpt lat="48.299" lon="-0.32487">
        <ele>275</ele>
        <time>2014-09-09T09:09:23Z</time>
      </trkpt>
      <trkpt lat="48.29902" lon="-0.32504">
        <ele>277</ele>
        <time>2014-09-09T09:09:26Z</time>
      </trkpt>
      <trkpt lat="48.29906" lon="-0.32518">
        <ele>276</ele>
        <time>2014-09-09T09:09:29Z</time>
      </trkpt>
      <trkpt lat="48.29908" lon="-0.32541">
        <ele>276</ele>
        <time>2014-09-09T09:09:34Z</time>
      </trkpt>
      <trkpt lat="48.29904" lon="-0.32571">
        <ele>275</ele>
        <time>2014-09-09T09:09:40Z</time>
      </trkpt>
      <trkpt lat="48.29893" lon="-0.32623">
        <ele>274</ele>
        <time>2014-09-09T09:09:48Z</time>
      </trkpt>
      <trkpt lat="48.29901" lon="-0.32666">
        <ele>270</ele>
        <time>2014-09-09T09:09:54Z</time>
      </trkpt>
      <trkpt lat="48.29903" lon="-0.32689">
        <ele>274</ele>
        <time>2014-09-09T09:09:57Z</time>
      </trkpt>
      <trkpt lat="48.29902" lon="-0.32712">
        <ele>272</ele>
        <time>2014-09-09T09:10:01Z</time>
      </trkpt>
      <trkpt lat="48.29896" lon="-0.3273">
        <ele>269</ele>
        <time>2014-09-09T09:10:04Z</time>
      </trkpt>
      <trkpt lat="48.29883" lon="-0.32763">
        <ele>268</ele>
        <time>2014-09-09T09:10:10Z</time>
      </trkpt>
      <trkpt lat="48.29874" lon="-0.328">
        <ele>272</ele>
        <time>2014-09-09T09:10:16Z</time>
      </trkpt>
      <trkpt lat="48.29869" lon="-0.3283">
        <ele>274</ele>
        <time>2014-09-09T09:10:21Z</time>
      </trkpt>
      <trkpt lat="48.29862" lon="-0.3287">
        <ele>275</ele>
        <time>2014-09-09T09:10:27Z</time>
      </trkpt>
      <trkpt lat="48.29854" lon="-0.32897">
        <ele>277</ele>
        <time>2014-09-09T09:10:32Z</time>
      </trkpt>
      <trkpt lat="48.2984" lon="-0.32936">
        <ele>275</ele>
        <time>2014-09-09T09:10:39Z</time>
      </trkpt>
      <trkpt lat="48.2983" lon="-0.3296">
        <ele>276</ele>
        <time>2014-09-09T09:10:44Z</time>
      </trkpt>
      <trkpt lat="48.29814" lon="-0.32995">
        <ele>280</ele>
        <time>2014-09-09T09:10:50Z</time>
      </trkpt>
      <trkpt lat="48.29807" lon="-0.33012">
        <ele>284</ele>
        <time>2014-09-09T09:10:53Z</time>
      </trkpt>
      <trkpt lat="48.298" lon="-0.33029">
        <ele>286</ele>
        <time>2014-09-09T09:10:56Z</time>
      </trkpt>
      <trkpt lat="48.29794" lon="-0.33066">
        <ele>287</ele>
        <time>2014-09-09T09:11:02Z</time>
      </trkpt>
      <trkpt lat="48.2979" lon="-0.33098">
        <ele>288</ele>
        <time>2014-09-09T09:11:07Z</time>
      </trkpt>
      <trkpt lat="48.29783" lon="-0.33133">
        <ele>290</ele>
        <time>2014-09-09T09:11:13Z</time>
      </trkpt>
      <trkpt lat="48.29776" lon="-0.33159">
        <ele>288</ele>
        <time>2014-09-09T09:11:17Z</time>
      </trkpt>
      <trkpt lat="48.29764" lon="-0.33193">
        <ele>287</ele>
        <time>2014-09-09T09:11:23Z</time>
      </trkpt>
      <trkpt lat="48.29746" lon="-0.3323">
        <ele>289</ele>
        <time>2014-09-09T09:11:31Z</time>
      </trkpt>
      <trkpt lat="48.29726" lon="-0.3326">
        <ele>287</ele>
        <time>2014-09-09T09:11:38Z</time>
      </trkpt>
      <trkpt lat="48.29696" lon="-0.33306">
        <ele>286</ele>
        <time>2014-09-09T09:11:44Z</time>
      </trkpt>
      <trkpt lat="48.29664" lon="-0.33362">
        <ele>284</ele>
        <time>2014-09-09T09:11:50Z</time>
      </trkpt>
      <trkpt lat="48.29648" lon="-0.33393">
        <ele>282</ele>
        <time>2014-09-09T09:11:53Z</time>
      </trkpt>
      <trkpt lat="48.29631" lon="-0.33415">
        <ele>284</ele>
        <time>2014-09-09T09:11:59Z</time>
      </trkpt>
      <trkpt lat="48.29631" lon="-0.33415">
        <ele>284</ele>
        <time>2014-09-09T09:12:05Z</time>
      </trkpt>
      <trkpt lat="48.29631" lon="-0.33415">
        <ele>238.6</ele>
        <time>2014-09-09T09:12:05Z</time>
      </trkpt>
      <trkpt lat="48.29631" lon="-0.33415">
        <ele>238.6</ele>
        <time>2014-09-09T09:12:16Z</time>
      </trkpt>
      <trkpt lat="48.29627" lon="-0.33392">
        <ele>289</ele>
        <time>2014-09-09T09:12:16Z</time>
      </trkpt>
      <trkpt lat="48.29617" lon="-0.33365">
        <ele>288</ele>
        <time>2014-09-09T09:12:21Z</time>
      </trkpt>
      <trkpt lat="48.29607" lon="-0.33344">
        <ele>286</ele>
        <time>2014-09-09T09:12:24Z</time>
      </trkpt>
      <trkpt lat="48.29592" lon="-0.33317">
        <ele>286</ele>
        <time>2014-09-09T09:12:29Z</time>
      </trkpt>
      <trkpt lat="48.29578" lon="-0.33288">
        <ele>286</ele>
        <time>2014-09-09T09:12:35Z</time>
      </trkpt>
      <trkpt lat="48.29563" lon="-0.33255">
        <ele>291</ele>
        <time>2014-09-09T09:12:41Z</time>
      </trkpt>
      <trkpt lat="48.29554" lon="-0.33237">
        <ele>288</ele>
        <time>2014-09-09T09:12:44Z</time>
      </trkpt>
      <trkpt lat="48.29547" lon="-0.33219">
        <ele>287</ele>
        <time>2014-09-09T09:12:47Z</time>
      </trkpt>
      <trkpt lat="48.29536" lon="-0.33184">
        <ele>288</ele>
        <time>2014-09-09T09:12:53Z</time>
      </trkpt>
      <trkpt lat="48.2953" lon="-0.33169">
        <ele>289</ele>
        <time>2014-09-09T09:12:56Z</time>
      </trkpt>
      <trkpt lat="48.29525" lon="-0.33154">
        <ele>286</ele>
        <time>2014-09-09T09:12:59Z</time>
      </trkpt>
      <trkpt lat="48.29515" lon="-0.33126">
        <ele>286</ele>
        <time>2014-09-09T09:13:05Z</time>
      </trkpt>
      <trkpt lat="48.29505" lon="-0.33095">
        <ele>285</ele>
        <time>2014-09-09T09:13:11Z</time>
      </trkpt>
      <trkpt lat="48.29499" lon="-0.33069">
        <ele>287</ele>
        <time>2014-09-09T09:13:15Z</time>
      </trkpt>
      <trkpt lat="48.29494" lon="-0.33027">
        <ele>289</ele>
        <time>2014-09-09T09:13:20Z</time>
      </trkpt>
      <trkpt lat="48.29485" lon="-0.32961">
        <ele>283</ele>
        <time>2014-09-09T09:13:26Z</time>
      </trkpt>
      <trkpt lat="48.2948" lon="-0.32925">
        <ele>281</ele>
        <time>2014-09-09T09:13:29Z</time>
      </trkpt>
      <trkpt lat="48.29471" lon="-0.32895">
        <ele>282</ele>
        <time>2014-09-09T09:13:32Z</time>
      </trkpt>
      <trkpt lat="48.29461" lon="-0.32875">
        <ele>281</ele>
        <time>2014-09-09T09:13:35Z</time>
      </trkpt>
      <trkpt lat="48.2943" lon="-0.32842">
        <ele>281</ele>
        <time>2014-09-09T09:13:43Z</time>
      </trkpt>
      <trkpt lat="48.29393" lon="-0.32816">
        <ele>282</ele>
        <time>2014-09-09T09:13:51Z</time>
      </trkpt>
      <trkpt lat="48.29372" lon="-0.32799">
        <ele>284</ele>
        <time>2014-09-09T09:13:56Z</time>
      </trkpt>
      <trkpt lat="48.29347" lon="-0.3278">
        <ele>285</ele>
        <time>2014-09-09T09:14:02Z</time>
      </trkpt>
      <trkpt lat="48.29324" lon="-0.32761">
        <ele>287</ele>
        <time>2014-09-09T09:14:08Z</time>
      </trkpt>
      <trkpt lat="48.29299" lon="-0.32747">
        <ele>288</ele>
        <time>2014-09-09T09:14:14Z</time>
      </trkpt>
      <trkpt lat="48.2927" lon="-0.3274">
        <ele>289</ele>
        <time>2014-09-09T09:14:21Z</time>
      </trkpt>
      <trkpt lat="48.29247" lon="-0.32737">
        <ele>286</ele>
        <time>2014-09-09T09:14:28Z</time>
      </trkpt>
      <trkpt lat="48.29226" lon="-0.32732">
        <ele>288</ele>
        <time>2014-09-09T09:14:33Z</time>
      </trkpt>
      <trkpt lat="48.29192" lon="-0.32725">
        <ele>291</ele>
        <time>2014-09-09T09:14:41Z</time>
      </trkpt>
      <trkpt lat="48.29167" lon="-0.3272">
        <ele>291</ele>
        <time>2014-09-09T09:14:47Z</time>
      </trkpt>
      <trkpt lat="48.29158" lon="-0.32718">
        <ele>292</ele>
        <time>2014-09-09T09:14:50Z</time>
      </trkpt>
      <trkpt lat="48.29126" lon="-0.32714">
        <ele>291</ele>
        <time>2014-09-09T09:14:58Z</time>
      </trkpt>
      <trkpt lat="48.29107" lon="-0.32709">
        <ele>291</ele>
        <time>2014-09-09T09:15:03Z</time>
      </trkpt>
      <trkpt lat="48.29081" lon="-0.32676">
        <ele>291</ele>
        <time>2014-09-09T09:15:11Z</time>
      </trkpt>
      <trkpt lat="48.29073" lon="-0.32658">
        <ele>292</ele>
        <time>2014-09-09T09:15:14Z</time>
      </trkpt>
      <trkpt lat="48.29058" lon="-0.32624">
        <ele>293</ele>
        <time>2014-09-09T09:15:20Z</time>
      </trkpt>
      <trkpt lat="48.29045" lon="-0.32596">
        <ele>294</ele>
        <time>2014-09-09T09:15:26Z</time>
      </trkpt>
      <trkpt lat="48.29019" lon="-0.32536">
        <ele>297</ele>
        <time>2014-09-09T09:15:36Z</time>
      </trkpt>
      <trkpt lat="48.29012" lon="-0.3252">
        <ele>297</ele>
        <time>2014-09-09T09:15:39Z</time>
      </trkpt>
      <trkpt lat="48.29004" lon="-0.32504">
        <ele>296</ele>
        <time>2014-09-09T09:15:42Z</time>
      </trkpt>
      <trkpt lat="48.28999" lon="-0.32465">
        <ele>300</ele>
        <time>2014-09-09T09:15:48Z</time>
      </trkpt>
      <trkpt lat="48.28992" lon="-0.32416">
        <ele>302</ele>
        <time>2014-09-09T09:15:55Z</time>
      </trkpt>
      <trkpt lat="48.28978" lon="-0.32385">
        <ele>303</ele>
        <time>2014-09-09T09:16:00Z</time>
      </trkpt>
      <trkpt lat="48.28957" lon="-0.32344">
        <ele>303</ele>
        <time>2014-09-09T09:16:06Z</time>
      </trkpt>
      <trkpt lat="48.28949" lon="-0.32327">
        <ele>303</ele>
        <time>2014-09-09T09:16:09Z</time>
      </trkpt>
      <trkpt lat="48.28932" lon="-0.32289">
        <ele>302</ele>
        <time>2014-09-09T09:16:15Z</time>
      </trkpt>
      <trkpt lat="48.28915" lon="-0.3226">
        <ele>302</ele>
        <time>2014-09-09T09:16:20Z</time>
      </trkpt>
      <trkpt lat="48.28893" lon="-0.32231">
        <ele>302</ele>
        <time>2014-09-09T09:16:26Z</time>
      </trkpt>
      <trkpt lat="48.28874" lon="-0.32213">
        <ele>303</ele>
        <time>2014-09-09T09:16:31Z</time>
      </trkpt>
      <trkpt lat="48.28854" lon="-0.32198">
        <ele>303</ele>
        <time>2014-09-09T09:16:36Z</time>
      </trkpt>
      <trkpt lat="48.28843" lon="-0.32192">
        <ele>306</ele>
        <time>2014-09-09T09:16:39Z</time>
      </trkpt>
      <trkpt lat="48.28824" lon="-0.32182">
        <ele>304</ele>
        <time>2014-09-09T09:16:44Z</time>
      </trkpt>
      <trkpt lat="48.28801" lon="-0.3217">
        <ele>306</ele>
        <time>2014-09-09T09:16:50Z</time>
      </trkpt>
      <trkpt lat="48.28778" lon="-0.32161">
        <ele>306</ele>
        <time>2014-09-09T09:16:55Z</time>
      </trkpt>
      <trkpt lat="48.28766" lon="-0.32155">
        <ele>303</ele>
        <time>2014-09-09T09:16:58Z</time>
      </trkpt>
      <trkpt lat="48.28733" lon="-0.32141">
        <ele>303</ele>
        <time>2014-09-09T09:17:06Z</time>
      </trkpt>
      <trkpt lat="48.28713" lon="-0.3213">
        <ele>307</ele>
        <time>2014-09-09T09:17:11Z</time>
      </trkpt>
      <trkpt lat="48.28687" lon="-0.32118">
        <ele>309</ele>
        <time>2014-09-09T09:17:17Z</time>
      </trkpt>
      <trkpt lat="48.2866" lon="-0.32115">
        <ele>308</ele>
        <time>2014-09-09T09:17:23Z</time>
      </trkpt>
      <trkpt lat="48.28639" lon="-0.32121">
        <ele>311</ele>
        <time>2014-09-09T09:17:28Z</time>
      </trkpt>
      <trkpt lat="48.28604" lon="-0.32117">
        <ele>309</ele>
        <time>2014-09-09T09:17:37Z</time>
      </trkpt>
      <trkpt lat="48.28586" lon="-0.32081">
        <ele>310</ele>
        <time>2014-09-09T09:17:45Z</time>
      </trkpt>
      <trkpt lat="48.28582" lon="-0.32048">
        <ele>309</ele>
        <time>2014-09-09T09:17:50Z</time>
      </trkpt>
      <trkpt lat="48.28578" lon="-0.31992">
        <ele>309</ele>
        <time>2014-09-09T09:17:56Z</time>
      </trkpt>
      <trkpt lat="48.28574" lon="-0.3196">
        <ele>308</ele>
        <time>2014-09-09T09:18:02Z</time>
      </trkpt>
      <trkpt lat="48.28571" lon="-0.31932">
        <ele>308</ele>
        <time>2014-09-09T09:18:07Z</time>
      </trkpt>
      <trkpt lat="48.28567" lon="-0.31899">
        <ele>309</ele>
        <time>2014-09-09T09:18:13Z</time>
      </trkpt>
      <trkpt lat="48.28564" lon="-0.3188">
        <ele>309</ele>
        <time>2014-09-09T09:18:15Z</time>
      </trkpt>
      <trkpt lat="48.28558" lon="-0.31834">
        <ele>312</ele>
        <time>2014-09-09T09:18:21Z</time>
      </trkpt>
      <trkpt lat="48.28553" lon="-0.31815">
        <ele>312</ele>
        <time>2014-09-09T09:18:22Z</time>
      </trkpt>
      <trkpt lat="48.28547" lon="-0.31797">
        <ele>312</ele>
        <time>2014-09-09T09:18:25Z</time>
      </trkpt>
      <trkpt lat="48.28533" lon="-0.31764">
        <ele>312</ele>
        <time>2014-09-09T09:18:31Z</time>
      </trkpt>
      <trkpt lat="48.28522" lon="-0.3173">
        <ele>312</ele>
        <time>2014-09-09T09:18:37Z</time>
      </trkpt>
      <trkpt lat="48.28523" lon="-0.31687">
        <ele>311</ele>
        <time>2014-09-09T09:18:44Z</time>
      </trkpt>
      <trkpt lat="48.28529" lon="-0.31607">
        <ele>304</ele>
        <time>2014-09-09T09:18:51Z</time>
      </trkpt>
      <trkpt lat="48.28528" lon="-0.31581">
        <ele>306</ele>
        <time>2014-09-09T09:18:56Z</time>
      </trkpt>
      <trkpt lat="48.28502" lon="-0.31572">
        <ele>307</ele>
        <time>2014-09-09T09:19:03Z</time>
      </trkpt>
      <trkpt lat="48.28489" lon="-0.31572">
        <ele>308</ele>
        <time>2014-09-09T09:19:06Z</time>
      </trkpt>
      <trkpt lat="48.28477" lon="-0.31572">
        <ele>310</ele>
        <time>2014-09-09T09:19:09Z</time>
      </trkpt>
      <trkpt lat="48.28463" lon="-0.31571">
        <ele>310</ele>
        <time>2014-09-09T09:19:14Z</time>
      </trkpt>
      <trkpt lat="48.2844" lon="-0.31571">
        <ele>311</ele>
        <time>2014-09-09T09:19:20Z</time>
      </trkpt>
      <trkpt lat="48.28416" lon="-0.3157">
        <ele>312</ele>
        <time>2014-09-09T09:19:26Z</time>
      </trkpt>
      <trkpt lat="48.28395" lon="-0.31569">
        <ele>312</ele>
        <time>2014-09-09T09:19:31Z</time>
      </trkpt>
      <trkpt lat="48.28374" lon="-0.31567">
        <ele>313</ele>
        <time>2014-09-09T09:19:36Z</time>
      </trkpt>
      <trkpt lat="48.28362" lon="-0.31566">
        <ele>313</ele>
        <time>2014-09-09T09:19:39Z</time>
      </trkpt>
      <trkpt lat="48.2835" lon="-0.31564">
        <ele>314</ele>
        <time>2014-09-09T09:19:41Z</time>
      </trkpt>
      <trkpt lat="48.28336" lon="-0.31561">
        <ele>313</ele>
        <time>2014-09-09T09:19:44Z</time>
      </trkpt>
      <trkpt lat="48.28305" lon="-0.31553">
        <ele>312</ele>
        <time>2014-09-09T09:19:50Z</time>
      </trkpt>
      <trkpt lat="48.28268" lon="-0.31547">
        <ele>311</ele>
        <time>2014-09-09T09:19:56Z</time>
      </trkpt>
      <trkpt lat="48.28234" lon="-0.31547">
        <ele>308</ele>
        <time>2014-09-09T09:20:01Z</time>
      </trkpt>
      <trkpt lat="48.28213" lon="-0.31548">
        <ele>308</ele>
        <time>2014-09-09T09:20:04Z</time>
      </trkpt>
      <trkpt lat="48.28194" lon="-0.3155">
        <ele>309</ele>
        <time>2014-09-09T09:20:07Z</time>
      </trkpt>
      <trkpt lat="48.28161" lon="-0.3155">
        <ele>311</ele>
        <time>2014-09-09T09:20:13Z</time>
      </trkpt>
      <trkpt lat="48.28134" lon="-0.31547">
        <ele>311</ele>
        <time>2014-09-09T09:20:19Z</time>
      </trkpt>
      <trkpt lat="48.28112" lon="-0.31544">
        <ele>309</ele>
        <time>2014-09-09T09:20:24Z</time>
      </trkpt>
      <trkpt lat="48.28089" lon="-0.3154">
        <ele>314</ele>
        <time>2014-09-09T09:20:29Z</time>
      </trkpt>
      <trkpt lat="48.28077" lon="-0.31538">
        <ele>314</ele>
        <time>2014-09-09T09:20:32Z</time>
      </trkpt>
      <trkpt lat="48.28065" lon="-0.31536">
        <ele>313</ele>
        <time>2014-09-09T09:20:35Z</time>
      </trkpt>
      <trkpt lat="48.28053" lon="-0.31534">
        <ele>314</ele>
        <time>2014-09-09T09:20:38Z</time>
      </trkpt>
      <trkpt lat="48.28038" lon="-0.31531">
        <ele>313</ele>
        <time>2014-09-09T09:20:41Z</time>
      </trkpt>
      <trkpt lat="48.28009" lon="-0.31519">
        <ele>311</ele>
        <time>2014-09-09T09:20:46Z</time>
      </trkpt>
      <trkpt lat="48.27971" lon="-0.31475">
        <ele>309</ele>
        <time>2014-09-09T09:20:52Z</time>
      </trkpt>
      <trkpt lat="48.27951" lon="-0.31433">
        <ele>308</ele>
        <time>2014-09-09T09:20:57Z</time>
      </trkpt>
      <trkpt lat="48.27939" lon="-0.31397">
        <ele>308</ele>
        <time>2014-09-09T09:21:03Z</time>
      </trkpt>
      <trkpt lat="48.27924" lon="-0.31366">
        <ele>310</ele>
        <time>2014-09-09T09:21:08Z</time>
      </trkpt>
      <trkpt lat="48.27902" lon="-0.31335">
        <ele>312</ele>
        <time>2014-09-09T09:21:14Z</time>
      </trkpt>
      <trkpt lat="48.27881" lon="-0.31308">
        <ele>314</ele>
        <time>2014-09-09T09:21:19Z</time>
      </trkpt>
      <trkpt lat="48.27854" lon="-0.31274">
        <ele>316</ele>
        <time>2014-09-09T09:21:25Z</time>
      </trkpt>
      <trkpt lat="48.27843" lon="-0.31259">
        <ele>316</ele>
        <time>2014-09-09T09:21:28Z</time>
      </trkpt>
      <trkpt lat="48.27821" lon="-0.31231">
        <ele>317</ele>
        <time>2014-09-09T09:21:34Z</time>
      </trkpt>
      <trkpt lat="48.27808" lon="-0.31212">
        <ele>317</ele>
        <time>2014-09-09T09:21:39Z</time>
      </trkpt>
      <trkpt lat="48.27795" lon="-0.31187">
        <ele>317</ele>
        <time>2014-09-09T09:21:46Z</time>
      </trkpt>
      <trkpt lat="48.27782" lon="-0.31141">
        <ele>316</ele>
        <time>2014-09-09T09:21:51Z</time>
      </trkpt>
      <trkpt lat="48.27778" lon="-0.31101">
        <ele>316</ele>
        <time>2014-09-09T09:21:57Z</time>
      </trkpt>
      <trkpt lat="48.27777" lon="-0.3108">
        <ele>319</ele>
        <time>2014-09-09T09:22:00Z</time>
      </trkpt>
      <trkpt lat="48.27765" lon="-0.31053">
        <ele>318</ele>
        <time>2014-09-09T09:22:06Z</time>
      </trkpt>
      <trkpt lat="48.27751" lon="-0.31043">
        <ele>316</ele>
        <time>2014-09-09T09:22:10Z</time>
      </trkpt>
      <trkpt lat="48.27738" lon="-0.31038">
        <ele>317</ele>
        <time>2014-09-09T09:22:13Z</time>
      </trkpt>
      <trkpt lat="48.27725" lon="-0.31036">
        <ele>319</ele>
        <time>2014-09-09T09:22:16Z</time>
      </trkpt>
      <trkpt lat="48.27712" lon="-0.31035">
        <ele>319</ele>
        <time>2014-09-09T09:22:19Z</time>
      </trkpt>
      <trkpt lat="48.27699" lon="-0.31036">
        <ele>319</ele>
        <time>2014-09-09T09:22:22Z</time>
      </trkpt>
      <trkpt lat="48.27678" lon="-0.31036">
        <ele>320</ele>
        <time>2014-09-09T09:22:27Z</time>
      </trkpt>
      <trkpt lat="48.27658" lon="-0.31036">
        <ele>319</ele>
        <time>2014-09-09T09:22:33Z</time>
      </trkpt>
      <trkpt lat="48.27629" lon="-0.3103">
        <ele>317</ele>
        <time>2014-09-09T09:22:40Z</time>
      </trkpt>
      <trkpt lat="48.27604" lon="-0.31026">
        <ele>315</ele>
        <time>2014-09-09T09:22:45Z</time>
      </trkpt>
      <trkpt lat="48.27587" lon="-0.31025">
        <ele>316</ele>
        <time>2014-09-09T09:22:48Z</time>
      </trkpt>
      <trkpt lat="48.27569" lon="-0.31025">
        <ele>319</ele>
        <time>2014-09-09T09:22:51Z</time>
      </trkpt>
      <trkpt lat="48.2754" lon="-0.31013">
        <ele>318</ele>
        <time>2014-09-09T09:22:58Z</time>
      </trkpt>
      <trkpt lat="48.27517" lon="-0.30998">
        <ele>317</ele>
        <time>2014-09-09T09:23:04Z</time>
      </trkpt>
      <trkpt lat="48.27504" lon="-0.30976">
        <ele>318</ele>
        <time>2014-09-09T09:23:09Z</time>
      </trkpt>
      <trkpt lat="48.27496" lon="-0.30946">
        <ele>317</ele>
        <time>2014-09-09T09:23:14Z</time>
      </trkpt>
      <trkpt lat="48.27487" lon="-0.30912">
        <ele>321</ele>
        <time>2014-09-09T09:23:20Z</time>
      </trkpt>
      <trkpt lat="48.2748" lon="-0.30871">
        <ele>317</ele>
        <time>2014-09-09T09:23:28Z</time>
      </trkpt>
      <trkpt lat="48.27475" lon="-0.30834">
        <ele>310</ele>
        <time>2014-09-09T09:23:36Z</time>
      </trkpt>
      <trkpt lat="48.27463" lon="-0.30823">
        <ele>314</ele>
        <time>2014-09-09T09:23:41Z</time>
      </trkpt>
      <trkpt lat="48.27435" lon="-0.3085">
        <ele>321</ele>
        <time>2014-09-09T09:23:48Z</time>
      </trkpt>
      <trkpt lat="48.27425" lon="-0.30888">
        <ele>325</ele>
        <time>2014-09-09T09:23:56Z</time>
      </trkpt>
      <trkpt lat="48.27413" lon="-0.30916">
        <ele>325</ele>
        <time>2014-09-09T09:24:01Z</time>
      </trkpt>
      <trkpt lat="48.27402" lon="-0.30934">
        <ele>327</ele>
        <time>2014-09-09T09:24:05Z</time>
      </trkpt>
      <trkpt lat="48.2739" lon="-0.30951">
        <ele>326</ele>
        <time>2014-09-09T09:24:09Z</time>
      </trkpt>
      <trkpt lat="48.27375" lon="-0.30971">
        <ele>324</ele>
        <time>2014-09-09T09:24:14Z</time>
      </trkpt>
      <trkpt lat="48.27362" lon="-0.30985">
        <ele>326</ele>
        <time>2014-09-09T09:24:18Z</time>
      </trkpt>
      <trkpt lat="48.27353" lon="-0.30995">
        <ele>325</ele>
        <time>2014-09-09T09:24:21Z</time>
      </trkpt>
      <trkpt lat="48.27343" lon="-0.31007">
        <ele>328</ele>
        <time>2014-09-09T09:24:24Z</time>
      </trkpt>
      <trkpt lat="48.27323" lon="-0.31028">
        <ele>327</ele>
        <time>2014-09-09T09:24:30Z</time>
      </trkpt>
      <trkpt lat="48.27307" lon="-0.31047">
        <ele>326</ele>
        <time>2014-09-09T09:24:35Z</time>
      </trkpt>
      <trkpt lat="48.27283" lon="-0.31083">
        <ele>329</ele>
        <time>2014-09-09T09:24:43Z</time>
      </trkpt>
      <trkpt lat="48.27267" lon="-0.31116">
        <ele>328</ele>
        <time>2014-09-09T09:24:50Z</time>
      </trkpt>
      <trkpt lat="48.27255" lon="-0.31147">
        <ele>329</ele>
        <time>2014-09-09T09:24:56Z</time>
      </trkpt>
      <trkpt lat="48.27245" lon="-0.31174">
        <ele>329</ele>
        <time>2014-09-09T09:25:01Z</time>
      </trkpt>
      <trkpt lat="48.27236" lon="-0.31198">
        <ele>329</ele>
        <time>2014-09-09T09:25:05Z</time>
      </trkpt>
      <trkpt lat="48.27227" lon="-0.31224">
        <ele>330</ele>
        <time>2014-09-09T09:25:10Z</time>
      </trkpt>
      <trkpt lat="48.27221" lon="-0.31239">
        <ele>330</ele>
        <time>2014-09-09T09:25:13Z</time>
      </trkpt>
      <trkpt lat="48.27212" lon="-0.31263">
        <ele>330</ele>
        <time>2014-09-09T09:25:20Z</time>
      </trkpt>
      <trkpt lat="48.272" lon="-0.31293">
        <ele>331</ele>
        <time>2014-09-09T09:25:27Z</time>
      </trkpt>
      <trkpt lat="48.27194" lon="-0.31306">
        <ele>332</ele>
        <time>2014-09-09T09:25:29Z</time>
      </trkpt>
      <trkpt lat="48.27182" lon="-0.31333">
        <ele>331</ele>
        <time>2014-09-09T09:25:33Z</time>
      </trkpt>
      <trkpt lat="48.27166" lon="-0.31363">
        <ele>330</ele>
        <time>2014-09-09T09:25:38Z</time>
      </trkpt>
      <trkpt lat="48.27146" lon="-0.31393">
        <ele>327</ele>
        <time>2014-09-09T09:25:43Z</time>
      </trkpt>
      <trkpt lat="48.27112" lon="-0.31426">
        <ele>328</ele>
        <time>2014-09-09T09:25:49Z</time>
      </trkpt>
      <trkpt lat="48.27082" lon="-0.31454">
        <ele>325</ele>
        <time>2014-09-09T09:25:54Z</time>
      </trkpt>
      <trkpt lat="48.27044" lon="-0.3149">
        <ele>323</ele>
        <time>2014-09-09T09:26:00Z</time>
      </trkpt>
      <trkpt lat="48.27025" lon="-0.31509">
        <ele>322</ele>
        <time>2014-09-09T09:26:03Z</time>
      </trkpt>
      <trkpt lat="48.26986" lon="-0.31557">
        <ele>319</ele>
        <time>2014-09-09T09:26:09Z</time>
      </trkpt>
      <trkpt lat="48.26949" lon="-0.31619">
        <ele>316</ele>
        <time>2014-09-09T09:26:15Z</time>
      </trkpt>
      <trkpt lat="48.26922" lon="-0.31676">
        <ele>315</ele>
        <time>2014-09-09T09:26:21Z</time>
      </trkpt>
      <trkpt lat="48.2691" lon="-0.31699">
        <ele>315</ele>
        <time>2014-09-09T09:26:24Z</time>
      </trkpt>
      <trkpt lat="48.26887" lon="-0.31739">
        <ele>318</ele>
        <time>2014-09-09T09:26:29Z</time>
      </trkpt>
      <trkpt lat="48.26863" lon="-0.31781">
        <ele>318</ele>
        <time>2014-09-09T09:26:35Z</time>
      </trkpt>
      <trkpt lat="48.26847" lon="-0.31811">
        <ele>320</ele>
        <time>2014-09-09T09:26:40Z</time>
      </trkpt>
      <trkpt lat="48.26839" lon="-0.31827">
        <ele>318</ele>
        <time>2014-09-09T09:26:43Z</time>
      </trkpt>
      <trkpt lat="48.2683" lon="-0.31844">
        <ele>318</ele>
        <time>2014-09-09T09:26:46Z</time>
      </trkpt>
      <trkpt lat="48.26819" lon="-0.31862">
        <ele>317</ele>
        <time>2014-09-09T09:26:49Z</time>
      </trkpt>
      <trkpt lat="48.26789" lon="-0.31913">
        <ele>316</ele>
        <time>2014-09-09T09:26:56Z</time>
      </trkpt>
      <trkpt lat="48.26765" lon="-0.31957">
        <ele>314</ele>
        <time>2014-09-09T09:27:01Z</time>
      </trkpt>
      <trkpt lat="48.26749" lon="-0.31985">
        <ele>313</ele>
        <time>2014-09-09T09:27:04Z</time>
      </trkpt>
      <trkpt lat="48.26715" lon="-0.32044">
        <ele>311</ele>
        <time>2014-09-09T09:27:10Z</time>
      </trkpt>
      <trkpt lat="48.26686" lon="-0.32095">
        <ele>309</ele>
        <time>2014-09-09T09:27:15Z</time>
      </trkpt>
      <trkpt lat="48.26663" lon="-0.32138">
        <ele>309</ele>
        <time>2014-09-09T09:27:20Z</time>
      </trkpt>
      <trkpt lat="48.26639" lon="-0.32184">
        <ele>312</ele>
        <time>2014-09-09T09:27:26Z</time>
      </trkpt>
      <trkpt lat="48.26607" lon="-0.32241">
        <ele>312</ele>
        <time>2014-09-09T09:27:34Z</time>
      </trkpt>
      <trkpt lat="48.26588" lon="-0.32275">
        <ele>313</ele>
        <time>2014-09-09T09:27:39Z</time>
      </trkpt>
      <trkpt lat="48.26572" lon="-0.32304">
        <ele>313</ele>
        <time>2014-09-09T09:27:44Z</time>
      </trkpt>
      <trkpt lat="48.26546" lon="-0.32352">
        <ele>312</ele>
        <time>2014-09-09T09:27:50Z</time>
      </trkpt>
      <trkpt lat="48.26535" lon="-0.32372">
        <ele>314</ele>
        <time>2014-09-09T09:27:53Z</time>
      </trkpt>
      <trkpt lat="48.26514" lon="-0.3241">
        <ele>315</ele>
        <time>2014-09-09T09:27:59Z</time>
      </trkpt>
      <trkpt lat="48.26492" lon="-0.32448">
        <ele>316</ele>
        <time>2014-09-09T09:28:05Z</time>
      </trkpt>
      <trkpt lat="48.26482" lon="-0.32465">
        <ele>315</ele>
        <time>2014-09-09T09:28:08Z</time>
      </trkpt>
      <trkpt lat="48.26471" lon="-0.32483">
        <ele>314</ele>
        <time>2014-09-09T09:28:11Z</time>
      </trkpt>
      <trkpt lat="48.26459" lon="-0.32503">
        <ele>314</ele>
        <time>2014-09-09T09:28:14Z</time>
      </trkpt>
      <trkpt lat="48.26448" lon="-0.32523">
        <ele>314</ele>
        <time>2014-09-09T09:28:17Z</time>
      </trkpt>
      <trkpt lat="48.26418" lon="-0.32563">
        <ele>313</ele>
        <time>2014-09-09T09:28:23Z</time>
      </trkpt>
      <trkpt lat="48.264" lon="-0.32578">
        <ele>312</ele>
        <time>2014-09-09T09:28:26Z</time>
      </trkpt>
      <trkpt lat="48.26369" lon="-0.32597">
        <ele>313</ele>
        <time>2014-09-09T09:28:31Z</time>
      </trkpt>
      <trkpt lat="48.26335" lon="-0.32615">
        <ele>312</ele>
        <time>2014-09-09T09:28:37Z</time>
      </trkpt>
      <trkpt lat="48.26307" lon="-0.32631">
        <ele>312</ele>
        <time>2014-09-09T09:28:42Z</time>
      </trkpt>
      <trkpt lat="48.26275" lon="-0.32648">
        <ele>313</ele>
        <time>2014-09-09T09:28:48Z</time>
      </trkpt>
      <trkpt lat="48.26242" lon="-0.32668">
        <ele>315</ele>
        <time>2014-09-09T09:28:54Z</time>
      </trkpt>
      <trkpt lat="48.26209" lon="-0.32686">
        <ele>314</ele>
        <time>2014-09-09T09:29:00Z</time>
      </trkpt>
      <trkpt lat="48.26176" lon="-0.32704">
        <ele>316</ele>
        <time>2014-09-09T09:29:06Z</time>
      </trkpt>
      <trkpt lat="48.26147" lon="-0.32724">
        <ele>319</ele>
        <time>2014-09-09T09:29:12Z</time>
      </trkpt>
      <trkpt lat="48.26121" lon="-0.32753">
        <ele>319</ele>
        <time>2014-09-09T09:29:18Z</time>
      </trkpt>
      <trkpt lat="48.2611" lon="-0.32773">
        <ele>320</ele>
        <time>2014-09-09T09:29:21Z</time>
      </trkpt>
      <trkpt lat="48.26102" lon="-0.32795">
        <ele>321</ele>
        <time>2014-09-09T09:29:24Z</time>
      </trkpt>
      <trkpt lat="48.26093" lon="-0.3285">
        <ele>318</ele>
        <time>2014-09-09T09:29:30Z</time>
      </trkpt>
      <trkpt lat="48.26092" lon="-0.32883">
        <ele>315</ele>
        <time>2014-09-09T09:29:33Z</time>
      </trkpt>
      <trkpt lat="48.26091" lon="-0.32917">
        <ele>315</ele>
        <time>2014-09-09T09:29:36Z</time>
      </trkpt>
      <trkpt lat="48.26091" lon="-0.32952">
        <ele>312</ele>
        <time>2014-09-09T09:29:39Z</time>
      </trkpt>
      <trkpt lat="48.26089" lon="-0.33013">
        <ele>313</ele>
        <time>2014-09-09T09:29:44Z</time>
      </trkpt>
      <trkpt lat="48.26088" lon="-0.33052">
        <ele>313</ele>
        <time>2014-09-09T09:29:47Z</time>
      </trkpt>
      <trkpt lat="48.26086" lon="-0.33091">
        <ele>310</ele>
        <time>2014-09-09T09:29:50Z</time>
      </trkpt>
      <trkpt lat="48.26082" lon="-0.33166">
        <ele>311</ele>
        <time>2014-09-09T09:29:56Z</time>
      </trkpt>
      <trkpt lat="48.26079" lon="-0.33196">
        <ele>311</ele>
        <time>2014-09-09T09:29:59Z</time>
      </trkpt>
      <trkpt lat="48.26075" lon="-0.33223">
        <ele>311</ele>
        <time>2014-09-09T09:30:03Z</time>
      </trkpt>
      <trkpt lat="48.26069" lon="-0.3325">
        <ele>312</ele>
        <time>2014-09-09T09:30:06Z</time>
      </trkpt>
      <trkpt lat="48.26063" lon="-0.33278">
        <ele>312</ele>
        <time>2014-09-09T09:30:08Z</time>
      </trkpt>
      <trkpt lat="48.26057" lon="-0.33307">
        <ele>313</ele>
        <time>2014-09-09T09:30:11Z</time>
      </trkpt>
      <trkpt lat="48.26048" lon="-0.33353">
        <ele>315</ele>
        <time>2014-09-09T09:30:16Z</time>
      </trkpt>
      <trkpt lat="48.26037" lon="-0.3341">
        <ele>316</ele>
        <time>2014-09-09T09:30:22Z</time>
      </trkpt>
      <trkpt lat="48.26026" lon="-0.33465">
        <ele>317</ele>
        <time>2014-09-09T09:30:28Z</time>
      </trkpt>
      <trkpt lat="48.26021" lon="-0.33492">
        <ele>319</ele>
        <time>2014-09-09T09:30:31Z</time>
      </trkpt>
      <trkpt lat="48.26016" lon="-0.33518">
        <ele>319</ele>
        <time>2014-09-09T09:30:34Z</time>
      </trkpt>
      <trkpt lat="48.2601" lon="-0.33546">
        <ele>321</ele>
        <time>2014-09-09T09:30:37Z</time>
      </trkpt>
      <trkpt lat="48.26006" lon="-0.3357">
        <ele>321</ele>
        <time>2014-09-09T09:30:40Z</time>
      </trkpt>
      <trkpt lat="48.25998" lon="-0.33607">
        <ele>324</ele>
        <time>2014-09-09T09:30:45Z</time>
      </trkpt>
      <trkpt lat="48.2599" lon="-0.3365">
        <ele>322</ele>
        <time>2014-09-09T09:30:51Z</time>
      </trkpt>
      <trkpt lat="48.25986" lon="-0.33669">
        <ele>324</ele>
        <time>2014-09-09T09:30:54Z</time>
      </trkpt>
      <trkpt lat="48.25977" lon="-0.33708">
        <ele>321</ele>
        <time>2014-09-09T09:31:00Z</time>
      </trkpt>
      <trkpt lat="48.25968" lon="-0.33749">
        <ele>321</ele>
        <time>2014-09-09T09:31:06Z</time>
      </trkpt>
      <trkpt lat="48.25961" lon="-0.33782">
        <ele>322</ele>
        <time>2014-09-09T09:31:11Z</time>
      </trkpt>
      <trkpt lat="48.25951" lon="-0.33816">
        <ele>322</ele>
        <time>2014-09-09T09:31:17Z</time>
      </trkpt>
      <trkpt lat="48.2594" lon="-0.33847">
        <ele>322</ele>
        <time>2014-09-09T09:31:22Z</time>
      </trkpt>
      <trkpt lat="48.25926" lon="-0.33888">
        <ele>321</ele>
        <time>2014-09-09T09:31:28Z</time>
      </trkpt>
      <trkpt lat="48.25915" lon="-0.33921">
        <ele>321</ele>
        <time>2014-09-09T09:31:33Z</time>
      </trkpt>
      <trkpt lat="48.25903" lon="-0.33957">
        <ele>324</ele>
        <time>2014-09-09T09:31:39Z</time>
      </trkpt>
      <trkpt lat="48.25888" lon="-0.34002">
        <ele>322</ele>
        <time>2014-09-09T09:31:45Z</time>
      </trkpt>
      <trkpt lat="48.25876" lon="-0.34039">
        <ele>323</ele>
        <time>2014-09-09T09:31:51Z</time>
      </trkpt>
      <trkpt lat="48.25871" lon="-0.34057">
        <ele>323</ele>
        <time>2014-09-09T09:31:54Z</time>
      </trkpt>
      <trkpt lat="48.25861" lon="-0.34086">
        <ele>322</ele>
        <time>2014-09-09T09:31:59Z</time>
      </trkpt>
      <trkpt lat="48.25856" lon="-0.34105">
        <ele>322</ele>
        <time>2014-09-09T09:32:02Z</time>
      </trkpt>
      <trkpt lat="48.25849" lon="-0.34123">
        <ele>322</ele>
        <time>2014-09-09T09:32:05Z</time>
      </trkpt>
      <trkpt lat="48.25843" lon="-0.34141">
        <ele>322</ele>
        <time>2014-09-09T09:32:08Z</time>
      </trkpt>
      <trkpt lat="48.25838" lon="-0.34157">
        <ele>322</ele>
        <time>2014-09-09T09:32:11Z</time>
      </trkpt>
      <trkpt lat="48.25832" lon="-0.34174">
        <ele>322</ele>
        <time>2014-09-09T09:32:14Z</time>
      </trkpt>
      <trkpt lat="48.25826" lon="-0.34191">
        <ele>322</ele>
        <time>2014-09-09T09:32:17Z</time>
      </trkpt>
      <trkpt lat="48.25809" lon="-0.34232">
        <ele>320</ele>
        <time>2014-09-09T09:32:24Z</time>
      </trkpt>
      <trkpt lat="48.25792" lon="-0.34263">
        <ele>322</ele>
        <time>2014-09-09T09:32:29Z</time>
      </trkpt>
      <trkpt lat="48.25781" lon="-0.34283">
        <ele>322</ele>
        <time>2014-09-09T09:32:32Z</time>
      </trkpt>
      <trkpt lat="48.2577" lon="-0.34303">
        <ele>322</ele>
        <time>2014-09-09T09:32:35Z</time>
      </trkpt>
      <trkpt lat="48.25758" lon="-0.34323">
        <ele>320</ele>
        <time>2014-09-09T09:32:38Z</time>
      </trkpt>
      <trkpt lat="48.25747" lon="-0.34345">
        <ele>320</ele>
        <time>2014-09-09T09:32:41Z</time>
      </trkpt>
      <trkpt lat="48.25729" lon="-0.3438">
        <ele>320</ele>
        <time>2014-09-09T09:32:46Z</time>
      </trkpt>
      <trkpt lat="48.25712" lon="-0.34416">
        <ele>318</ele>
        <time>2014-09-09T09:32:52Z</time>
      </trkpt>
      <trkpt lat="48.25701" lon="-0.34437">
        <ele>316</ele>
        <time>2014-09-09T09:32:56Z</time>
      </trkpt>
      <trkpt lat="48.25693" lon="-0.34457">
        <ele>317</ele>
        <time>2014-09-09T09:32:58Z</time>
      </trkpt>
      <trkpt lat="48.25686" lon="-0.34474">
        <ele>316</ele>
        <time>2014-09-09T09:33:00Z</time>
      </trkpt>
      <trkpt lat="48.25696" lon="-0.34507">
        <ele>315</ele>
        <time>2014-09-09T09:33:07Z</time>
      </trkpt>
      <trkpt lat="48.25716" lon="-0.34523">
        <ele>318</ele>
        <time>2014-09-09T09:33:13Z</time>
      </trkpt>
      <trkpt lat="48.25736" lon="-0.34537">
        <ele>321</ele>
        <time>2014-09-09T09:33:18Z</time>
      </trkpt>
      <trkpt lat="48.25756" lon="-0.34549">
        <ele>323</ele>
        <time>2014-09-09T09:33:24Z</time>
      </trkpt>
      <trkpt lat="48.25784" lon="-0.34566">
        <ele>326</ele>
        <time>2014-09-09T09:33:31Z</time>
      </trkpt>
      <trkpt lat="48.25796" lon="-0.34573">
        <ele>327</ele>
        <time>2014-09-09T09:33:33Z</time>
      </trkpt>
      <trkpt lat="48.25808" lon="-0.34581">
        <ele>327</ele>
        <time>2014-09-09T09:33:38Z</time>
      </trkpt>
      <trkpt lat="48.25823" lon="-0.3459">
        <ele>327</ele>
        <time>2014-09-09T09:33:43Z</time>
      </trkpt>
      <trkpt lat="48.25844" lon="-0.34596">
        <ele>329</ele>
        <time>2014-09-09T09:33:51Z</time>
      </trkpt>
      <trkpt lat="48.25858" lon="-0.346">
        <ele>328</ele>
        <time>2014-09-09T09:33:52Z</time>
      </trkpt>
      <trkpt lat="48.25897" lon="-0.34617">
        <ele>329</ele>
        <time>2014-09-09T09:33:58Z</time>
      </trkpt>
      <trkpt lat="48.25909" lon="-0.34622">
        <ele>329</ele>
        <time>2014-09-09T09:34:01Z</time>
      </trkpt>
      <trkpt lat="48.25929" lon="-0.34622">
        <ele>331</ele>
        <time>2014-09-09T09:34:06Z</time>
      </trkpt>
      <trkpt lat="48.25954" lon="-0.34596">
        <ele>331</ele>
        <time>2014-09-09T09:34:14Z</time>
      </trkpt>
      <trkpt lat="48.26" lon="-0.34529">
        <ele>336</ele>
        <time>2014-09-09T09:34:26Z</time>
      </trkpt>
      <trkpt lat="48.26014" lon="-0.34507">
        <ele>338</ele>
        <time>2014-09-09T09:34:31Z</time>
      </trkpt>
      <trkpt lat="48.2603" lon="-0.3448">
        <ele>344</ele>
        <time>2014-09-09T09:34:37Z</time>
      </trkpt>
      <trkpt lat="48.26044" lon="-0.34458">
        <ele>346</ele>
        <time>2014-09-09T09:34:43Z</time>
      </trkpt>
      <trkpt lat="48.26058" lon="-0.34435">
        <ele>346</ele>
        <time>2014-09-09T09:34:49Z</time>
      </trkpt>
      <trkpt lat="48.26075" lon="-0.34405">
        <ele>345</ele>
        <time>2014-09-09T09:34:54Z</time>
      </trkpt>
      <trkpt lat="48.26083" lon="-0.3439">
        <ele>345</ele>
        <time>2014-09-09T09:34:57Z</time>
      </trkpt>
      <trkpt lat="48.2609" lon="-0.34375">
        <ele>346</ele>
        <time>2014-09-09T09:35:00Z</time>
      </trkpt>
      <trkpt lat="48.26097" lon="-0.3436">
        <ele>351</ele>
        <time>2014-09-09T09:35:04Z</time>
      </trkpt>
      <trkpt lat="48.26114" lon="-0.34322">
        <ele>352</ele>
        <time>2014-09-09T09:35:09Z</time>
      </trkpt>
      <trkpt lat="48.2613" lon="-0.3429">
        <ele>352</ele>
        <time>2014-09-09T09:35:15Z</time>
      </trkpt>
      <trkpt lat="48.26138" lon="-0.34274">
        <ele>353</ele>
        <time>2014-09-09T09:35:18Z</time>
      </trkpt>
      <trkpt lat="48.26151" lon="-0.34246">
        <ele>354</ele>
        <time>2014-09-09T09:35:24Z</time>
      </trkpt>
      <trkpt lat="48.26167" lon="-0.34215">
        <ele>355</ele>
        <time>2014-09-09T09:35:30Z</time>
      </trkpt>
      <trkpt lat="48.26174" lon="-0.34201">
        <ele>354</ele>
        <time>2014-09-09T09:35:33Z</time>
      </trkpt>
      <trkpt lat="48.26183" lon="-0.34186">
        <ele>354</ele>
        <time>2014-09-09T09:35:36Z</time>
      </trkpt>
      <trkpt lat="48.26191" lon="-0.34172">
        <ele>354</ele>
        <time>2014-09-09T09:35:39Z</time>
      </trkpt>
      <trkpt lat="48.262" lon="-0.34156">
        <ele>354</ele>
        <time>2014-09-09T09:35:42Z</time>
      </trkpt>
      <trkpt lat="48.26214" lon="-0.34128">
        <ele>355</ele>
        <time>2014-09-09T09:35:47Z</time>
      </trkpt>
      <trkpt lat="48.26228" lon="-0.34093">
        <ele>355</ele>
        <time>2014-09-09T09:35:53Z</time>
      </trkpt>
      <trkpt lat="48.26236" lon="-0.34072">
        <ele>356</ele>
        <time>2014-09-09T09:35:56Z</time>
      </trkpt>
      <trkpt lat="48.2625" lon="-0.3404">
        <ele>355</ele>
        <time>2014-09-09T09:36:01Z</time>
      </trkpt>
      <trkpt lat="48.26261" lon="-0.34019">
        <ele>355</ele>
        <time>2014-09-09T09:36:04Z</time>
      </trkpt>
      <trkpt lat="48.26292" lon="-0.3398">
        <ele>352</ele>
        <time>2014-09-09T09:36:10Z</time>
      </trkpt>
      <trkpt lat="48.2631" lon="-0.33962">
        <ele>351</ele>
        <time>2014-09-09T09:36:14Z</time>
      </trkpt>
      <trkpt lat="48.26329" lon="-0.33946">
        <ele>351</ele>
        <time>2014-09-09T09:36:18Z</time>
      </trkpt>
      <trkpt lat="48.26376" lon="-0.33917">
        <ele>346</ele>
        <time>2014-09-09T09:36:24Z</time>
      </trkpt>
      <trkpt lat="48.26396" lon="-0.33906">
        <ele>346</ele>
        <time>2014-09-09T09:36:26Z</time>
      </trkpt>
      <trkpt lat="48.26415" lon="-0.33892">
        <ele>347</ele>
        <time>2014-09-09T09:36:29Z</time>
      </trkpt>
      <trkpt lat="48.26433" lon="-0.33876">
        <ele>346</ele>
        <time>2014-09-09T09:36:32Z</time>
      </trkpt>
      <trkpt lat="48.26467" lon="-0.33861">
        <ele>347</ele>
        <time>2014-09-09T09:36:38Z</time>
      </trkpt>
      <trkpt lat="48.26482" lon="-0.33871">
        <ele>346</ele>
        <time>2014-09-09T09:36:41Z</time>
      </trkpt>
      <trkpt lat="48.26505" lon="-0.33897">
        <ele>348</ele>
        <time>2014-09-09T09:36:47Z</time>
      </trkpt>
      <trkpt lat="48.26531" lon="-0.33919">
        <ele>348</ele>
        <time>2014-09-09T09:36:53Z</time>
      </trkpt>
      <trkpt lat="48.26556" lon="-0.3394">
        <ele>348</ele>
        <time>2014-09-09T09:37:00Z</time>
      </trkpt>
      <trkpt lat="48.26553" lon="-0.33981">
        <ele>349</ele>
        <time>2014-09-09T09:37:07Z</time>
      </trkpt>
      <trkpt lat="48.2655" lon="-0.34">
        <ele>349</ele>
        <time>2014-09-09T09:37:10Z</time>
      </trkpt>
      <trkpt lat="48.26547" lon="-0.34018">
        <ele>349</ele>
        <time>2014-09-09T09:37:13Z</time>
      </trkpt>
      <trkpt lat="48.26544" lon="-0.34037">
        <ele>349</ele>
        <time>2014-09-09T09:37:16Z</time>
      </trkpt>
      <trkpt lat="48.26539" lon="-0.34068">
        <ele>350</ele>
        <time>2014-09-09T09:37:21Z</time>
      </trkpt>
      <trkpt lat="48.26535" lon="-0.34099">
        <ele>350</ele>
        <time>2014-09-09T09:37:26Z</time>
      </trkpt>
      <trkpt lat="48.26529" lon="-0.34137">
        <ele>350</ele>
        <time>2014-09-09T09:37:32Z</time>
      </trkpt>
      <trkpt lat="48.26527" lon="-0.34155">
        <ele>350</ele>
        <time>2014-09-09T09:37:35Z</time>
      </trkpt>
      <trkpt lat="48.26523" lon="-0.34193">
        <ele>351</ele>
        <time>2014-09-09T09:37:41Z</time>
      </trkpt>
      <trkpt lat="48.26521" lon="-0.34213">
        <ele>352</ele>
        <time>2014-09-09T09:37:44Z</time>
      </trkpt>
      <trkpt lat="48.26519" lon="-0.34252">
        <ele>352</ele>
        <time>2014-09-09T09:37:50Z</time>
      </trkpt>
      <trkpt lat="48.26518" lon="-0.34272">
        <ele>352</ele>
        <time>2014-09-09T09:37:53Z</time>
      </trkpt>
      <trkpt lat="48.26518" lon="-0.34312">
        <ele>352</ele>
        <time>2014-09-09T09:37:59Z</time>
      </trkpt>
      <trkpt lat="48.2652" lon="-0.34341">
        <ele>353</ele>
        <time>2014-09-09T09:38:03Z</time>
      </trkpt>
      <trkpt lat="48.26522" lon="-0.34362">
        <ele>353</ele>
        <time>2014-09-09T09:38:06Z</time>
      </trkpt>
      <trkpt lat="48.26526" lon="-0.3439">
        <ele>353</ele>
        <time>2014-09-09T09:38:10Z</time>
      </trkpt>
      <trkpt lat="48.26532" lon="-0.34429">
        <ele>354</ele>
        <time>2014-09-09T09:38:16Z</time>
      </trkpt>
      <trkpt lat="48.26539" lon="-0.3447">
        <ele>352</ele>
        <time>2014-09-09T09:38:22Z</time>
      </trkpt>
      <trkpt lat="48.26547" lon="-0.34516">
        <ele>352</ele>
        <time>2014-09-09T09:38:28Z</time>
      </trkpt>
      <trkpt lat="48.26553" lon="-0.34557">
        <ele>350</ele>
        <time>2014-09-09T09:38:33Z</time>
      </trkpt>
      <trkpt lat="48.26557" lon="-0.34584">
        <ele>348</ele>
        <time>2014-09-09T09:38:36Z</time>
      </trkpt>
      <trkpt lat="48.26562" lon="-0.34615">
        <ele>346</ele>
        <time>2014-09-09T09:38:39Z</time>
      </trkpt>
      <trkpt lat="48.26569" lon="-0.34649">
        <ele>344</ele>
        <time>2014-09-09T09:38:42Z</time>
      </trkpt>
      <trkpt lat="48.2658" lon="-0.34696">
        <ele>342</ele>
        <time>2014-09-09T09:38:46Z</time>
      </trkpt>
      <trkpt lat="48.26606" lon="-0.34794">
        <ele>337</ele>
        <time>2014-09-09T09:38:54Z</time>
      </trkpt>
      <trkpt lat="48.26622" lon="-0.34853">
        <ele>332</ele>
        <time>2014-09-09T09:38:59Z</time>
      </trkpt>
      <trkpt lat="48.26631" lon="-0.34902">
        <ele>330</ele>
        <time>2014-09-09T09:39:04Z</time>
      </trkpt>
      <trkpt lat="48.26632" lon="-0.34994">
        <ele>331</ele>
        <time>2014-09-09T09:39:10Z</time>
      </trkpt>
      <trkpt lat="48.26613" lon="-0.35067">
        <ele>329</ele>
        <time>2014-09-09T09:39:16Z</time>
      </trkpt>
      <trkpt lat="48.26597" lon="-0.35129">
        <ele>327</ele>
        <time>2014-09-09T09:39:21Z</time>
      </trkpt>
      <trkpt lat="48.26577" lon="-0.35204">
        <ele>325</ele>
        <time>2014-09-09T09:39:27Z</time>
      </trkpt>
      <trkpt lat="48.26562" lon="-0.35263">
        <ele>324</ele>
        <time>2014-09-09T09:39:32Z</time>
      </trkpt>
      <trkpt lat="48.26554" lon="-0.35297">
        <ele>323</ele>
        <time>2014-09-09T09:39:35Z</time>
      </trkpt>
      <trkpt lat="48.26541" lon="-0.3535">
        <ele>323</ele>
        <time>2014-09-09T09:39:40Z</time>
      </trkpt>
      <trkpt lat="48.26528" lon="-0.35402">
        <ele>323</ele>
        <time>2014-09-09T09:39:45Z</time>
      </trkpt>
      <trkpt lat="48.2652" lon="-0.35433">
        <ele>322</ele>
        <time>2014-09-09T09:39:48Z</time>
      </trkpt>
      <trkpt lat="48.26505" lon="-0.35497">
        <ele>320</ele>
        <time>2014-09-09T09:39:54Z</time>
      </trkpt>
      <trkpt lat="48.2649" lon="-0.35561">
        <ele>320</ele>
        <time>2014-09-09T09:40:00Z</time>
      </trkpt>
      <trkpt lat="48.2648" lon="-0.35631">
        <ele>318</ele>
        <time>2014-09-09T09:40:06Z</time>
      </trkpt>
      <trkpt lat="48.2648" lon="-0.35668">
        <ele>317</ele>
        <time>2014-09-09T09:40:09Z</time>
      </trkpt>
      <trkpt lat="48.2649" lon="-0.35731">
        <ele>314</ele>
        <time>2014-09-09T09:40:14Z</time>
      </trkpt>
      <trkpt lat="48.265" lon="-0.35766">
        <ele>312</ele>
        <time>2014-09-09T09:40:17Z</time>
      </trkpt>
      <trkpt lat="48.26522" lon="-0.35817">
        <ele>309</ele>
        <time>2014-09-09T09:40:22Z</time>
      </trkpt>
      <trkpt lat="48.26537" lon="-0.35858">
        <ele>308</ele>
        <time>2014-09-09T09:40:26Z</time>
      </trkpt>
      <trkpt lat="48.26534" lon="-0.35891">
        <ele>304</ele>
        <time>2014-09-09T09:40:29Z</time>
      </trkpt>
      <trkpt lat="48.26517" lon="-0.35945">
        <ele>303</ele>
        <time>2014-09-09T09:40:34Z</time>
      </trkpt>
      <trkpt lat="48.26489" lon="-0.36002">
        <ele>303</ele>
        <time>2014-09-09T09:40:40Z</time>
      </trkpt>
      <trkpt lat="48.26475" lon="-0.36026">
        <ele>303</ele>
        <time>2014-09-09T09:40:43Z</time>
      </trkpt>
      <trkpt lat="48.26444" lon="-0.36069">
        <ele>301</ele>
        <time>2014-09-09T09:40:49Z</time>
      </trkpt>
      <trkpt lat="48.26429" lon="-0.36089">
        <ele>300</ele>
        <time>2014-09-09T09:40:52Z</time>
      </trkpt>
      <trkpt lat="48.26413" lon="-0.36108">
        <ele>298</ele>
        <time>2014-09-09T09:40:56Z</time>
      </trkpt>
      <trkpt lat="48.26398" lon="-0.36128">
        <ele>298</ele>
        <time>2014-09-09T09:40:59Z</time>
      </trkpt>
      <trkpt lat="48.26381" lon="-0.36148">
        <ele>297</ele>
        <time>2014-09-09T09:41:01Z</time>
      </trkpt>
      <trkpt lat="48.26365" lon="-0.36169">
        <ele>297</ele>
        <time>2014-09-09T09:41:04Z</time>
      </trkpt>
      <trkpt lat="48.26338" lon="-0.36208">
        <ele>296</ele>
        <time>2014-09-09T09:41:09Z</time>
      </trkpt>
      <trkpt lat="48.26314" lon="-0.36263">
        <ele>294</ele>
        <time>2014-09-09T09:41:15Z</time>
      </trkpt>
      <trkpt lat="48.263" lon="-0.36326">
        <ele>292</ele>
        <time>2014-09-09T09:41:21Z</time>
      </trkpt>
      <trkpt lat="48.26285" lon="-0.36388">
        <ele>291</ele>
        <time>2014-09-09T09:41:27Z</time>
      </trkpt>
      <trkpt lat="48.26278" lon="-0.36417">
        <ele>291</ele>
        <time>2014-09-09T09:41:30Z</time>
      </trkpt>
      <trkpt lat="48.26268" lon="-0.36448">
        <ele>287</ele>
        <time>2014-09-09T09:41:33Z</time>
      </trkpt>
      <trkpt lat="48.26248" lon="-0.36508">
        <ele>288</ele>
        <time>2014-09-09T09:41:39Z</time>
      </trkpt>
      <trkpt lat="48.2623" lon="-0.3656">
        <ele>279</ele>
        <time>2014-09-09T09:41:44Z</time>
      </trkpt>
      <trkpt lat="48.26217" lon="-0.36594">
        <ele>279</ele>
        <time>2014-09-09T09:41:47Z</time>
      </trkpt>
      <trkpt lat="48.26194" lon="-0.36646">
        <ele>276</ele>
        <time>2014-09-09T09:41:52Z</time>
      </trkpt>
      <trkpt lat="48.2617" lon="-0.36714">
        <ele>273</ele>
        <time>2014-09-09T09:41:58Z</time>
      </trkpt>
      <trkpt lat="48.26157" lon="-0.36749">
        <ele>269</ele>
        <time>2014-09-09T09:42:01Z</time>
      </trkpt>
      <trkpt lat="48.26145" lon="-0.36783">
        <ele>267</ele>
        <time>2014-09-09T09:42:04Z</time>
      </trkpt>
      <trkpt lat="48.26123" lon="-0.3685">
        <ele>259</ele>
        <time>2014-09-09T09:42:10Z</time>
      </trkpt>
      <trkpt lat="48.26103" lon="-0.36898">
        <ele>257</ele>
        <time>2014-09-09T09:42:15Z</time>
      </trkpt>
      <trkpt lat="48.26078" lon="-0.36954">
        <ele>254</ele>
        <time>2014-09-09T09:42:21Z</time>
      </trkpt>
      <trkpt lat="48.26067" lon="-0.3698">
        <ele>254</ele>
        <time>2014-09-09T09:42:24Z</time>
      </trkpt>
      <trkpt lat="48.26049" lon="-0.37021">
        <ele>252</ele>
        <time>2014-09-09T09:42:29Z</time>
      </trkpt>
      <trkpt lat="48.26036" lon="-0.37054">
        <ele>250</ele>
        <time>2014-09-09T09:42:34Z</time>
      </trkpt>
      <trkpt lat="48.26022" lon="-0.37086">
        <ele>251</ele>
        <time>2014-09-09T09:42:39Z</time>
      </trkpt>
      <trkpt lat="48.26009" lon="-0.3711">
        <ele>243</ele>
        <time>2014-09-09T09:42:45Z</time>
      </trkpt>
      <trkpt lat="48.25982" lon="-0.37107">
        <ele>239</ele>
        <time>2014-09-09T09:42:54Z</time>
      </trkpt>
      <trkpt lat="48.25968" lon="-0.37118">
        <ele>237</ele>
        <time>2014-09-09T09:43:00Z</time>
      </trkpt>
      <trkpt lat="48.25942" lon="-0.37116">
        <ele>235</ele>
        <time>2014-09-09T09:43:07Z</time>
      </trkpt>
      <trkpt lat="48.25907" lon="-0.37109">
        <ele>233</ele>
        <time>2014-09-09T09:43:13Z</time>
      </trkpt>
      <trkpt lat="48.25891" lon="-0.37106">
        <ele>235</ele>
        <time>2014-09-09T09:43:16Z</time>
      </trkpt>
      <trkpt lat="48.25875" lon="-0.37103">
        <ele>234</ele>
        <time>2014-09-09T09:43:19Z</time>
      </trkpt>
      <trkpt lat="48.25848" lon="-0.37098">
        <ele>235</ele>
        <time>2014-09-09T09:43:24Z</time>
      </trkpt>
      <trkpt lat="48.25834" lon="-0.37107">
        <ele>234</ele>
        <time>2014-09-09T09:43:29Z</time>
      </trkpt>
      <trkpt lat="48.25808" lon="-0.37113">
        <ele>232</ele>
        <time>2014-09-09T09:43:38Z</time>
      </trkpt>
      <trkpt lat="48.25794" lon="-0.37097">
        <ele>231</ele>
        <time>2014-09-09T09:43:43Z</time>
      </trkpt>
      <trkpt lat="48.25785" lon="-0.37088">
        <ele>229</ele>
        <time>2014-09-09T09:43:46Z</time>
      </trkpt>
      <trkpt lat="48.25775" lon="-0.37079">
        <ele>228</ele>
        <time>2014-09-09T09:43:49Z</time>
      </trkpt>
      <trkpt lat="48.25746" lon="-0.37051">
        <ele>227</ele>
        <time>2014-09-09T09:43:58Z</time>
      </trkpt>
      <trkpt lat="48.25724" lon="-0.37029">
        <ele>230</ele>
        <time>2014-09-09T09:44:05Z</time>
      </trkpt>
      <trkpt lat="48.25714" lon="-0.3702">
        <ele>230</ele>
        <time>2014-09-09T09:44:08Z</time>
      </trkpt>
      <trkpt lat="48.257" lon="-0.37007">
        <ele>229</ele>
        <time>2014-09-09T09:44:13Z</time>
      </trkpt>
      <trkpt lat="48.25681" lon="-0.36989">
        <ele>230</ele>
        <time>2014-09-09T09:44:20Z</time>
      </trkpt>
      <trkpt lat="48.25672" lon="-0.36979">
        <ele>232</ele>
        <time>2014-09-09T09:44:23Z</time>
      </trkpt>
      <trkpt lat="48.25652" lon="-0.36959">
        <ele>230</ele>
        <time>2014-09-09T09:44:29Z</time>
      </trkpt>
      <trkpt lat="48.25632" lon="-0.36941">
        <ele>230</ele>
        <time>2014-09-09T09:44:35Z</time>
      </trkpt>
      <trkpt lat="48.25612" lon="-0.36922">
        <ele>228</ele>
        <time>2014-09-09T09:44:42Z</time>
      </trkpt>
      <trkpt lat="48.25592" lon="-0.36901">
        <ele>233</ele>
        <time>2014-09-09T09:44:48Z</time>
      </trkpt>
      <trkpt lat="48.25582" lon="-0.36892">
        <ele>232</ele>
        <time>2014-09-09T09:44:51Z</time>
      </trkpt>
      <trkpt lat="48.25559" lon="-0.36872">
        <ele>228</ele>
        <time>2014-09-09T09:44:58Z</time>
      </trkpt>
      <trkpt lat="48.25538" lon="-0.36856">
        <ele>230</ele>
        <time>2014-09-09T09:45:04Z</time>
      </trkpt>
      <trkpt lat="48.25519" lon="-0.36839">
        <ele>230</ele>
        <time>2014-09-09T09:45:10Z</time>
      </trkpt>
      <trkpt lat="48.25497" lon="-0.36818">
        <ele>231</ele>
        <time>2014-09-09T09:45:17Z</time>
      </trkpt>
      <trkpt lat="48.25478" lon="-0.36798">
        <ele>230</ele>
        <time>2014-09-09T09:45:24Z</time>
      </trkpt>
      <trkpt lat="48.25458" lon="-0.3678">
        <ele>229</ele>
        <time>2014-09-09T09:45:30Z</time>
      </trkpt>
      <trkpt lat="48.25429" lon="-0.36756">
        <ele>229</ele>
        <time>2014-09-09T09:45:38Z</time>
      </trkpt>
      <trkpt lat="48.25413" lon="-0.36741">
        <ele>229</ele>
        <time>2014-09-09T09:45:44Z</time>
      </trkpt>
      <trkpt lat="48.25392" lon="-0.36721">
        <ele>229</ele>
        <time>2014-09-09T09:45:51Z</time>
      </trkpt>
      <trkpt lat="48.25383" lon="-0.36712">
        <ele>230</ele>
        <time>2014-09-09T09:45:54Z</time>
      </trkpt>
      <trkpt lat="48.2537" lon="-0.367">
        <ele>230</ele>
        <time>2014-09-09T09:45:59Z</time>
      </trkpt>
      <trkpt lat="48.25353" lon="-0.36682">
        <ele>229</ele>
        <time>2014-09-09T09:46:06Z</time>
      </trkpt>
      <trkpt lat="48.25334" lon="-0.36663">
        <ele>227</ele>
        <time>2014-09-09T09:46:13Z</time>
      </trkpt>
      <trkpt lat="48.2531" lon="-0.36635">
        <ele>229</ele>
        <time>2014-09-09T09:46:21Z</time>
      </trkpt>
      <trkpt lat="48.25293" lon="-0.36616">
        <ele>231</ele>
        <time>2014-09-09T09:46:27Z</time>
      </trkpt>
      <trkpt lat="48.25278" lon="-0.36593">
        <ele>235</ele>
        <time>2014-09-09T09:46:34Z</time>
      </trkpt>
      <trkpt lat="48.25265" lon="-0.36578">
        <ele>236</ele>
        <time>2014-09-09T09:46:38Z</time>
      </trkpt>
      <trkpt lat="48.25253" lon="-0.36563">
        <ele>235</ele>
        <time>2014-09-09T09:46:42Z</time>
      </trkpt>
      <trkpt lat="48.25238" lon="-0.36541">
        <ele>231</ele>
        <time>2014-09-09T09:46:47Z</time>
      </trkpt>
      <trkpt lat="48.25218" lon="-0.36515">
        <ele>235</ele>
        <time>2014-09-09T09:46:53Z</time>
      </trkpt>
      <trkpt lat="48.25209" lon="-0.36502">
        <ele>232</ele>
        <time>2014-09-09T09:46:56Z</time>
      </trkpt>
      <trkpt lat="48.25199" lon="-0.36488">
        <ele>230</ele>
        <time>2014-09-09T09:46:59Z</time>
      </trkpt>
      <trkpt lat="48.2518" lon="-0.36458">
        <ele>235</ele>
        <time>2014-09-09T09:47:06Z</time>
      </trkpt>
      <trkpt lat="48.25166" lon="-0.36434">
        <ele>228</ele>
        <time>2014-09-09T09:47:11Z</time>
      </trkpt>
      <trkpt lat="48.25151" lon="-0.3641">
        <ele>228</ele>
        <time>2014-09-09T09:47:16Z</time>
      </trkpt>
      <trkpt lat="48.25142" lon="-0.36396">
        <ele>230</ele>
        <time>2014-09-09T09:47:19Z</time>
      </trkpt>
      <trkpt lat="48.25133" lon="-0.36375">
        <ele>227</ele>
        <time>2014-09-09T09:47:23Z</time>
      </trkpt>
      <trkpt lat="48.2512" lon="-0.3635">
        <ele>229</ele>
        <time>2014-09-09T09:47:28Z</time>
      </trkpt>
      <trkpt lat="48.25107" lon="-0.36317">
        <ele>224</ele>
        <time>2014-09-09T09:47:35Z</time>
      </trkpt>
      <trkpt lat="48.25095" lon="-0.36285">
        <ele>230</ele>
        <time>2014-09-09T09:47:40Z</time>
      </trkpt>
      <trkpt lat="48.25084" lon="-0.36258">
        <ele>233</ele>
        <time>2014-09-09T09:47:45Z</time>
      </trkpt>
      <trkpt lat="48.25073" lon="-0.36234">
        <ele>234</ele>
        <time>2014-09-09T09:47:51Z</time>
      </trkpt>
      <trkpt lat="48.25084" lon="-0.36214">
        <ele>236</ele>
        <time>2014-09-09T09:47:56Z</time>
      </trkpt>
      <trkpt lat="48.251" lon="-0.36197">
        <ele>238</ele>
        <time>2014-09-09T09:48:01Z</time>
      </trkpt>
      <trkpt lat="48.25114" lon="-0.36181">
        <ele>241</ele>
        <time>2014-09-09T09:48:05Z</time>
      </trkpt>
      <trkpt lat="48.25131" lon="-0.36151">
        <ele>238</ele>
        <time>2014-09-09T09:48:12Z</time>
      </trkpt>
      <trkpt lat="48.25145" lon="-0.36115">
        <ele>243</ele>
        <time>2014-09-09T09:48:19Z</time>
      </trkpt>
      <trkpt lat="48.25155" lon="-0.36098">
        <ele>244</ele>
        <time>2014-09-09T09:48:23Z</time>
      </trkpt>
      <trkpt lat="48.25173" lon="-0.36073">
        <ele>245</ele>
        <time>2014-09-09T09:48:29Z</time>
      </trkpt>
      <trkpt lat="48.25192" lon="-0.36046">
        <ele>247</ele>
        <time>2014-09-09T09:48:35Z</time>
      </trkpt>
      <trkpt lat="48.25209" lon="-0.36019">
        <ele>245</ele>
        <time>2014-09-09T09:48:41Z</time>
      </trkpt>
      <trkpt lat="48.25221" lon="-0.35997">
        <ele>248</ele>
        <time>2014-09-09T09:48:47Z</time>
      </trkpt>
      <trkpt lat="48.25228" lon="-0.35967">
        <ele>244</ele>
        <time>2014-09-09T09:48:56Z</time>
      </trkpt>
      <trkpt lat="48.25228" lon="-0.35967">
        <ele>244</ele>
        <time>2014-09-09T09:49:03Z</time>
      </trkpt>
      <trkpt lat="48.25228" lon="-0.35967">
        <ele>200.2</ele>
        <time>2014-09-09T09:49:03Z</time>
      </trkpt>
      <trkpt lat="48.25228" lon="-0.35967">
        <ele>200.2</ele>
        <time>2014-09-09T09:49:09Z</time>
      </trkpt>
    </trkseg>
  </trk>
</gpx>